<?xml version="1.0" encoding="UTF-8" standalone="no" ?>
<gpx xmlns="http://www.topografix.com/GPX/1/1" xmlns:xsi="http://www.w3.org/2001/XMLSchema-instance" xsi:schemaLocation="http://www.topografix.com/GPX/1/1 http://www.topografix.com/GPX/1/1/gpx.xsd" version="1.1" creator="VisuGPX - https://www.visugpx.com">
  <metadata>
    <name>rando jura</name>
    <desc><![CDATA[du col de la faucille au chalet de curson, par les crete]]></desc>
  </metadata>
  <trk>
    <name><![CDATA[rando jura]]></name>
    <trkseg>
      <trkpt lat="46.36314" lon="6.01045">
        <ele>1393</ele>
        <time>2014-06-28T06:58:03.000Z</time>
      </trkpt>
      <trkpt lat="46.36309" lon="6.01039">
        <ele>1394</ele>
        <time>2014-06-28T06:58:10.000Z</time>
      </trkpt>
      <trkpt lat="46.36295" lon="6.0103">
        <ele>1396</ele>
        <time>2014-06-28T06:58:24.000Z</time>
      </trkpt>
      <trkpt lat="46.36292" lon="6.01023">
        <ele>1396</ele>
        <time>2014-06-28T06:58:30.000Z</time>
      </trkpt>
      <trkpt lat="46.36288" lon="6.01013">
        <ele>1397</ele>
        <time>2014-06-28T06:58:37.000Z</time>
      </trkpt>
      <trkpt lat="46.36277" lon="6.00999">
        <ele>1395</ele>
        <time>2014-06-28T06:58:50.000Z</time>
      </trkpt>
      <trkpt lat="46.36261" lon="6.00984">
        <ele>1399</ele>
        <time>2014-06-28T06:59:00.000Z</time>
      </trkpt>
      <trkpt lat="46.36258" lon="6.0098">
        <ele>1398</ele>
        <time>2014-06-28T06:59:04.000Z</time>
      </trkpt>
      <trkpt lat="46.36254" lon="6.00967">
        <ele>1396</ele>
        <time>2014-06-28T06:59:15.000Z</time>
      </trkpt>
      <trkpt lat="46.36255" lon="6.00964">
        <ele>1395</ele>
        <time>2014-06-28T06:59:17.000Z</time>
      </trkpt>
      <trkpt lat="46.3625" lon="6.00952">
        <ele>1410</ele>
        <time>2014-06-28T06:59:24.000Z</time>
      </trkpt>
      <trkpt lat="46.36245" lon="6.00949">
        <ele>1409</ele>
        <time>2014-06-28T06:59:29.000Z</time>
      </trkpt>
      <trkpt lat="46.3624" lon="6.00946">
        <ele>1409</ele>
        <time>2014-06-28T06:59:32.000Z</time>
      </trkpt>
      <trkpt lat="46.36236" lon="6.00941">
        <ele>1409</ele>
        <time>2014-06-28T06:59:36.000Z</time>
      </trkpt>
      <trkpt lat="46.3623" lon="6.0093">
        <ele>1408</ele>
        <time>2014-06-28T06:59:42.000Z</time>
      </trkpt>
      <trkpt lat="46.36224" lon="6.00916">
        <ele>1405</ele>
        <time>2014-06-28T06:59:50.000Z</time>
      </trkpt>
      <trkpt lat="46.36224" lon="6.0091">
        <ele>1404</ele>
        <time>2014-06-28T06:59:54.000Z</time>
      </trkpt>
      <trkpt lat="46.36224" lon="6.00901">
        <ele>1404</ele>
        <time>2014-06-28T06:59:58.000Z</time>
      </trkpt>
      <trkpt lat="46.36223" lon="6.0089">
        <ele>1405</ele>
        <time>2014-06-28T07:00:04.000Z</time>
      </trkpt>
      <trkpt lat="46.36223" lon="6.00879">
        <ele>1404</ele>
        <time>2014-06-28T07:00:10.000Z</time>
      </trkpt>
      <trkpt lat="46.36221" lon="6.00871">
        <ele>1404</ele>
        <time>2014-06-28T07:00:15.000Z</time>
      </trkpt>
      <trkpt lat="46.36218" lon="6.00862">
        <ele>1404</ele>
        <time>2014-06-28T07:00:20.000Z</time>
      </trkpt>
      <trkpt lat="46.36213" lon="6.00852">
        <ele>1404</ele>
        <time>2014-06-28T07:00:27.000Z</time>
      </trkpt>
      <trkpt lat="46.36209" lon="6.00842">
        <ele>1405</ele>
        <time>2014-06-28T07:00:32.000Z</time>
      </trkpt>
      <trkpt lat="46.36203" lon="6.00834">
        <ele>1406</ele>
        <time>2014-06-28T07:00:38.000Z</time>
      </trkpt>
      <trkpt lat="46.36201" lon="6.00832">
        <ele>1402</ele>
        <time>2014-06-28T07:00:40.000Z</time>
      </trkpt>
      <trkpt lat="46.36199" lon="6.00827">
        <ele>1402</ele>
        <time>2014-06-28T07:00:44.000Z</time>
      </trkpt>
      <trkpt lat="46.36197" lon="6.00824">
        <ele>1403</ele>
        <time>2014-06-28T07:00:46.000Z</time>
      </trkpt>
      <trkpt lat="46.36188" lon="6.00812">
        <ele>1403</ele>
        <time>2014-06-28T07:00:54.000Z</time>
      </trkpt>
      <trkpt lat="46.36182" lon="6.00805">
        <ele>1403</ele>
        <time>2014-06-28T07:01:00.000Z</time>
      </trkpt>
      <trkpt lat="46.36173" lon="6.00796">
        <ele>1403</ele>
        <time>2014-06-28T07:01:09.000Z</time>
      </trkpt>
      <trkpt lat="46.36169" lon="6.00796">
        <ele>1404</ele>
        <time>2014-06-28T07:01:17.000Z</time>
      </trkpt>
      <trkpt lat="46.36144" lon="6.00788">
        <ele>1417</ele>
        <time>2014-06-28T07:01:32.000Z</time>
      </trkpt>
      <trkpt lat="46.3612" lon="6.00783">
        <ele>1419</ele>
        <time>2014-06-28T07:01:45.000Z</time>
      </trkpt>
      <trkpt lat="46.36104" lon="6.00777">
        <ele>1421</ele>
        <time>2014-06-28T07:01:56.000Z</time>
      </trkpt>
      <trkpt lat="46.36082" lon="6.00766">
        <ele>1428</ele>
        <time>2014-06-28T07:02:11.000Z</time>
      </trkpt>
      <trkpt lat="46.36065" lon="6.00757">
        <ele>1429</ele>
        <time>2014-06-28T07:02:25.000Z</time>
      </trkpt>
      <trkpt lat="46.36045" lon="6.00748">
        <ele>1428</ele>
        <time>2014-06-28T07:02:39.000Z</time>
      </trkpt>
      <trkpt lat="46.36028" lon="6.00739">
        <ele>1429</ele>
        <time>2014-06-28T07:02:51.000Z</time>
      </trkpt>
      <trkpt lat="46.36019" lon="6.00738">
        <ele>1430</ele>
        <time>2014-06-28T07:02:56.000Z</time>
      </trkpt>
      <trkpt lat="46.36003" lon="6.00716">
        <ele>1430</ele>
        <time>2014-06-28T07:03:10.000Z</time>
      </trkpt>
      <trkpt lat="46.35994" lon="6.00702">
        <ele>1435</ele>
        <time>2014-06-28T07:03:21.000Z</time>
      </trkpt>
      <trkpt lat="46.35988" lon="6.00695">
        <ele>1435</ele>
        <time>2014-06-28T07:03:28.000Z</time>
      </trkpt>
      <trkpt lat="46.35983" lon="6.00694">
        <ele>1435</ele>
        <time>2014-06-28T07:03:32.000Z</time>
      </trkpt>
      <trkpt lat="46.35958" lon="6.00689">
        <ele>1436</ele>
        <time>2014-06-28T07:03:46.000Z</time>
      </trkpt>
      <trkpt lat="46.3594" lon="6.00687">
        <ele>1437</ele>
        <time>2014-06-28T07:03:55.000Z</time>
      </trkpt>
      <trkpt lat="46.35938" lon="6.00681">
        <ele>1437</ele>
        <time>2014-06-28T07:03:59.000Z</time>
      </trkpt>
      <trkpt lat="46.35937" lon="6.00675">
        <ele>1437</ele>
        <time>2014-06-28T07:04:04.000Z</time>
      </trkpt>
      <trkpt lat="46.35939" lon="6.00665">
        <ele>1432</ele>
        <time>2014-06-28T07:04:10.000Z</time>
      </trkpt>
      <trkpt lat="46.3594" lon="6.00658">
        <ele>1432</ele>
        <time>2014-06-28T07:04:16.000Z</time>
      </trkpt>
      <trkpt lat="46.35934" lon="6.00647">
        <ele>1432</ele>
        <time>2014-06-28T07:04:25.000Z</time>
      </trkpt>
      <trkpt lat="46.3592" lon="6.00638">
        <ele>1431</ele>
        <time>2014-06-28T07:04:40.000Z</time>
      </trkpt>
      <trkpt lat="46.35921" lon="6.00639">
        <ele>1431</ele>
        <time>2014-06-28T07:04:41.000Z</time>
      </trkpt>
      <trkpt lat="46.35904" lon="6.00655">
        <ele>1436</ele>
        <time>2014-06-28T07:04:55.000Z</time>
      </trkpt>
      <trkpt lat="46.35873" lon="6.0066">
        <ele>1437</ele>
        <time>2014-06-28T07:05:09.000Z</time>
      </trkpt>
      <trkpt lat="46.35854" lon="6.00655">
        <ele>1439</ele>
        <time>2014-06-28T07:05:20.000Z</time>
      </trkpt>
      <trkpt lat="46.35839" lon="6.00643">
        <ele>1438</ele>
        <time>2014-06-28T07:05:32.000Z</time>
      </trkpt>
      <trkpt lat="46.35836" lon="6.00643">
        <ele>1438</ele>
        <time>2014-06-28T07:05:34.000Z</time>
      </trkpt>
      <trkpt lat="46.35822" lon="6.00638">
        <ele>1441</ele>
        <time>2014-06-28T07:05:41.000Z</time>
      </trkpt>
      <trkpt lat="46.35809" lon="6.0063">
        <ele>1441</ele>
        <time>2014-06-28T07:05:48.000Z</time>
      </trkpt>
      <trkpt lat="46.35798" lon="6.00618">
        <ele>1441</ele>
        <time>2014-06-28T07:05:59.000Z</time>
      </trkpt>
      <trkpt lat="46.35778" lon="6.00611">
        <ele>1441</ele>
        <time>2014-06-28T07:06:10.000Z</time>
      </trkpt>
      <trkpt lat="46.35764" lon="6.00605">
        <ele>1441</ele>
        <time>2014-06-28T07:06:20.000Z</time>
      </trkpt>
      <trkpt lat="46.35754" lon="6.006">
        <ele>1441</ele>
        <time>2014-06-28T07:06:32.000Z</time>
      </trkpt>
      <trkpt lat="46.35749" lon="6.00595">
        <ele>1446</ele>
        <time>2014-06-28T07:06:37.000Z</time>
      </trkpt>
      <trkpt lat="46.35748" lon="6.00586">
        <ele>1443</ele>
        <time>2014-06-28T07:06:42.000Z</time>
      </trkpt>
      <trkpt lat="46.35746" lon="6.00584">
        <ele>1443</ele>
        <time>2014-06-28T07:06:45.000Z</time>
      </trkpt>
      <trkpt lat="46.35737" lon="6.00564">
        <ele>1444</ele>
        <time>2014-06-28T07:06:57.000Z</time>
      </trkpt>
      <trkpt lat="46.35736" lon="6.00563">
        <ele>1444</ele>
        <time>2014-06-28T07:06:58.000Z</time>
      </trkpt>
      <trkpt lat="46.35733" lon="6.00556">
        <ele>1445</ele>
        <time>2014-06-28T07:07:02.000Z</time>
      </trkpt>
      <trkpt lat="46.35727" lon="6.00552">
        <ele>1445</ele>
        <time>2014-06-28T07:07:06.000Z</time>
      </trkpt>
      <trkpt lat="46.35713" lon="6.00535">
        <ele>1446</ele>
        <time>2014-06-28T07:07:22.000Z</time>
      </trkpt>
      <trkpt lat="46.35705" lon="6.00526">
        <ele>1446</ele>
        <time>2014-06-28T07:07:29.000Z</time>
      </trkpt>
      <trkpt lat="46.35699" lon="6.00517">
        <ele>1447</ele>
        <time>2014-06-28T07:07:36.000Z</time>
      </trkpt>
      <trkpt lat="46.35699" lon="6.00509">
        <ele>1446</ele>
        <time>2014-06-28T07:07:41.000Z</time>
      </trkpt>
      <trkpt lat="46.357" lon="6.00503">
        <ele>1446</ele>
        <time>2014-06-28T07:07:45.000Z</time>
      </trkpt>
      <trkpt lat="46.35704" lon="6.00497">
        <ele>1442</ele>
        <time>2014-06-28T07:07:49.000Z</time>
      </trkpt>
      <trkpt lat="46.35701" lon="6.00489">
        <ele>1442</ele>
        <time>2014-06-28T07:07:54.000Z</time>
      </trkpt>
      <trkpt lat="46.35695" lon="6.00478">
        <ele>1443</ele>
        <time>2014-06-28T07:08:01.000Z</time>
      </trkpt>
      <trkpt lat="46.35677" lon="6.00464">
        <ele>1443</ele>
        <time>2014-06-28T07:08:12.000Z</time>
      </trkpt>
      <trkpt lat="46.35672" lon="6.00461">
        <ele>1443</ele>
        <time>2014-06-28T07:08:17.000Z</time>
      </trkpt>
      <trkpt lat="46.35668" lon="6.00457">
        <ele>1443</ele>
        <time>2014-06-28T07:08:20.000Z</time>
      </trkpt>
      <trkpt lat="46.35661" lon="6.00447">
        <ele>1449</ele>
        <time>2014-06-28T07:08:27.000Z</time>
      </trkpt>
      <trkpt lat="46.35651" lon="6.00443">
        <ele>1449</ele>
        <time>2014-06-28T07:08:35.000Z</time>
      </trkpt>
      <trkpt lat="46.35648" lon="6.00438">
        <ele>1448</ele>
        <time>2014-06-28T07:08:43.000Z</time>
      </trkpt>
      <trkpt lat="46.35647" lon="6.00433">
        <ele>1448</ele>
        <time>2014-06-28T07:08:51.000Z</time>
      </trkpt>
      <trkpt lat="46.35643" lon="6.00429">
        <ele>1448</ele>
        <time>2014-06-28T07:08:55.000Z</time>
      </trkpt>
      <trkpt lat="46.35635" lon="6.0042">
        <ele>1449</ele>
        <time>2014-06-28T07:09:03.000Z</time>
      </trkpt>
      <trkpt lat="46.35629" lon="6.0041">
        <ele>1445</ele>
        <time>2014-06-28T07:09:10.000Z</time>
      </trkpt>
      <trkpt lat="46.35617" lon="6.00398">
        <ele>1445</ele>
        <time>2014-06-28T07:09:19.000Z</time>
      </trkpt>
      <trkpt lat="46.35607" lon="6.00387">
        <ele>1445</ele>
        <time>2014-06-28T07:09:32.000Z</time>
      </trkpt>
      <trkpt lat="46.35606" lon="6.00386">
        <ele>1445</ele>
        <time>2014-06-28T07:09:35.000Z</time>
      </trkpt>
      <trkpt lat="46.35602" lon="6.00387">
        <ele>1445</ele>
        <time>2014-06-28T07:09:37.000Z</time>
      </trkpt>
      <trkpt lat="46.35592" lon="6.00382">
        <ele>1445</ele>
        <time>2014-06-28T07:09:45.000Z</time>
      </trkpt>
      <trkpt lat="46.35586" lon="6.00379">
        <ele>1445</ele>
        <time>2014-06-28T07:09:48.000Z</time>
      </trkpt>
      <trkpt lat="46.35582" lon="6.00377">
        <ele>1449</ele>
        <time>2014-06-28T07:09:50.000Z</time>
      </trkpt>
      <trkpt lat="46.35575" lon="6.00373">
        <ele>1448</ele>
        <time>2014-06-28T07:09:54.000Z</time>
      </trkpt>
      <trkpt lat="46.35563" lon="6.00367">
        <ele>1448</ele>
        <time>2014-06-28T07:10:05.000Z</time>
      </trkpt>
      <trkpt lat="46.35553" lon="6.00361">
        <ele>1449</ele>
        <time>2014-06-28T07:10:12.000Z</time>
      </trkpt>
      <trkpt lat="46.35547" lon="6.00351">
        <ele>1448</ele>
        <time>2014-06-28T07:10:18.000Z</time>
      </trkpt>
      <trkpt lat="46.35523" lon="6.00334">
        <ele>1449</ele>
        <time>2014-06-28T07:10:31.000Z</time>
      </trkpt>
      <trkpt lat="46.35521" lon="6.00331">
        <ele>1444</ele>
        <time>2014-06-28T07:10:33.000Z</time>
      </trkpt>
      <trkpt lat="46.35511" lon="6.00324">
        <ele>1445</ele>
        <time>2014-06-28T07:10:38.000Z</time>
      </trkpt>
      <trkpt lat="46.35507" lon="6.00322">
        <ele>1445</ele>
        <time>2014-06-28T07:10:40.000Z</time>
      </trkpt>
      <trkpt lat="46.355" lon="6.00311">
        <ele>1446</ele>
        <time>2014-06-28T07:10:46.000Z</time>
      </trkpt>
      <trkpt lat="46.3549" lon="6.00306">
        <ele>1445</ele>
        <time>2014-06-28T07:10:50.000Z</time>
      </trkpt>
      <trkpt lat="46.3548" lon="6.00303">
        <ele>1445</ele>
        <time>2014-06-28T07:10:54.000Z</time>
      </trkpt>
      <trkpt lat="46.35474" lon="6.00299">
        <ele>1445</ele>
        <time>2014-06-28T07:10:59.000Z</time>
      </trkpt>
      <trkpt lat="46.35442" lon="6.00285">
        <ele>1444</ele>
        <time>2014-06-28T07:11:11.000Z</time>
      </trkpt>
      <trkpt lat="46.35426" lon="6.00275">
        <ele>1444</ele>
        <time>2014-06-28T07:11:18.000Z</time>
      </trkpt>
      <trkpt lat="46.35412" lon="6.00268">
        <ele>1446</ele>
        <time>2014-06-28T07:11:25.000Z</time>
      </trkpt>
      <trkpt lat="46.35399" lon="6.00259">
        <ele>1447</ele>
        <time>2014-06-28T07:11:33.000Z</time>
      </trkpt>
      <trkpt lat="46.35387" lon="6.00252">
        <ele>1448</ele>
        <time>2014-06-28T07:11:40.000Z</time>
      </trkpt>
      <trkpt lat="46.35382" lon="6.00248">
        <ele>1442</ele>
        <time>2014-06-28T07:11:46.000Z</time>
      </trkpt>
      <trkpt lat="46.35367" lon="6.0024">
        <ele>1443</ele>
        <time>2014-06-28T07:11:58.000Z</time>
      </trkpt>
      <trkpt lat="46.35364" lon="6.00232">
        <ele>1443</ele>
        <time>2014-06-28T07:12:06.000Z</time>
      </trkpt>
      <trkpt lat="46.35356" lon="6.00227">
        <ele>1443</ele>
        <time>2014-06-28T07:12:11.000Z</time>
      </trkpt>
      <trkpt lat="46.35346" lon="6.00227">
        <ele>1444</ele>
        <time>2014-06-28T07:12:17.000Z</time>
      </trkpt>
      <trkpt lat="46.35325" lon="6.00229">
        <ele>1450</ele>
        <time>2014-06-28T07:12:28.000Z</time>
      </trkpt>
      <trkpt lat="46.35315" lon="6.00226">
        <ele>1450</ele>
        <time>2014-06-28T07:12:34.000Z</time>
      </trkpt>
      <trkpt lat="46.35304" lon="6.00223">
        <ele>1451</ele>
        <time>2014-06-28T07:12:39.000Z</time>
      </trkpt>
      <trkpt lat="46.35282" lon="6.0022">
        <ele>1452</ele>
        <time>2014-06-28T07:12:52.000Z</time>
      </trkpt>
      <trkpt lat="46.35273" lon="6.00213">
        <ele>1452</ele>
        <time>2014-06-28T07:13:01.000Z</time>
      </trkpt>
      <trkpt lat="46.35262" lon="6.00201">
        <ele>1452</ele>
        <time>2014-06-28T07:13:14.000Z</time>
      </trkpt>
      <trkpt lat="46.35259" lon="6.00199">
        <ele>1452</ele>
        <time>2014-06-28T07:13:16.000Z</time>
      </trkpt>
      <trkpt lat="46.3523" lon="6.00202">
        <ele>1458</ele>
        <time>2014-06-28T07:13:29.000Z</time>
      </trkpt>
      <trkpt lat="46.35209" lon="6.0021">
        <ele>1459</ele>
        <time>2014-06-28T07:13:40.000Z</time>
      </trkpt>
      <trkpt lat="46.35197" lon="6.00215">
        <ele>1460</ele>
        <time>2014-06-28T07:13:43.000Z</time>
      </trkpt>
      <trkpt lat="46.35192" lon="6.00235">
        <ele>1461</ele>
        <time>2014-06-28T07:13:50.000Z</time>
      </trkpt>
      <trkpt lat="46.35187" lon="6.00246">
        <ele>1463</ele>
        <time>2014-06-28T07:13:54.000Z</time>
      </trkpt>
      <trkpt lat="46.35182" lon="6.00253">
        <ele>1467</ele>
        <time>2014-06-28T07:13:57.000Z</time>
      </trkpt>
      <trkpt lat="46.35171" lon="6.00272">
        <ele>1468</ele>
        <time>2014-06-28T07:14:04.000Z</time>
      </trkpt>
      <trkpt lat="46.35166" lon="6.00288">
        <ele>1477</ele>
        <time>2014-06-28T07:14:13.000Z</time>
      </trkpt>
      <trkpt lat="46.35162" lon="6.003">
        <ele>1478</ele>
        <time>2014-06-28T07:14:18.000Z</time>
      </trkpt>
      <trkpt lat="46.3516" lon="6.00303">
        <ele>1478</ele>
        <time>2014-06-28T07:14:20.000Z</time>
      </trkpt>
      <trkpt lat="46.35159" lon="6.00306">
        <ele>1478</ele>
        <time>2014-06-28T07:14:22.000Z</time>
      </trkpt>
      <trkpt lat="46.35152" lon="6.00316">
        <ele>1479</ele>
        <time>2014-06-28T07:14:27.000Z</time>
      </trkpt>
      <trkpt lat="46.3513" lon="6.00339">
        <ele>1485</ele>
        <time>2014-06-28T07:14:41.000Z</time>
      </trkpt>
      <trkpt lat="46.35121" lon="6.00346">
        <ele>1486</ele>
        <time>2014-06-28T07:14:47.000Z</time>
      </trkpt>
      <trkpt lat="46.351" lon="6.00346">
        <ele>1487</ele>
        <time>2014-06-28T07:14:59.000Z</time>
      </trkpt>
      <trkpt lat="46.35083" lon="6.00348">
        <ele>1488</ele>
        <time>2014-06-28T07:15:09.000Z</time>
      </trkpt>
      <trkpt lat="46.35081" lon="6.00349">
        <ele>1495</ele>
        <time>2014-06-28T07:15:10.000Z</time>
      </trkpt>
      <trkpt lat="46.35061" lon="6.00356">
        <ele>1498</ele>
        <time>2014-06-28T07:15:18.000Z</time>
      </trkpt>
      <trkpt lat="46.35041" lon="6.00362">
        <ele>1501</ele>
        <time>2014-06-28T07:15:30.000Z</time>
      </trkpt>
      <trkpt lat="46.35078" lon="6.00364">
        <ele>1497</ele>
        <time>2014-06-28T07:15:48.000Z</time>
      </trkpt>
      <trkpt lat="46.35063" lon="6.00372">
        <ele>1499</ele>
        <time>2014-06-28T07:16:00.000Z</time>
      </trkpt>
      <trkpt lat="46.35057" lon="6.00375">
        <ele>1499</ele>
        <time>2014-06-28T07:16:07.000Z</time>
      </trkpt>
      <trkpt lat="46.35056" lon="6.00375">
        <ele>1500</ele>
        <time>2014-06-28T07:16:08.000Z</time>
      </trkpt>
      <trkpt lat="46.35057" lon="6.00375">
        <ele>1499</ele>
        <time>2014-06-28T07:16:09.000Z</time>
      </trkpt>
      <trkpt lat="46.35057" lon="6.00374">
        <ele>1499</ele>
        <time>2014-06-28T07:16:10.000Z</time>
      </trkpt>
      <trkpt lat="46.35057" lon="6.00374">
        <ele>1499</ele>
        <time>2014-06-28T07:16:11.000Z</time>
      </trkpt>
      <trkpt lat="46.35055" lon="6.00374">
        <ele>1500</ele>
        <time>2014-06-28T07:16:21.000Z</time>
      </trkpt>
      <trkpt lat="46.35043" lon="6.00378">
        <ele>1501</ele>
        <time>2014-06-28T07:16:29.000Z</time>
      </trkpt>
      <trkpt lat="46.35031" lon="6.00383">
        <ele>1502</ele>
        <time>2014-06-28T07:16:40.000Z</time>
      </trkpt>
      <trkpt lat="46.35017" lon="6.00391">
        <ele>1504</ele>
        <time>2014-06-28T07:16:50.000Z</time>
      </trkpt>
      <trkpt lat="46.35012" lon="6.00395">
        <ele>1505</ele>
        <time>2014-06-28T07:17:05.000Z</time>
      </trkpt>
      <trkpt lat="46.34982" lon="6.00425">
        <ele>1518</ele>
        <time>2014-06-28T07:17:24.000Z</time>
      </trkpt>
      <trkpt lat="46.34861" lon="6.00484">
        <ele>1551</ele>
        <time>2014-06-28T07:18:09.000Z</time>
      </trkpt>
      <trkpt lat="46.34802" lon="6.00514">
        <ele>1570</ele>
        <time>2014-06-28T07:19:05.000Z</time>
      </trkpt>
      <trkpt lat="46.34782" lon="6.00511">
        <ele>1571</ele>
        <time>2014-06-28T07:19:43.000Z</time>
      </trkpt>
      <trkpt lat="46.34773" lon="6.00506">
        <ele>1572</ele>
        <time>2014-06-28T07:19:54.000Z</time>
      </trkpt>
      <trkpt lat="46.34761" lon="6.00502">
        <ele>1572</ele>
        <time>2014-06-28T07:20:04.000Z</time>
      </trkpt>
      <trkpt lat="46.34735" lon="6.00487">
        <ele>1571</ele>
        <time>2014-06-28T07:20:28.000Z</time>
      </trkpt>
      <trkpt lat="46.34723" lon="6.00483">
        <ele>1571</ele>
        <time>2014-06-28T07:20:38.000Z</time>
      </trkpt>
      <trkpt lat="46.34719" lon="6.00483">
        <ele>1572</ele>
        <time>2014-06-28T07:20:40.000Z</time>
      </trkpt>
      <trkpt lat="46.34715" lon="6.00481">
        <ele>1572</ele>
        <time>2014-06-28T07:20:43.000Z</time>
      </trkpt>
      <trkpt lat="46.34706" lon="6.00486">
        <ele>1573</ele>
        <time>2014-06-28T07:20:54.000Z</time>
      </trkpt>
      <trkpt lat="46.34701" lon="6.00488">
        <ele>1573</ele>
        <time>2014-06-28T07:21:00.000Z</time>
      </trkpt>
      <trkpt lat="46.347" lon="6.00491">
        <ele>1573</ele>
        <time>2014-06-28T07:21:04.000Z</time>
      </trkpt>
      <trkpt lat="46.34684" lon="6.00495">
        <ele>1576</ele>
        <time>2014-06-28T07:21:13.000Z</time>
      </trkpt>
      <trkpt lat="46.34673" lon="6.0049">
        <ele>1577</ele>
        <time>2014-06-28T07:21:26.000Z</time>
      </trkpt>
      <trkpt lat="46.34671" lon="6.00488">
        <ele>1577</ele>
        <time>2014-06-28T07:21:30.000Z</time>
      </trkpt>
      <trkpt lat="46.3467" lon="6.00482">
        <ele>1576</ele>
        <time>2014-06-28T07:21:40.000Z</time>
      </trkpt>
      <trkpt lat="46.34652" lon="6.00472">
        <ele>1579</ele>
        <time>2014-06-28T07:21:51.000Z</time>
      </trkpt>
      <trkpt lat="46.34648" lon="6.00469">
        <ele>1578</ele>
        <time>2014-06-28T07:21:54.000Z</time>
      </trkpt>
      <trkpt lat="46.34636" lon="6.00465">
        <ele>1578</ele>
        <time>2014-06-28T07:22:02.000Z</time>
      </trkpt>
      <trkpt lat="46.34621" lon="6.00457">
        <ele>1578</ele>
        <time>2014-06-28T07:22:16.000Z</time>
      </trkpt>
      <trkpt lat="46.3462" lon="6.00454">
        <ele>1578</ele>
        <time>2014-06-28T07:22:19.000Z</time>
      </trkpt>
      <trkpt lat="46.34615" lon="6.00451">
        <ele>1578</ele>
        <time>2014-06-28T07:22:24.000Z</time>
      </trkpt>
      <trkpt lat="46.34601" lon="6.00447">
        <ele>1578</ele>
        <time>2014-06-28T07:22:35.000Z</time>
      </trkpt>
      <trkpt lat="46.34595" lon="6.00444">
        <ele>1578</ele>
        <time>2014-06-28T07:22:41.000Z</time>
      </trkpt>
      <trkpt lat="46.34587" lon="6.00443">
        <ele>1578</ele>
        <time>2014-06-28T07:22:48.000Z</time>
      </trkpt>
      <trkpt lat="46.34575" lon="6.00449">
        <ele>1584</ele>
        <time>2014-06-28T07:22:58.000Z</time>
      </trkpt>
      <trkpt lat="46.34576" lon="6.0045">
        <ele>1584</ele>
        <time>2014-06-28T07:22:59.000Z</time>
      </trkpt>
      <trkpt lat="46.34576" lon="6.00453">
        <ele>1584</ele>
        <time>2014-06-28T07:23:02.000Z</time>
      </trkpt>
      <trkpt lat="46.34567" lon="6.00462">
        <ele>1585</ele>
        <time>2014-06-28T07:23:12.000Z</time>
      </trkpt>
      <trkpt lat="46.34588" lon="6.0046">
        <ele>1579</ele>
        <time>2014-06-28T07:23:20.000Z</time>
      </trkpt>
      <trkpt lat="46.34577" lon="6.00474">
        <ele>1584</ele>
        <time>2014-06-28T07:23:28.000Z</time>
      </trkpt>
      <trkpt lat="46.3457" lon="6.00478">
        <ele>1585</ele>
        <time>2014-06-28T07:23:33.000Z</time>
      </trkpt>
      <trkpt lat="46.34555" lon="6.00482">
        <ele>1586</ele>
        <time>2014-06-28T07:23:40.000Z</time>
      </trkpt>
      <trkpt lat="46.34549" lon="6.00488">
        <ele>1586</ele>
        <time>2014-06-28T07:23:44.000Z</time>
      </trkpt>
      <trkpt lat="46.34547" lon="6.00497">
        <ele>1586</ele>
        <time>2014-06-28T07:23:48.000Z</time>
      </trkpt>
      <trkpt lat="46.34538" lon="6.00505">
        <ele>1572</ele>
        <time>2014-06-28T07:23:53.000Z</time>
      </trkpt>
      <trkpt lat="46.34542" lon="6.00507">
        <ele>1571</ele>
        <time>2014-06-28T07:23:59.000Z</time>
      </trkpt>
      <trkpt lat="46.34521" lon="6.00508">
        <ele>1575</ele>
        <time>2014-06-28T07:24:25.000Z</time>
      </trkpt>
      <trkpt lat="46.34528" lon="6.0052">
        <ele>1570</ele>
        <time>2014-06-28T07:25:44.000Z</time>
      </trkpt>
      <trkpt lat="46.34545" lon="6.00516">
        <ele>1569</ele>
        <time>2014-06-28T07:26:15.000Z</time>
      </trkpt>
      <trkpt lat="46.34542" lon="6.00518">
        <ele>1569</ele>
        <time>2014-06-28T07:26:19.000Z</time>
      </trkpt>
      <trkpt lat="46.34542" lon="6.00519">
        <ele>1569</ele>
        <time>2014-06-28T07:26:20.000Z</time>
      </trkpt>
      <trkpt lat="46.34543" lon="6.0052">
        <ele>1569</ele>
        <time>2014-06-28T07:26:21.000Z</time>
      </trkpt>
      <trkpt lat="46.3454" lon="6.00518">
        <ele>1569</ele>
        <time>2014-06-28T07:26:22.000Z</time>
      </trkpt>
      <trkpt lat="46.34539" lon="6.00518">
        <ele>1569</ele>
        <time>2014-06-28T07:26:23.000Z</time>
      </trkpt>
      <trkpt lat="46.34541" lon="6.0051">
        <ele>1571</ele>
        <time>2014-06-28T07:26:42.000Z</time>
      </trkpt>
      <trkpt lat="46.34528" lon="6.00515">
        <ele>1571</ele>
        <time>2014-06-28T07:26:57.000Z</time>
      </trkpt>
      <trkpt lat="46.34523" lon="6.00514">
        <ele>1572</ele>
        <time>2014-06-28T07:27:14.000Z</time>
      </trkpt>
      <trkpt lat="46.34521" lon="6.00516">
        <ele>1572</ele>
        <time>2014-06-28T07:27:16.000Z</time>
      </trkpt>
      <trkpt lat="46.34513" lon="6.00511">
        <ele>1576</ele>
        <time>2014-06-28T07:27:26.000Z</time>
      </trkpt>
      <trkpt lat="46.34575" lon="6.00513">
        <ele>1574</ele>
        <time>2014-06-28T07:28:14.000Z</time>
      </trkpt>
      <trkpt lat="46.34591" lon="6.00517">
        <ele>1576</ele>
        <time>2014-06-28T07:28:19.000Z</time>
      </trkpt>
      <trkpt lat="46.34621" lon="6.00525">
        <ele>1574</ele>
        <time>2014-06-28T07:28:30.000Z</time>
      </trkpt>
      <trkpt lat="46.34636" lon="6.00527">
        <ele>1574</ele>
        <time>2014-06-28T07:28:34.000Z</time>
      </trkpt>
      <trkpt lat="46.34644" lon="6.00526">
        <ele>1574</ele>
        <time>2014-06-28T07:28:37.000Z</time>
      </trkpt>
      <trkpt lat="46.34668" lon="6.00521">
        <ele>1578</ele>
        <time>2014-06-28T07:28:46.000Z</time>
      </trkpt>
      <trkpt lat="46.34676" lon="6.00518">
        <ele>1578</ele>
        <time>2014-06-28T07:28:51.000Z</time>
      </trkpt>
      <trkpt lat="46.34702" lon="6.00525">
        <ele>1576</ele>
        <time>2014-06-28T07:29:02.000Z</time>
      </trkpt>
      <trkpt lat="46.34725" lon="6.00526">
        <ele>1576</ele>
        <time>2014-06-28T07:29:12.000Z</time>
      </trkpt>
      <trkpt lat="46.34771" lon="6.00535">
        <ele>1573</ele>
        <time>2014-06-28T07:29:24.000Z</time>
      </trkpt>
      <trkpt lat="46.34795" lon="6.00534">
        <ele>1572</ele>
        <time>2014-06-28T07:29:31.000Z</time>
      </trkpt>
      <trkpt lat="46.34824" lon="6.00498">
        <ele>1562</ele>
        <time>2014-06-28T07:29:45.000Z</time>
      </trkpt>
      <trkpt lat="46.34867" lon="6.00475">
        <ele>1549</ele>
        <time>2014-06-28T07:29:59.000Z</time>
      </trkpt>
      <trkpt lat="46.34892" lon="6.00471">
        <ele>1546</ele>
        <time>2014-06-28T07:30:05.000Z</time>
      </trkpt>
      <trkpt lat="46.34925" lon="6.00464">
        <ele>1529</ele>
        <time>2014-06-28T07:30:12.000Z</time>
      </trkpt>
      <trkpt lat="46.34931" lon="6.00451">
        <ele>1528</ele>
        <time>2014-06-28T07:30:17.000Z</time>
      </trkpt>
      <trkpt lat="46.34963" lon="6.00427">
        <ele>1523</ele>
        <time>2014-06-28T07:30:33.000Z</time>
      </trkpt>
      <trkpt lat="46.34984" lon="6.00417">
        <ele>1516</ele>
        <time>2014-06-28T07:30:44.000Z</time>
      </trkpt>
      <trkpt lat="46.34995" lon="6.00415">
        <ele>1512</ele>
        <time>2014-06-28T07:30:50.000Z</time>
      </trkpt>
      <trkpt lat="46.35027" lon="6.00407">
        <ele>1503</ele>
        <time>2014-06-28T07:31:05.000Z</time>
      </trkpt>
      <trkpt lat="46.35048" lon="6.00406">
        <ele>1500</ele>
        <time>2014-06-28T07:31:16.000Z</time>
      </trkpt>
      <trkpt lat="46.35048" lon="6.00405">
        <ele>1500</ele>
        <time>2014-06-28T07:31:18.000Z</time>
      </trkpt>
      <trkpt lat="46.35052" lon="6.00404">
        <ele>1500</ele>
        <time>2014-06-28T07:31:24.000Z</time>
      </trkpt>
      <trkpt lat="46.35053" lon="6.0041">
        <ele>1499</ele>
        <time>2014-06-28T07:31:31.000Z</time>
      </trkpt>
      <trkpt lat="46.35054" lon="6.00412">
        <ele>1499</ele>
        <time>2014-06-28T07:31:32.000Z</time>
      </trkpt>
      <trkpt lat="46.35063" lon="6.00436">
        <ele>1498</ele>
        <time>2014-06-28T07:31:46.000Z</time>
      </trkpt>
      <trkpt lat="46.35065" lon="6.00446">
        <ele>1498</ele>
        <time>2014-06-28T07:31:52.000Z</time>
      </trkpt>
      <trkpt lat="46.35062" lon="6.00448">
        <ele>1499</ele>
        <time>2014-06-28T07:31:57.000Z</time>
      </trkpt>
      <trkpt lat="46.35067" lon="6.00454">
        <ele>1498</ele>
        <time>2014-06-28T07:32:01.000Z</time>
      </trkpt>
      <trkpt lat="46.35077" lon="6.00466">
        <ele>1497</ele>
        <time>2014-06-28T07:32:13.000Z</time>
      </trkpt>
      <trkpt lat="46.35089" lon="6.00453">
        <ele>1488</ele>
        <time>2014-06-28T07:32:25.000Z</time>
      </trkpt>
      <trkpt lat="46.35091" lon="6.00447">
        <ele>1488</ele>
        <time>2014-06-28T07:32:27.000Z</time>
      </trkpt>
      <trkpt lat="46.35123" lon="6.00417">
        <ele>1486</ele>
        <time>2014-06-28T07:32:43.000Z</time>
      </trkpt>
      <trkpt lat="46.35126" lon="6.00408">
        <ele>1486</ele>
        <time>2014-06-28T07:32:56.000Z</time>
      </trkpt>
      <trkpt lat="46.35131" lon="6.00414">
        <ele>1485</ele>
        <time>2014-06-28T07:33:06.000Z</time>
      </trkpt>
      <trkpt lat="46.35138" lon="6.00411">
        <ele>1485</ele>
        <time>2014-06-28T07:33:18.000Z</time>
      </trkpt>
      <trkpt lat="46.3513" lon="6.00414">
        <ele>1485</ele>
        <time>2014-06-28T07:33:30.000Z</time>
      </trkpt>
      <trkpt lat="46.35131" lon="6.00414">
        <ele>1485</ele>
        <time>2014-06-28T07:33:34.000Z</time>
      </trkpt>
      <trkpt lat="46.35132" lon="6.00405">
        <ele>1485</ele>
        <time>2014-06-28T07:33:48.000Z</time>
      </trkpt>
      <trkpt lat="46.35129" lon="6.00398">
        <ele>1485</ele>
        <time>2014-06-28T07:33:59.000Z</time>
      </trkpt>
      <trkpt lat="46.35153" lon="6.00409">
        <ele>1483</ele>
        <time>2014-06-28T07:34:13.000Z</time>
      </trkpt>
      <trkpt lat="46.35221" lon="6.00434">
        <ele>1474</ele>
        <time>2014-06-28T07:34:35.000Z</time>
      </trkpt>
      <trkpt lat="46.35345" lon="6.0048">
        <ele>1464</ele>
        <time>2014-06-28T07:34:48.000Z</time>
      </trkpt>
      <trkpt lat="46.35355" lon="6.00485">
        <ele>1465</ele>
        <time>2014-06-28T07:35:00.000Z</time>
      </trkpt>
      <trkpt lat="46.35361" lon="6.00492">
        <ele>1465</ele>
        <time>2014-06-28T07:35:07.000Z</time>
      </trkpt>
      <trkpt lat="46.35347" lon="6.00499">
        <ele>1466</ele>
        <time>2014-06-28T07:35:21.000Z</time>
      </trkpt>
      <trkpt lat="46.35329" lon="6.00494">
        <ele>1467</ele>
        <time>2014-06-28T07:35:34.000Z</time>
      </trkpt>
      <trkpt lat="46.35326" lon="6.00488">
        <ele>1467</ele>
        <time>2014-06-28T07:35:44.000Z</time>
      </trkpt>
      <trkpt lat="46.3532" lon="6.0046">
        <ele>1466</ele>
        <time>2014-06-28T07:35:58.000Z</time>
      </trkpt>
      <trkpt lat="46.35307" lon="6.00438">
        <ele>1465</ele>
        <time>2014-06-28T07:36:12.000Z</time>
      </trkpt>
      <trkpt lat="46.3529" lon="6.00452">
        <ele>1466</ele>
        <time>2014-06-28T07:36:24.000Z</time>
      </trkpt>
      <trkpt lat="46.35271" lon="6.0046">
        <ele>1467</ele>
        <time>2014-06-28T07:36:37.000Z</time>
      </trkpt>
      <trkpt lat="46.3525" lon="6.0046">
        <ele>1473</ele>
        <time>2014-06-28T07:36:51.000Z</time>
      </trkpt>
      <trkpt lat="46.35238" lon="6.00467">
        <ele>1473</ele>
        <time>2014-06-28T07:37:00.000Z</time>
      </trkpt>
      <trkpt lat="46.35228" lon="6.00472">
        <ele>1474</ele>
        <time>2014-06-28T07:37:07.000Z</time>
      </trkpt>
      <trkpt lat="46.35224" lon="6.00476">
        <ele>1474</ele>
        <time>2014-06-28T07:37:11.000Z</time>
      </trkpt>
      <trkpt lat="46.35215" lon="6.00481">
        <ele>1475</ele>
        <time>2014-06-28T07:37:26.000Z</time>
      </trkpt>
      <trkpt lat="46.35215" lon="6.00481">
        <ele>1475</ele>
        <time>2014-06-28T07:38:02.000Z</time>
      </trkpt>
      <trkpt lat="46.35215" lon="6.00481">
        <ele>1475</ele>
        <time>2014-06-28T07:38:03.000Z</time>
      </trkpt>
      <trkpt lat="46.35215" lon="6.00481">
        <ele>1475</ele>
        <time>2014-06-28T07:38:05.000Z</time>
      </trkpt>
      <trkpt lat="46.35215" lon="6.00481">
        <ele>1475</ele>
        <time>2014-06-28T07:38:06.000Z</time>
      </trkpt>
      <trkpt lat="46.35215" lon="6.00481">
        <ele>1475</ele>
        <time>2014-06-28T07:38:41.000Z</time>
      </trkpt>
      <trkpt lat="46.35215" lon="6.00481">
        <ele>1475</ele>
        <time>2014-06-28T07:38:55.000Z</time>
      </trkpt>
      <trkpt lat="46.35215" lon="6.00481">
        <ele>1475</ele>
        <time>2014-06-28T07:38:56.000Z</time>
      </trkpt>
      <trkpt lat="46.35215" lon="6.00481">
        <ele>1475</ele>
        <time>2014-06-28T07:38:57.000Z</time>
      </trkpt>
      <trkpt lat="46.35215" lon="6.00481">
        <ele>1475</ele>
        <time>2014-06-28T07:38:58.000Z</time>
      </trkpt>
      <trkpt lat="46.35215" lon="6.00482">
        <ele>1475</ele>
        <time>2014-06-28T07:39:34.000Z</time>
      </trkpt>
      <trkpt lat="46.35215" lon="6.00482">
        <ele>1475</ele>
        <time>2014-06-28T07:39:40.000Z</time>
      </trkpt>
      <trkpt lat="46.35216" lon="6.00484">
        <ele>1474</ele>
        <time>2014-06-28T07:39:56.000Z</time>
      </trkpt>
      <trkpt lat="46.35216" lon="6.00483">
        <ele>1475</ele>
        <time>2014-06-28T07:40:44.000Z</time>
      </trkpt>
      <trkpt lat="46.35214" lon="6.00482">
        <ele>1475</ele>
        <time>2014-06-28T07:40:56.000Z</time>
      </trkpt>
      <trkpt lat="46.35212" lon="6.00483">
        <ele>1475</ele>
        <time>2014-06-28T07:40:59.000Z</time>
      </trkpt>
      <trkpt lat="46.35202" lon="6.00495">
        <ele>1475</ele>
        <time>2014-06-28T07:41:13.000Z</time>
      </trkpt>
      <trkpt lat="46.35195" lon="6.00499">
        <ele>1476</ele>
        <time>2014-06-28T07:41:22.000Z</time>
      </trkpt>
      <trkpt lat="46.35188" lon="6.00498">
        <ele>1477</ele>
        <time>2014-06-28T07:41:31.000Z</time>
      </trkpt>
      <trkpt lat="46.3518" lon="6.00496">
        <ele>1477</ele>
        <time>2014-06-28T07:41:41.000Z</time>
      </trkpt>
      <trkpt lat="46.35176" lon="6.00492">
        <ele>1478</ele>
        <time>2014-06-28T07:41:45.000Z</time>
      </trkpt>
      <trkpt lat="46.35168" lon="6.00488">
        <ele>1478</ele>
        <time>2014-06-28T07:41:54.000Z</time>
      </trkpt>
      <trkpt lat="46.35159" lon="6.00494">
        <ele>1481</ele>
        <time>2014-06-28T07:42:07.000Z</time>
      </trkpt>
      <trkpt lat="46.3515" lon="6.00496">
        <ele>1482</ele>
        <time>2014-06-28T07:42:15.000Z</time>
      </trkpt>
      <trkpt lat="46.35148" lon="6.00498">
        <ele>1483</ele>
        <time>2014-06-28T07:42:18.000Z</time>
      </trkpt>
      <trkpt lat="46.35138" lon="6.005">
        <ele>1482</ele>
        <time>2014-06-28T07:42:29.000Z</time>
      </trkpt>
      <trkpt lat="46.35125" lon="6.005">
        <ele>1485</ele>
        <time>2014-06-28T07:42:42.000Z</time>
      </trkpt>
      <trkpt lat="46.3512" lon="6.00498">
        <ele>1486</ele>
        <time>2014-06-28T07:42:47.000Z</time>
      </trkpt>
      <trkpt lat="46.35117" lon="6.00495">
        <ele>1486</ele>
        <time>2014-06-28T07:42:52.000Z</time>
      </trkpt>
      <trkpt lat="46.35113" lon="6.00489">
        <ele>1486</ele>
        <time>2014-06-28T07:42:57.000Z</time>
      </trkpt>
      <trkpt lat="46.35105" lon="6.00488">
        <ele>1487</ele>
        <time>2014-06-28T07:43:04.000Z</time>
      </trkpt>
      <trkpt lat="46.351" lon="6.00484">
        <ele>1487</ele>
        <time>2014-06-28T07:43:08.000Z</time>
      </trkpt>
      <trkpt lat="46.35086" lon="6.00471">
        <ele>1488</ele>
        <time>2014-06-28T07:43:22.000Z</time>
      </trkpt>
      <trkpt lat="46.35084" lon="6.00467">
        <ele>1488</ele>
        <time>2014-06-28T07:43:25.000Z</time>
      </trkpt>
      <trkpt lat="46.35083" lon="6.00466">
        <ele>1497</ele>
        <time>2014-06-28T07:43:27.000Z</time>
      </trkpt>
      <trkpt lat="46.3507" lon="6.00469">
        <ele>1498</ele>
        <time>2014-06-28T07:43:40.000Z</time>
      </trkpt>
      <trkpt lat="46.35068" lon="6.00469">
        <ele>1498</ele>
        <time>2014-06-28T07:43:42.000Z</time>
      </trkpt>
      <trkpt lat="46.35065" lon="6.00469">
        <ele>1498</ele>
        <time>2014-06-28T07:43:45.000Z</time>
      </trkpt>
      <trkpt lat="46.35061" lon="6.00467">
        <ele>1499</ele>
        <time>2014-06-28T07:43:50.000Z</time>
      </trkpt>
      <trkpt lat="46.35059" lon="6.00468">
        <ele>1499</ele>
        <time>2014-06-28T07:43:52.000Z</time>
      </trkpt>
      <trkpt lat="46.35051" lon="6.00468">
        <ele>1500</ele>
        <time>2014-06-28T07:44:03.000Z</time>
      </trkpt>
      <trkpt lat="46.35041" lon="6.00469">
        <ele>1501</ele>
        <time>2014-06-28T07:44:17.000Z</time>
      </trkpt>
      <trkpt lat="46.3504" lon="6.00464">
        <ele>1501</ele>
        <time>2014-06-28T07:44:22.000Z</time>
      </trkpt>
      <trkpt lat="46.35027" lon="6.00457">
        <ele>1503</ele>
        <time>2014-06-28T07:44:36.000Z</time>
      </trkpt>
      <trkpt lat="46.35024" lon="6.00457">
        <ele>1503</ele>
        <time>2014-06-28T07:44:40.000Z</time>
      </trkpt>
      <trkpt lat="46.35017" lon="6.00451">
        <ele>1504</ele>
        <time>2014-06-28T07:44:48.000Z</time>
      </trkpt>
      <trkpt lat="46.35011" lon="6.00442">
        <ele>1504</ele>
        <time>2014-06-28T07:44:59.000Z</time>
      </trkpt>
      <trkpt lat="46.35006" lon="6.00431">
        <ele>1506</ele>
        <time>2014-06-28T07:45:07.000Z</time>
      </trkpt>
      <trkpt lat="46.35001" lon="6.00427">
        <ele>1507</ele>
        <time>2014-06-28T07:45:15.000Z</time>
      </trkpt>
      <trkpt lat="46.34995" lon="6.00423">
        <ele>1513</ele>
        <time>2014-06-28T07:45:22.000Z</time>
      </trkpt>
      <trkpt lat="46.34983" lon="6.00419">
        <ele>1517</ele>
        <time>2014-06-28T07:45:35.000Z</time>
      </trkpt>
      <trkpt lat="46.3497" lon="6.00414">
        <ele>1520</ele>
        <time>2014-06-28T07:45:47.000Z</time>
      </trkpt>
      <trkpt lat="46.34966" lon="6.00413">
        <ele>1520</ele>
        <time>2014-06-28T07:45:51.000Z</time>
      </trkpt>
      <trkpt lat="46.34964" lon="6.00409">
        <ele>1521</ele>
        <time>2014-06-28T07:45:55.000Z</time>
      </trkpt>
      <trkpt lat="46.34958" lon="6.00407">
        <ele>1523</ele>
        <time>2014-06-28T07:46:01.000Z</time>
      </trkpt>
      <trkpt lat="46.34956" lon="6.00406">
        <ele>1523</ele>
        <time>2014-06-28T07:46:03.000Z</time>
      </trkpt>
      <trkpt lat="46.34954" lon="6.00403">
        <ele>1523</ele>
        <time>2014-06-28T07:46:06.000Z</time>
      </trkpt>
      <trkpt lat="46.34949" lon="6.00399">
        <ele>1524</ele>
        <time>2014-06-28T07:46:13.000Z</time>
      </trkpt>
      <trkpt lat="46.34943" lon="6.00396">
        <ele>1525</ele>
        <time>2014-06-28T07:46:23.000Z</time>
      </trkpt>
      <trkpt lat="46.3494" lon="6.00394">
        <ele>1525</ele>
        <time>2014-06-28T07:46:27.000Z</time>
      </trkpt>
      <trkpt lat="46.34933" lon="6.00393">
        <ele>1526</ele>
        <time>2014-06-28T07:46:38.000Z</time>
      </trkpt>
      <trkpt lat="46.34932" lon="6.00392">
        <ele>1527</ele>
        <time>2014-06-28T07:46:39.000Z</time>
      </trkpt>
      <trkpt lat="46.34926" lon="6.00388">
        <ele>1527</ele>
        <time>2014-06-28T07:46:46.000Z</time>
      </trkpt>
      <trkpt lat="46.34924" lon="6.00386">
        <ele>1527</ele>
        <time>2014-06-28T07:46:49.000Z</time>
      </trkpt>
      <trkpt lat="46.34919" lon="6.00384">
        <ele>1527</ele>
        <time>2014-06-28T07:46:55.000Z</time>
      </trkpt>
      <trkpt lat="46.34916" lon="6.00384">
        <ele>1537</ele>
        <time>2014-06-28T07:46:58.000Z</time>
      </trkpt>
      <trkpt lat="46.34912" lon="6.00383">
        <ele>1537</ele>
        <time>2014-06-28T07:47:01.000Z</time>
      </trkpt>
      <trkpt lat="46.34907" lon="6.00383">
        <ele>1537</ele>
        <time>2014-06-28T07:47:05.000Z</time>
      </trkpt>
      <trkpt lat="46.34906" lon="6.00382">
        <ele>1537</ele>
        <time>2014-06-28T07:47:06.000Z</time>
      </trkpt>
      <trkpt lat="46.349" lon="6.00385">
        <ele>1537</ele>
        <time>2014-06-28T07:47:12.000Z</time>
      </trkpt>
      <trkpt lat="46.34888" lon="6.0039">
        <ele>1538</ele>
        <time>2014-06-28T07:47:24.000Z</time>
      </trkpt>
      <trkpt lat="46.34887" lon="6.00393">
        <ele>1538</ele>
        <time>2014-06-28T07:47:27.000Z</time>
      </trkpt>
      <trkpt lat="46.34885" lon="6.00398">
        <ele>1538</ele>
        <time>2014-06-28T07:47:31.000Z</time>
      </trkpt>
      <trkpt lat="46.34883" lon="6.004">
        <ele>1539</ele>
        <time>2014-06-28T07:47:34.000Z</time>
      </trkpt>
      <trkpt lat="46.34879" lon="6.0041">
        <ele>1539</ele>
        <time>2014-06-28T07:47:41.000Z</time>
      </trkpt>
      <trkpt lat="46.34878" lon="6.00412">
        <ele>1539</ele>
        <time>2014-06-28T07:47:43.000Z</time>
      </trkpt>
      <trkpt lat="46.34871" lon="6.00422">
        <ele>1546</ele>
        <time>2014-06-28T07:47:53.000Z</time>
      </trkpt>
      <trkpt lat="46.34863" lon="6.00432">
        <ele>1547</ele>
        <time>2014-06-28T07:48:03.000Z</time>
      </trkpt>
      <trkpt lat="46.34856" lon="6.00442">
        <ele>1548</ele>
        <time>2014-06-28T07:48:13.000Z</time>
      </trkpt>
      <trkpt lat="46.34854" lon="6.00451">
        <ele>1549</ele>
        <time>2014-06-28T07:48:18.000Z</time>
      </trkpt>
      <trkpt lat="46.34853" lon="6.00463">
        <ele>1550</ele>
        <time>2014-06-28T07:48:25.000Z</time>
      </trkpt>
      <trkpt lat="46.34854" lon="6.0047">
        <ele>1550</ele>
        <time>2014-06-28T07:48:29.000Z</time>
      </trkpt>
      <trkpt lat="46.34855" lon="6.00475">
        <ele>1551</ele>
        <time>2014-06-28T07:48:32.000Z</time>
      </trkpt>
      <trkpt lat="46.34856" lon="6.0048">
        <ele>1551</ele>
        <time>2014-06-28T07:48:36.000Z</time>
      </trkpt>
      <trkpt lat="46.34858" lon="6.00484">
        <ele>1552</ele>
        <time>2014-06-28T07:48:41.000Z</time>
      </trkpt>
      <trkpt lat="46.34857" lon="6.005">
        <ele>1553</ele>
        <time>2014-06-28T07:48:52.000Z</time>
      </trkpt>
      <trkpt lat="46.34857" lon="6.00502">
        <ele>1558</ele>
        <time>2014-06-28T07:48:54.000Z</time>
      </trkpt>
      <trkpt lat="46.34857" lon="6.00505">
        <ele>1558</ele>
        <time>2014-06-28T07:48:56.000Z</time>
      </trkpt>
      <trkpt lat="46.34857" lon="6.00526">
        <ele>1558</ele>
        <time>2014-06-28T07:49:11.000Z</time>
      </trkpt>
      <trkpt lat="46.34856" lon="6.0053">
        <ele>1558</ele>
        <time>2014-06-28T07:49:15.000Z</time>
      </trkpt>
      <trkpt lat="46.34852" lon="6.00544">
        <ele>1560</ele>
        <time>2014-06-28T07:49:27.000Z</time>
      </trkpt>
      <trkpt lat="46.34851" lon="6.00548">
        <ele>1560</ele>
        <time>2014-06-28T07:49:31.000Z</time>
      </trkpt>
      <trkpt lat="46.3485" lon="6.00548">
        <ele>1560</ele>
        <time>2014-06-28T07:49:32.000Z</time>
      </trkpt>
      <trkpt lat="46.34848" lon="6.00548">
        <ele>1561</ele>
        <time>2014-06-28T07:49:34.000Z</time>
      </trkpt>
      <trkpt lat="46.34839" lon="6.00555">
        <ele>1563</ele>
        <time>2014-06-28T07:49:45.000Z</time>
      </trkpt>
      <trkpt lat="46.34835" lon="6.00566">
        <ele>1566</ele>
        <time>2014-06-28T07:49:53.000Z</time>
      </trkpt>
      <trkpt lat="46.34833" lon="6.00583">
        <ele>1575</ele>
        <time>2014-06-28T07:50:04.000Z</time>
      </trkpt>
      <trkpt lat="46.34833" lon="6.00584">
        <ele>1575</ele>
        <time>2014-06-28T07:50:05.000Z</time>
      </trkpt>
      <trkpt lat="46.3483" lon="6.00598">
        <ele>1572</ele>
        <time>2014-06-28T07:50:14.000Z</time>
      </trkpt>
      <trkpt lat="46.34823" lon="6.00613">
        <ele>1570</ele>
        <time>2014-06-28T07:50:26.000Z</time>
      </trkpt>
      <trkpt lat="46.34817" lon="6.0062">
        <ele>1569</ele>
        <time>2014-06-28T07:50:37.000Z</time>
      </trkpt>
      <trkpt lat="46.34816" lon="6.00621">
        <ele>1569</ele>
        <time>2014-06-28T07:50:39.000Z</time>
      </trkpt>
      <trkpt lat="46.34813" lon="6.00618">
        <ele>1569</ele>
        <time>2014-06-28T07:50:44.000Z</time>
      </trkpt>
      <trkpt lat="46.34813" lon="6.00619">
        <ele>1569</ele>
        <time>2014-06-28T07:50:49.000Z</time>
      </trkpt>
      <trkpt lat="46.3481" lon="6.00621">
        <ele>1569</ele>
        <time>2014-06-28T07:50:52.000Z</time>
      </trkpt>
      <trkpt lat="46.34809" lon="6.00621">
        <ele>1569</ele>
        <time>2014-06-28T07:50:53.000Z</time>
      </trkpt>
      <trkpt lat="46.34804" lon="6.00632">
        <ele>1568</ele>
        <time>2014-06-28T07:51:04.000Z</time>
      </trkpt>
      <trkpt lat="46.34804" lon="6.00633">
        <ele>1568</ele>
        <time>2014-06-28T07:51:05.000Z</time>
      </trkpt>
      <trkpt lat="46.34803" lon="6.00635">
        <ele>1568</ele>
        <time>2014-06-28T07:51:07.000Z</time>
      </trkpt>
      <trkpt lat="46.34804" lon="6.00636">
        <ele>1568</ele>
        <time>2014-06-28T07:51:20.000Z</time>
      </trkpt>
      <trkpt lat="46.34803" lon="6.00636">
        <ele>1567</ele>
        <time>2014-06-28T07:51:45.000Z</time>
      </trkpt>
      <trkpt lat="46.34803" lon="6.00636">
        <ele>1567</ele>
        <time>2014-06-28T07:51:49.000Z</time>
      </trkpt>
      <trkpt lat="46.34803" lon="6.00636">
        <ele>1567</ele>
        <time>2014-06-28T07:51:50.000Z</time>
      </trkpt>
      <trkpt lat="46.34803" lon="6.00636">
        <ele>1567</ele>
        <time>2014-06-28T07:51:51.000Z</time>
      </trkpt>
      <trkpt lat="46.34803" lon="6.00635">
        <ele>1568</ele>
        <time>2014-06-28T07:52:03.000Z</time>
      </trkpt>
      <trkpt lat="46.34803" lon="6.00635">
        <ele>1568</ele>
        <time>2014-06-28T07:52:22.000Z</time>
      </trkpt>
      <trkpt lat="46.34803" lon="6.00635">
        <ele>1568</ele>
        <time>2014-06-28T07:52:26.000Z</time>
      </trkpt>
      <trkpt lat="46.34803" lon="6.00635">
        <ele>1568</ele>
        <time>2014-06-28T07:52:36.000Z</time>
      </trkpt>
      <trkpt lat="46.34803" lon="6.00636">
        <ele>1568</ele>
        <time>2014-06-28T07:52:48.000Z</time>
      </trkpt>
      <trkpt lat="46.34803" lon="6.00637">
        <ele>1567</ele>
        <time>2014-06-28T07:53:30.000Z</time>
      </trkpt>
      <trkpt lat="46.34804" lon="6.00637">
        <ele>1567</ele>
        <time>2014-06-28T07:53:39.000Z</time>
      </trkpt>
      <trkpt lat="46.34804" lon="6.00637">
        <ele>1567</ele>
        <time>2014-06-28T07:53:40.000Z</time>
      </trkpt>
      <trkpt lat="46.34803" lon="6.00635">
        <ele>1568</ele>
        <time>2014-06-28T07:53:58.000Z</time>
      </trkpt>
      <trkpt lat="46.34802" lon="6.00635">
        <ele>1568</ele>
        <time>2014-06-28T07:54:44.000Z</time>
      </trkpt>
      <trkpt lat="46.34802" lon="6.00635">
        <ele>1568</ele>
        <time>2014-06-28T07:54:46.000Z</time>
      </trkpt>
      <trkpt lat="46.34802" lon="6.00635">
        <ele>1568</ele>
        <time>2014-06-28T07:54:49.000Z</time>
      </trkpt>
      <trkpt lat="46.34801" lon="6.00634">
        <ele>1568</ele>
        <time>2014-06-28T07:54:55.000Z</time>
      </trkpt>
      <trkpt lat="46.34802" lon="6.00634">
        <ele>1568</ele>
        <time>2014-06-28T07:54:59.000Z</time>
      </trkpt>
      <trkpt lat="46.34802" lon="6.00635">
        <ele>1568</ele>
        <time>2014-06-28T07:55:35.000Z</time>
      </trkpt>
      <trkpt lat="46.34803" lon="6.00635">
        <ele>1568</ele>
        <time>2014-06-28T07:56:13.000Z</time>
      </trkpt>
      <trkpt lat="46.34802" lon="6.00634">
        <ele>1568</ele>
        <time>2014-06-28T07:57:28.000Z</time>
      </trkpt>
      <trkpt lat="46.34802" lon="6.00634">
        <ele>1568</ele>
        <time>2014-06-28T07:58:05.000Z</time>
      </trkpt>
      <trkpt lat="46.34802" lon="6.00634">
        <ele>1568</ele>
        <time>2014-06-28T07:58:21.000Z</time>
      </trkpt>
      <trkpt lat="46.34802" lon="6.00634">
        <ele>1568</ele>
        <time>2014-06-28T07:58:22.000Z</time>
      </trkpt>
      <trkpt lat="46.34802" lon="6.00634">
        <ele>1568</ele>
        <time>2014-06-28T07:58:24.000Z</time>
      </trkpt>
      <trkpt lat="46.34802" lon="6.00634">
        <ele>1568</ele>
        <time>2014-06-28T07:58:50.000Z</time>
      </trkpt>
      <trkpt lat="46.34803" lon="6.00634">
        <ele>1568</ele>
        <time>2014-06-28T08:00:52.000Z</time>
      </trkpt>
      <trkpt lat="46.34803" lon="6.0063">
        <ele>1568</ele>
        <time>2014-06-28T08:01:55.000Z</time>
      </trkpt>
      <trkpt lat="46.34802" lon="6.00632">
        <ele>1568</ele>
        <time>2014-06-28T08:02:24.000Z</time>
      </trkpt>
      <trkpt lat="46.34801" lon="6.00633">
        <ele>1568</ele>
        <time>2014-06-28T08:03:20.000Z</time>
      </trkpt>
      <trkpt lat="46.34801" lon="6.00632">
        <ele>1568</ele>
        <time>2014-06-28T08:04:01.000Z</time>
      </trkpt>
      <trkpt lat="46.34801" lon="6.00632">
        <ele>1568</ele>
        <time>2014-06-28T08:04:11.000Z</time>
      </trkpt>
      <trkpt lat="46.348" lon="6.00626">
        <ele>1568</ele>
        <time>2014-06-28T08:04:26.000Z</time>
      </trkpt>
      <trkpt lat="46.34795" lon="6.00618">
        <ele>1569</ele>
        <time>2014-06-28T08:04:56.000Z</time>
      </trkpt>
      <trkpt lat="46.34778" lon="6.00597">
        <ele>1571</ele>
        <time>2014-06-28T08:05:09.000Z</time>
      </trkpt>
      <trkpt lat="46.34773" lon="6.00595">
        <ele>1572</ele>
        <time>2014-06-28T08:05:12.000Z</time>
      </trkpt>
      <trkpt lat="46.3476" lon="6.00596">
        <ele>1573</ele>
        <time>2014-06-28T08:05:20.000Z</time>
      </trkpt>
      <trkpt lat="46.34759" lon="6.00595">
        <ele>1574</ele>
        <time>2014-06-28T08:05:21.000Z</time>
      </trkpt>
      <trkpt lat="46.34755" lon="6.00596">
        <ele>1574</ele>
        <time>2014-06-28T08:05:24.000Z</time>
      </trkpt>
      <trkpt lat="46.34744" lon="6.00594">
        <ele>1568</ele>
        <time>2014-06-28T08:05:31.000Z</time>
      </trkpt>
      <trkpt lat="46.34739" lon="6.0059">
        <ele>1568</ele>
        <time>2014-06-28T08:05:35.000Z</time>
      </trkpt>
      <trkpt lat="46.34732" lon="6.00586">
        <ele>1566</ele>
        <time>2014-06-28T08:05:40.000Z</time>
      </trkpt>
      <trkpt lat="46.34726" lon="6.0058">
        <ele>1577</ele>
        <time>2014-06-28T08:05:46.000Z</time>
      </trkpt>
      <trkpt lat="46.34724" lon="6.00578">
        <ele>1577</ele>
        <time>2014-06-28T08:05:48.000Z</time>
      </trkpt>
      <trkpt lat="46.34718" lon="6.00573">
        <ele>1576</ele>
        <time>2014-06-28T08:05:59.000Z</time>
      </trkpt>
      <trkpt lat="46.34717" lon="6.00573">
        <ele>1576</ele>
        <time>2014-06-28T08:06:00.000Z</time>
      </trkpt>
      <trkpt lat="46.34714" lon="6.00569">
        <ele>1576</ele>
        <time>2014-06-28T08:06:10.000Z</time>
      </trkpt>
      <trkpt lat="46.3471" lon="6.00574">
        <ele>1576</ele>
        <time>2014-06-28T08:06:19.000Z</time>
      </trkpt>
      <trkpt lat="46.34706" lon="6.00575">
        <ele>1576</ele>
        <time>2014-06-28T08:06:24.000Z</time>
      </trkpt>
      <trkpt lat="46.34698" lon="6.00574">
        <ele>1575</ele>
        <time>2014-06-28T08:06:32.000Z</time>
      </trkpt>
      <trkpt lat="46.34691" lon="6.00568">
        <ele>1575</ele>
        <time>2014-06-28T08:06:40.000Z</time>
      </trkpt>
      <trkpt lat="46.34688" lon="6.00568">
        <ele>1575</ele>
        <time>2014-06-28T08:06:43.000Z</time>
      </trkpt>
      <trkpt lat="46.34679" lon="6.00563">
        <ele>1575</ele>
        <time>2014-06-28T08:06:51.000Z</time>
      </trkpt>
      <trkpt lat="46.34672" lon="6.00558">
        <ele>1575</ele>
        <time>2014-06-28T08:06:56.000Z</time>
      </trkpt>
      <trkpt lat="46.34658" lon="6.00547">
        <ele>1573</ele>
        <time>2014-06-28T08:07:08.000Z</time>
      </trkpt>
      <trkpt lat="46.34647" lon="6.0054">
        <ele>1573</ele>
        <time>2014-06-28T08:07:20.000Z</time>
      </trkpt>
      <trkpt lat="46.34641" lon="6.00536">
        <ele>1573</ele>
        <time>2014-06-28T08:07:26.000Z</time>
      </trkpt>
      <trkpt lat="46.34638" lon="6.00533">
        <ele>1573</ele>
        <time>2014-06-28T08:07:30.000Z</time>
      </trkpt>
      <trkpt lat="46.34633" lon="6.00527">
        <ele>1574</ele>
        <time>2014-06-28T08:07:36.000Z</time>
      </trkpt>
      <trkpt lat="46.34631" lon="6.00521">
        <ele>1574</ele>
        <time>2014-06-28T08:07:40.000Z</time>
      </trkpt>
      <trkpt lat="46.34624" lon="6.00514">
        <ele>1575</ele>
        <time>2014-06-28T08:07:51.000Z</time>
      </trkpt>
      <trkpt lat="46.3462" lon="6.0051">
        <ele>1575</ele>
        <time>2014-06-28T08:07:59.000Z</time>
      </trkpt>
      <trkpt lat="46.34612" lon="6.00503">
        <ele>1576</ele>
        <time>2014-06-28T08:08:09.000Z</time>
      </trkpt>
      <trkpt lat="46.34596" lon="6.00497">
        <ele>1581</ele>
        <time>2014-06-28T08:08:25.000Z</time>
      </trkpt>
      <trkpt lat="46.34595" lon="6.00496">
        <ele>1581</ele>
        <time>2014-06-28T08:08:26.000Z</time>
      </trkpt>
      <trkpt lat="46.34589" lon="6.00497">
        <ele>1582</ele>
        <time>2014-06-28T08:08:32.000Z</time>
      </trkpt>
      <trkpt lat="46.34586" lon="6.00498">
        <ele>1582</ele>
        <time>2014-06-28T08:08:35.000Z</time>
      </trkpt>
      <trkpt lat="46.34583" lon="6.00499">
        <ele>1583</ele>
        <time>2014-06-28T08:08:39.000Z</time>
      </trkpt>
      <trkpt lat="46.34571" lon="6.00496">
        <ele>1584</ele>
        <time>2014-06-28T08:08:49.000Z</time>
      </trkpt>
      <trkpt lat="46.3456" lon="6.00493">
        <ele>1585</ele>
        <time>2014-06-28T08:08:58.000Z</time>
      </trkpt>
      <trkpt lat="46.34547" lon="6.00495">
        <ele>1586</ele>
        <time>2014-06-28T08:09:09.000Z</time>
      </trkpt>
      <trkpt lat="46.34544" lon="6.00495">
        <ele>1586</ele>
        <time>2014-06-28T08:09:12.000Z</time>
      </trkpt>
      <trkpt lat="46.3453" lon="6.00489">
        <ele>1587</ele>
        <time>2014-06-28T08:09:26.000Z</time>
      </trkpt>
      <trkpt lat="46.34522" lon="6.00491">
        <ele>1588</ele>
        <time>2014-06-28T08:09:33.000Z</time>
      </trkpt>
      <trkpt lat="46.34517" lon="6.00491">
        <ele>1589</ele>
        <time>2014-06-28T08:09:38.000Z</time>
      </trkpt>
      <trkpt lat="46.34509" lon="6.00496">
        <ele>1590</ele>
        <time>2014-06-28T08:09:46.000Z</time>
      </trkpt>
      <trkpt lat="46.34505" lon="6.00499">
        <ele>1590</ele>
        <time>2014-06-28T08:09:49.000Z</time>
      </trkpt>
      <trkpt lat="46.34503" lon="6.00501">
        <ele>1588</ele>
        <time>2014-06-28T08:09:52.000Z</time>
      </trkpt>
      <trkpt lat="46.34501" lon="6.00501">
        <ele>1590</ele>
        <time>2014-06-28T08:09:54.000Z</time>
      </trkpt>
      <trkpt lat="46.3449" lon="6.00495">
        <ele>1592</ele>
        <time>2014-06-28T08:10:04.000Z</time>
      </trkpt>
      <trkpt lat="46.34485" lon="6.00491">
        <ele>1593</ele>
        <time>2014-06-28T08:10:09.000Z</time>
      </trkpt>
      <trkpt lat="46.3447" lon="6.00489">
        <ele>1594</ele>
        <time>2014-06-28T08:10:22.000Z</time>
      </trkpt>
      <trkpt lat="46.3446" lon="6.00495">
        <ele>1594</ele>
        <time>2014-06-28T08:10:33.000Z</time>
      </trkpt>
      <trkpt lat="46.34446" lon="6.00505">
        <ele>1577</ele>
        <time>2014-06-28T08:10:46.000Z</time>
      </trkpt>
      <trkpt lat="46.34438" lon="6.00508">
        <ele>1579</ele>
        <time>2014-06-28T08:10:59.000Z</time>
      </trkpt>
      <trkpt lat="46.34438" lon="6.00506">
        <ele>1579</ele>
        <time>2014-06-28T08:11:48.000Z</time>
      </trkpt>
      <trkpt lat="46.34438" lon="6.00506">
        <ele>1579</ele>
        <time>2014-06-28T08:12:11.000Z</time>
      </trkpt>
      <trkpt lat="46.34438" lon="6.00506">
        <ele>1579</ele>
        <time>2014-06-28T08:12:33.000Z</time>
      </trkpt>
      <trkpt lat="46.34437" lon="6.00507">
        <ele>1579</ele>
        <time>2014-06-28T08:13:02.000Z</time>
      </trkpt>
      <trkpt lat="46.34437" lon="6.00507">
        <ele>1579</ele>
        <time>2014-06-28T08:13:18.000Z</time>
      </trkpt>
      <trkpt lat="46.34434" lon="6.00505">
        <ele>1581</ele>
        <time>2014-06-28T08:14:34.000Z</time>
      </trkpt>
      <trkpt lat="46.34429" lon="6.00504">
        <ele>1585</ele>
        <time>2014-06-28T08:14:39.000Z</time>
      </trkpt>
      <trkpt lat="46.34421" lon="6.00497">
        <ele>1597</ele>
        <time>2014-06-28T08:14:47.000Z</time>
      </trkpt>
      <trkpt lat="46.34414" lon="6.00492">
        <ele>1595</ele>
        <time>2014-06-28T08:14:53.000Z</time>
      </trkpt>
      <trkpt lat="46.34399" lon="6.00475">
        <ele>1590</ele>
        <time>2014-06-28T08:15:08.000Z</time>
      </trkpt>
      <trkpt lat="46.34396" lon="6.00472">
        <ele>1590</ele>
        <time>2014-06-28T08:15:11.000Z</time>
      </trkpt>
      <trkpt lat="46.34391" lon="6.00468">
        <ele>1589</ele>
        <time>2014-06-28T08:15:15.000Z</time>
      </trkpt>
      <trkpt lat="46.34388" lon="6.00464">
        <ele>1589</ele>
        <time>2014-06-28T08:15:19.000Z</time>
      </trkpt>
      <trkpt lat="46.34382" lon="6.00459">
        <ele>1588</ele>
        <time>2014-06-28T08:15:25.000Z</time>
      </trkpt>
      <trkpt lat="46.3438" lon="6.00458">
        <ele>1588</ele>
        <time>2014-06-28T08:15:27.000Z</time>
      </trkpt>
      <trkpt lat="46.34379" lon="6.00457">
        <ele>1588</ele>
        <time>2014-06-28T08:15:28.000Z</time>
      </trkpt>
      <trkpt lat="46.34376" lon="6.00456">
        <ele>1588</ele>
        <time>2014-06-28T08:15:30.000Z</time>
      </trkpt>
      <trkpt lat="46.34368" lon="6.00452">
        <ele>1587</ele>
        <time>2014-06-28T08:15:40.000Z</time>
      </trkpt>
      <trkpt lat="46.34365" lon="6.00449">
        <ele>1587</ele>
        <time>2014-06-28T08:15:44.000Z</time>
      </trkpt>
      <trkpt lat="46.34362" lon="6.00448">
        <ele>1586</ele>
        <time>2014-06-28T08:15:47.000Z</time>
      </trkpt>
      <trkpt lat="46.34359" lon="6.00445">
        <ele>1586</ele>
        <time>2014-06-28T08:15:51.000Z</time>
      </trkpt>
      <trkpt lat="46.34354" lon="6.00437">
        <ele>1586</ele>
        <time>2014-06-28T08:15:57.000Z</time>
      </trkpt>
      <trkpt lat="46.34352" lon="6.00429">
        <ele>1586</ele>
        <time>2014-06-28T08:16:04.000Z</time>
      </trkpt>
      <trkpt lat="46.3435" lon="6.00417">
        <ele>1585</ele>
        <time>2014-06-28T08:16:13.000Z</time>
      </trkpt>
      <trkpt lat="46.34345" lon="6.00411">
        <ele>1583</ele>
        <time>2014-06-28T08:16:18.000Z</time>
      </trkpt>
      <trkpt lat="46.34337" lon="6.00411">
        <ele>1583</ele>
        <time>2014-06-28T08:16:26.000Z</time>
      </trkpt>
      <trkpt lat="46.34324" lon="6.00416">
        <ele>1579</ele>
        <time>2014-06-28T08:16:36.000Z</time>
      </trkpt>
      <trkpt lat="46.34313" lon="6.00416">
        <ele>1576</ele>
        <time>2014-06-28T08:16:45.000Z</time>
      </trkpt>
      <trkpt lat="46.34309" lon="6.00414">
        <ele>1575</ele>
        <time>2014-06-28T08:16:48.000Z</time>
      </trkpt>
      <trkpt lat="46.34294" lon="6.00403">
        <ele>1572</ele>
        <time>2014-06-28T08:17:00.000Z</time>
      </trkpt>
      <trkpt lat="46.34286" lon="6.00401">
        <ele>1571</ele>
        <time>2014-06-28T08:17:06.000Z</time>
      </trkpt>
      <trkpt lat="46.34282" lon="6.00402">
        <ele>1570</ele>
        <time>2014-06-28T08:17:10.000Z</time>
      </trkpt>
      <trkpt lat="46.34279" lon="6.00403">
        <ele>1570</ele>
        <time>2014-06-28T08:17:13.000Z</time>
      </trkpt>
      <trkpt lat="46.34275" lon="6.00404">
        <ele>1570</ele>
        <time>2014-06-28T08:17:16.000Z</time>
      </trkpt>
      <trkpt lat="46.34274" lon="6.00406">
        <ele>1569</ele>
        <time>2014-06-28T08:17:17.000Z</time>
      </trkpt>
      <trkpt lat="46.34272" lon="6.0041">
        <ele>1569</ele>
        <time>2014-06-28T08:17:20.000Z</time>
      </trkpt>
      <trkpt lat="46.34262" lon="6.00408">
        <ele>1568</ele>
        <time>2014-06-28T08:17:29.000Z</time>
      </trkpt>
      <trkpt lat="46.34258" lon="6.00409">
        <ele>1568</ele>
        <time>2014-06-28T08:17:32.000Z</time>
      </trkpt>
      <trkpt lat="46.34253" lon="6.00408">
        <ele>1568</ele>
        <time>2014-06-28T08:17:36.000Z</time>
      </trkpt>
      <trkpt lat="46.3424" lon="6.004">
        <ele>1561</ele>
        <time>2014-06-28T08:17:45.000Z</time>
      </trkpt>
      <trkpt lat="46.34228" lon="6.00397">
        <ele>1560</ele>
        <time>2014-06-28T08:17:55.000Z</time>
      </trkpt>
      <trkpt lat="46.34211" lon="6.00392">
        <ele>1557</ele>
        <time>2014-06-28T08:18:09.000Z</time>
      </trkpt>
      <trkpt lat="46.342" lon="6.00385">
        <ele>1556</ele>
        <time>2014-06-28T08:18:17.000Z</time>
      </trkpt>
      <trkpt lat="46.34194" lon="6.00378">
        <ele>1556</ele>
        <time>2014-06-28T08:18:23.000Z</time>
      </trkpt>
      <trkpt lat="46.34189" lon="6.00371">
        <ele>1556</ele>
        <time>2014-06-28T08:18:28.000Z</time>
      </trkpt>
      <trkpt lat="46.34185" lon="6.00364">
        <ele>1556</ele>
        <time>2014-06-28T08:18:33.000Z</time>
      </trkpt>
      <trkpt lat="46.34168" lon="6.00352">
        <ele>1556</ele>
        <time>2014-06-28T08:18:47.000Z</time>
      </trkpt>
      <trkpt lat="46.34166" lon="6.0035">
        <ele>1553</ele>
        <time>2014-06-28T08:18:49.000Z</time>
      </trkpt>
      <trkpt lat="46.34152" lon="6.00339">
        <ele>1554</ele>
        <time>2014-06-28T08:19:01.000Z</time>
      </trkpt>
      <trkpt lat="46.34142" lon="6.00319">
        <ele>1559</ele>
        <time>2014-06-28T08:19:13.000Z</time>
      </trkpt>
      <trkpt lat="46.34142" lon="6.00318">
        <ele>1560</ele>
        <time>2014-06-28T08:19:14.000Z</time>
      </trkpt>
      <trkpt lat="46.34138" lon="6.00307">
        <ele>1560</ele>
        <time>2014-06-28T08:19:21.000Z</time>
      </trkpt>
      <trkpt lat="46.34133" lon="6.00299">
        <ele>1560</ele>
        <time>2014-06-28T08:19:31.000Z</time>
      </trkpt>
      <trkpt lat="46.34127" lon="6.00294">
        <ele>1561</ele>
        <time>2014-06-28T08:19:43.000Z</time>
      </trkpt>
      <trkpt lat="46.34122" lon="6.00294">
        <ele>1561</ele>
        <time>2014-06-28T08:19:47.000Z</time>
      </trkpt>
      <trkpt lat="46.3412" lon="6.00294">
        <ele>1561</ele>
        <time>2014-06-28T08:19:49.000Z</time>
      </trkpt>
      <trkpt lat="46.34115" lon="6.00291">
        <ele>1562</ele>
        <time>2014-06-28T08:19:55.000Z</time>
      </trkpt>
      <trkpt lat="46.34108" lon="6.00294">
        <ele>1562</ele>
        <time>2014-06-28T08:20:03.000Z</time>
      </trkpt>
      <trkpt lat="46.34103" lon="6.00294">
        <ele>1563</ele>
        <time>2014-06-28T08:20:09.000Z</time>
      </trkpt>
      <trkpt lat="46.341" lon="6.00291">
        <ele>1563</ele>
        <time>2014-06-28T08:20:14.000Z</time>
      </trkpt>
      <trkpt lat="46.34097" lon="6.00289">
        <ele>1563</ele>
        <time>2014-06-28T08:20:18.000Z</time>
      </trkpt>
      <trkpt lat="46.34098" lon="6.00286">
        <ele>1563</ele>
        <time>2014-06-28T08:20:33.000Z</time>
      </trkpt>
      <trkpt lat="46.34097" lon="6.00286">
        <ele>1563</ele>
        <time>2014-06-28T08:24:17.000Z</time>
      </trkpt>
      <trkpt lat="46.34097" lon="6.00286">
        <ele>1563</ele>
        <time>2014-06-28T08:24:26.000Z</time>
      </trkpt>
      <trkpt lat="46.34089" lon="6.00293">
        <ele>1564</ele>
        <time>2014-06-28T08:24:35.000Z</time>
      </trkpt>
      <trkpt lat="46.34087" lon="6.00296">
        <ele>1564</ele>
        <time>2014-06-28T08:24:38.000Z</time>
      </trkpt>
      <trkpt lat="46.34081" lon="6.00298">
        <ele>1571</ele>
        <time>2014-06-28T08:24:43.000Z</time>
      </trkpt>
      <trkpt lat="46.34076" lon="6.00299">
        <ele>1572</ele>
        <time>2014-06-28T08:24:48.000Z</time>
      </trkpt>
      <trkpt lat="46.34074" lon="6.00301">
        <ele>1572</ele>
        <time>2014-06-28T08:24:51.000Z</time>
      </trkpt>
      <trkpt lat="46.3407" lon="6.00302">
        <ele>1572</ele>
        <time>2014-06-28T08:24:54.000Z</time>
      </trkpt>
      <trkpt lat="46.34067" lon="6.003">
        <ele>1572</ele>
        <time>2014-06-28T08:24:57.000Z</time>
      </trkpt>
      <trkpt lat="46.34058" lon="6.00299">
        <ele>1572</ele>
        <time>2014-06-28T08:25:05.000Z</time>
      </trkpt>
      <trkpt lat="46.34049" lon="6.00299">
        <ele>1573</ele>
        <time>2014-06-28T08:25:12.000Z</time>
      </trkpt>
      <trkpt lat="46.34048" lon="6.00299">
        <ele>1573</ele>
        <time>2014-06-28T08:25:13.000Z</time>
      </trkpt>
      <trkpt lat="46.34028" lon="6.00287">
        <ele>1575</ele>
        <time>2014-06-28T08:25:27.000Z</time>
      </trkpt>
      <trkpt lat="46.34013" lon="6.00283">
        <ele>1576</ele>
        <time>2014-06-28T08:25:39.000Z</time>
      </trkpt>
      <trkpt lat="46.33994" lon="6.00279">
        <ele>1580</ele>
        <time>2014-06-28T08:25:52.000Z</time>
      </trkpt>
      <trkpt lat="46.33983" lon="6.00281">
        <ele>1580</ele>
        <time>2014-06-28T08:26:00.000Z</time>
      </trkpt>
      <trkpt lat="46.33971" lon="6.00283">
        <ele>1580</ele>
        <time>2014-06-28T08:26:10.000Z</time>
      </trkpt>
      <trkpt lat="46.33968" lon="6.00279">
        <ele>1581</ele>
        <time>2014-06-28T08:26:14.000Z</time>
      </trkpt>
      <trkpt lat="46.33967" lon="6.00278">
        <ele>1581</ele>
        <time>2014-06-28T08:26:16.000Z</time>
      </trkpt>
      <trkpt lat="46.33961" lon="6.00282">
        <ele>1580</ele>
        <time>2014-06-28T08:26:22.000Z</time>
      </trkpt>
      <trkpt lat="46.33955" lon="6.00284">
        <ele>1580</ele>
        <time>2014-06-28T08:26:30.000Z</time>
      </trkpt>
      <trkpt lat="46.33954" lon="6.00283">
        <ele>1580</ele>
        <time>2014-06-28T08:26:32.000Z</time>
      </trkpt>
      <trkpt lat="46.33944" lon="6.00284">
        <ele>1581</ele>
        <time>2014-06-28T08:26:42.000Z</time>
      </trkpt>
      <trkpt lat="46.33939" lon="6.00286">
        <ele>1581</ele>
        <time>2014-06-28T08:26:46.000Z</time>
      </trkpt>
      <trkpt lat="46.33937" lon="6.00286">
        <ele>1581</ele>
        <time>2014-06-28T08:26:48.000Z</time>
      </trkpt>
      <trkpt lat="46.33933" lon="6.00288">
        <ele>1580</ele>
        <time>2014-06-28T08:26:52.000Z</time>
      </trkpt>
      <trkpt lat="46.33931" lon="6.00289">
        <ele>1580</ele>
        <time>2014-06-28T08:26:54.000Z</time>
      </trkpt>
      <trkpt lat="46.33929" lon="6.00292">
        <ele>1580</ele>
        <time>2014-06-28T08:26:57.000Z</time>
      </trkpt>
      <trkpt lat="46.33926" lon="6.00292">
        <ele>1580</ele>
        <time>2014-06-28T08:26:59.000Z</time>
      </trkpt>
      <trkpt lat="46.33926" lon="6.00292">
        <ele>1580</ele>
        <time>2014-06-28T08:27:01.000Z</time>
      </trkpt>
      <trkpt lat="46.33925" lon="6.00292">
        <ele>1580</ele>
        <time>2014-06-28T08:27:02.000Z</time>
      </trkpt>
      <trkpt lat="46.33925" lon="6.00292">
        <ele>1580</ele>
        <time>2014-06-28T08:27:06.000Z</time>
      </trkpt>
      <trkpt lat="46.33925" lon="6.00291">
        <ele>1580</ele>
        <time>2014-06-28T08:27:07.000Z</time>
      </trkpt>
      <trkpt lat="46.33923" lon="6.00293">
        <ele>1579</ele>
        <time>2014-06-28T08:28:10.000Z</time>
      </trkpt>
      <trkpt lat="46.33923" lon="6.00292">
        <ele>1580</ele>
        <time>2014-06-28T08:28:20.000Z</time>
      </trkpt>
      <trkpt lat="46.33924" lon="6.0029">
        <ele>1580</ele>
        <time>2014-06-28T08:28:33.000Z</time>
      </trkpt>
      <trkpt lat="46.33923" lon="6.0029">
        <ele>1580</ele>
        <time>2014-06-28T08:28:46.000Z</time>
      </trkpt>
      <trkpt lat="46.33923" lon="6.0029">
        <ele>1580</ele>
        <time>2014-06-28T08:28:51.000Z</time>
      </trkpt>
      <trkpt lat="46.33923" lon="6.0029">
        <ele>1580</ele>
        <time>2014-06-28T08:28:52.000Z</time>
      </trkpt>
      <trkpt lat="46.33923" lon="6.00289">
        <ele>1580</ele>
        <time>2014-06-28T08:29:17.000Z</time>
      </trkpt>
      <trkpt lat="46.33923" lon="6.00289">
        <ele>1580</ele>
        <time>2014-06-28T08:29:20.000Z</time>
      </trkpt>
      <trkpt lat="46.33923" lon="6.00289">
        <ele>1580</ele>
        <time>2014-06-28T08:29:21.000Z</time>
      </trkpt>
      <trkpt lat="46.33924" lon="6.00289">
        <ele>1580</ele>
        <time>2014-06-28T08:29:27.000Z</time>
      </trkpt>
      <trkpt lat="46.3392" lon="6.00284">
        <ele>1581</ele>
        <time>2014-06-28T08:29:36.000Z</time>
      </trkpt>
      <trkpt lat="46.33918" lon="6.00283">
        <ele>1581</ele>
        <time>2014-06-28T08:29:38.000Z</time>
      </trkpt>
      <trkpt lat="46.33914" lon="6.00281">
        <ele>1579</ele>
        <time>2014-06-28T08:29:41.000Z</time>
      </trkpt>
      <trkpt lat="46.33912" lon="6.00281">
        <ele>1579</ele>
        <time>2014-06-28T08:29:43.000Z</time>
      </trkpt>
      <trkpt lat="46.33894" lon="6.00267">
        <ele>1581</ele>
        <time>2014-06-28T08:29:56.000Z</time>
      </trkpt>
      <trkpt lat="46.33889" lon="6.00266">
        <ele>1581</ele>
        <time>2014-06-28T08:29:59.000Z</time>
      </trkpt>
      <trkpt lat="46.33877" lon="6.00258">
        <ele>1581</ele>
        <time>2014-06-28T08:30:12.000Z</time>
      </trkpt>
      <trkpt lat="46.33876" lon="6.00255">
        <ele>1581</ele>
        <time>2014-06-28T08:30:16.000Z</time>
      </trkpt>
      <trkpt lat="46.33868" lon="6.00252">
        <ele>1582</ele>
        <time>2014-06-28T08:30:22.000Z</time>
      </trkpt>
      <trkpt lat="46.33867" lon="6.00251">
        <ele>1582</ele>
        <time>2014-06-28T08:30:23.000Z</time>
      </trkpt>
      <trkpt lat="46.33863" lon="6.0025">
        <ele>1591</ele>
        <time>2014-06-28T08:30:26.000Z</time>
      </trkpt>
      <trkpt lat="46.3385" lon="6.00241">
        <ele>1591</ele>
        <time>2014-06-28T08:30:36.000Z</time>
      </trkpt>
      <trkpt lat="46.33839" lon="6.00225">
        <ele>1591</ele>
        <time>2014-06-28T08:30:47.000Z</time>
      </trkpt>
      <trkpt lat="46.33825" lon="6.00227">
        <ele>1590</ele>
        <time>2014-06-28T08:30:58.000Z</time>
      </trkpt>
      <trkpt lat="46.33824" lon="6.00227">
        <ele>1590</ele>
        <time>2014-06-28T08:30:59.000Z</time>
      </trkpt>
      <trkpt lat="46.33803" lon="6.00222">
        <ele>1589</ele>
        <time>2014-06-28T08:31:14.000Z</time>
      </trkpt>
      <trkpt lat="46.33796" lon="6.00221">
        <ele>1589</ele>
        <time>2014-06-28T08:31:21.000Z</time>
      </trkpt>
      <trkpt lat="46.33788" lon="6.0022">
        <ele>1588</ele>
        <time>2014-06-28T08:31:35.000Z</time>
      </trkpt>
      <trkpt lat="46.33784" lon="6.00219">
        <ele>1588</ele>
        <time>2014-06-28T08:31:57.000Z</time>
      </trkpt>
      <trkpt lat="46.3378" lon="6.00218">
        <ele>1588</ele>
        <time>2014-06-28T08:32:01.000Z</time>
      </trkpt>
      <trkpt lat="46.33773" lon="6.00215">
        <ele>1588</ele>
        <time>2014-06-28T08:32:14.000Z</time>
      </trkpt>
      <trkpt lat="46.33773" lon="6.00215">
        <ele>1588</ele>
        <time>2014-06-28T08:32:18.000Z</time>
      </trkpt>
      <trkpt lat="46.33772" lon="6.00216">
        <ele>1588</ele>
        <time>2014-06-28T08:32:20.000Z</time>
      </trkpt>
      <trkpt lat="46.33765" lon="6.00216">
        <ele>1587</ele>
        <time>2014-06-28T08:32:26.000Z</time>
      </trkpt>
      <trkpt lat="46.3376" lon="6.00215">
        <ele>1587</ele>
        <time>2014-06-28T08:32:44.000Z</time>
      </trkpt>
      <trkpt lat="46.33759" lon="6.00214">
        <ele>1587</ele>
        <time>2014-06-28T08:32:45.000Z</time>
      </trkpt>
      <trkpt lat="46.33757" lon="6.00213">
        <ele>1588</ele>
        <time>2014-06-28T08:32:46.000Z</time>
      </trkpt>
      <trkpt lat="46.33751" lon="6.00208">
        <ele>1588</ele>
        <time>2014-06-28T08:32:51.000Z</time>
      </trkpt>
      <trkpt lat="46.33749" lon="6.00206">
        <ele>1582</ele>
        <time>2014-06-28T08:32:53.000Z</time>
      </trkpt>
      <trkpt lat="46.33729" lon="6.00199">
        <ele>1582</ele>
        <time>2014-06-28T08:33:07.000Z</time>
      </trkpt>
      <trkpt lat="46.33727" lon="6.00207">
        <ele>1580</ele>
        <time>2014-06-28T08:33:17.000Z</time>
      </trkpt>
      <trkpt lat="46.33726" lon="6.00204">
        <ele>1580</ele>
        <time>2014-06-28T08:33:19.000Z</time>
      </trkpt>
      <trkpt lat="46.33723" lon="6.002">
        <ele>1581</ele>
        <time>2014-06-28T08:33:22.000Z</time>
      </trkpt>
      <trkpt lat="46.33702" lon="6.00191">
        <ele>1581</ele>
        <time>2014-06-28T08:33:37.000Z</time>
      </trkpt>
      <trkpt lat="46.33689" lon="6.00191">
        <ele>1581</ele>
        <time>2014-06-28T08:33:47.000Z</time>
      </trkpt>
      <trkpt lat="46.33683" lon="6.00194">
        <ele>1581</ele>
        <time>2014-06-28T08:33:57.000Z</time>
      </trkpt>
      <trkpt lat="46.33683" lon="6.00194">
        <ele>1580</ele>
        <time>2014-06-28T08:34:03.000Z</time>
      </trkpt>
      <trkpt lat="46.3368" lon="6.0019">
        <ele>1582</ele>
        <time>2014-06-28T08:34:06.000Z</time>
      </trkpt>
      <trkpt lat="46.33665" lon="6.00189">
        <ele>1575</ele>
        <time>2014-06-28T08:34:18.000Z</time>
      </trkpt>
      <trkpt lat="46.33662" lon="6.00189">
        <ele>1574</ele>
        <time>2014-06-28T08:34:20.000Z</time>
      </trkpt>
      <trkpt lat="46.33662" lon="6.00189">
        <ele>1574</ele>
        <time>2014-06-28T08:34:21.000Z</time>
      </trkpt>
      <trkpt lat="46.33662" lon="6.0019">
        <ele>1574</ele>
        <time>2014-06-28T08:34:22.000Z</time>
      </trkpt>
      <trkpt lat="46.33657" lon="6.00189">
        <ele>1574</ele>
        <time>2014-06-28T08:34:57.000Z</time>
      </trkpt>
      <trkpt lat="46.33654" lon="6.00188">
        <ele>1573</ele>
        <time>2014-06-28T08:35:00.000Z</time>
      </trkpt>
      <trkpt lat="46.33649" lon="6.00184">
        <ele>1574</ele>
        <time>2014-06-28T08:35:04.000Z</time>
      </trkpt>
      <trkpt lat="46.33647" lon="6.00183">
        <ele>1574</ele>
        <time>2014-06-28T08:35:05.000Z</time>
      </trkpt>
      <trkpt lat="46.33633" lon="6.00173">
        <ele>1572</ele>
        <time>2014-06-28T08:35:16.000Z</time>
      </trkpt>
      <trkpt lat="46.33622" lon="6.00163">
        <ele>1589</ele>
        <time>2014-06-28T08:35:25.000Z</time>
      </trkpt>
      <trkpt lat="46.33618" lon="6.00161">
        <ele>1589</ele>
        <time>2014-06-28T08:35:28.000Z</time>
      </trkpt>
      <trkpt lat="46.33608" lon="6.00155">
        <ele>1588</ele>
        <time>2014-06-28T08:35:36.000Z</time>
      </trkpt>
      <trkpt lat="46.33602" lon="6.00147">
        <ele>1588</ele>
        <time>2014-06-28T08:35:42.000Z</time>
      </trkpt>
      <trkpt lat="46.33593" lon="6.00138">
        <ele>1588</ele>
        <time>2014-06-28T08:35:56.000Z</time>
      </trkpt>
      <trkpt lat="46.33593" lon="6.00138">
        <ele>1588</ele>
        <time>2014-06-28T08:35:59.000Z</time>
      </trkpt>
      <trkpt lat="46.33593" lon="6.00138">
        <ele>1588</ele>
        <time>2014-06-28T08:36:06.000Z</time>
      </trkpt>
      <trkpt lat="46.33592" lon="6.00138">
        <ele>1588</ele>
        <time>2014-06-28T08:36:23.000Z</time>
      </trkpt>
      <trkpt lat="46.33592" lon="6.00137">
        <ele>1588</ele>
        <time>2014-06-28T08:36:24.000Z</time>
      </trkpt>
      <trkpt lat="46.33589" lon="6.00134">
        <ele>1589</ele>
        <time>2014-06-28T08:36:30.000Z</time>
      </trkpt>
      <trkpt lat="46.33574" lon="6.00122">
        <ele>1585</ele>
        <time>2014-06-28T08:36:43.000Z</time>
      </trkpt>
      <trkpt lat="46.33566" lon="6.00119">
        <ele>1585</ele>
        <time>2014-06-28T08:36:50.000Z</time>
      </trkpt>
      <trkpt lat="46.33551" lon="6.00119">
        <ele>1584</ele>
        <time>2014-06-28T08:37:02.000Z</time>
      </trkpt>
      <trkpt lat="46.3355" lon="6.0012">
        <ele>1584</ele>
        <time>2014-06-28T08:37:03.000Z</time>
      </trkpt>
      <trkpt lat="46.33542" lon="6.00113">
        <ele>1584</ele>
        <time>2014-06-28T08:37:10.000Z</time>
      </trkpt>
      <trkpt lat="46.33538" lon="6.0011">
        <ele>1585</ele>
        <time>2014-06-28T08:37:14.000Z</time>
      </trkpt>
      <trkpt lat="46.33533" lon="6.00108">
        <ele>1585</ele>
        <time>2014-06-28T08:37:19.000Z</time>
      </trkpt>
      <trkpt lat="46.33522" lon="6.00107">
        <ele>1585</ele>
        <time>2014-06-28T08:37:29.000Z</time>
      </trkpt>
      <trkpt lat="46.33522" lon="6.00107">
        <ele>1585</ele>
        <time>2014-06-28T08:37:30.000Z</time>
      </trkpt>
      <trkpt lat="46.33516" lon="6.00103">
        <ele>1587</ele>
        <time>2014-06-28T08:37:36.000Z</time>
      </trkpt>
      <trkpt lat="46.33506" lon="6.00097">
        <ele>1589</ele>
        <time>2014-06-28T08:37:45.000Z</time>
      </trkpt>
      <trkpt lat="46.33488" lon="6.00087">
        <ele>1585</ele>
        <time>2014-06-28T08:38:00.000Z</time>
      </trkpt>
      <trkpt lat="46.33478" lon="6.00082">
        <ele>1592</ele>
        <time>2014-06-28T08:38:07.000Z</time>
      </trkpt>
      <trkpt lat="46.33468" lon="6.00079">
        <ele>1590</ele>
        <time>2014-06-28T08:38:15.000Z</time>
      </trkpt>
      <trkpt lat="46.33464" lon="6.00078">
        <ele>1590</ele>
        <time>2014-06-28T08:38:19.000Z</time>
      </trkpt>
      <trkpt lat="46.33456" lon="6.00076">
        <ele>1589</ele>
        <time>2014-06-28T08:38:26.000Z</time>
      </trkpt>
      <trkpt lat="46.33452" lon="6.00075">
        <ele>1589</ele>
        <time>2014-06-28T08:38:29.000Z</time>
      </trkpt>
      <trkpt lat="46.33448" lon="6.00071">
        <ele>1589</ele>
        <time>2014-06-28T08:38:34.000Z</time>
      </trkpt>
      <trkpt lat="46.33445" lon="6.0007">
        <ele>1589</ele>
        <time>2014-06-28T08:38:36.000Z</time>
      </trkpt>
      <trkpt lat="46.33442" lon="6.00068">
        <ele>1588</ele>
        <time>2014-06-28T08:38:39.000Z</time>
      </trkpt>
      <trkpt lat="46.33438" lon="6.00068">
        <ele>1588</ele>
        <time>2014-06-28T08:38:42.000Z</time>
      </trkpt>
      <trkpt lat="46.33432" lon="6.00066">
        <ele>1588</ele>
        <time>2014-06-28T08:38:47.000Z</time>
      </trkpt>
      <trkpt lat="46.33429" lon="6.00064">
        <ele>1588</ele>
        <time>2014-06-28T08:38:51.000Z</time>
      </trkpt>
      <trkpt lat="46.33424" lon="6.00062">
        <ele>1588</ele>
        <time>2014-06-28T08:38:55.000Z</time>
      </trkpt>
      <trkpt lat="46.33414" lon="6.00061">
        <ele>1582</ele>
        <time>2014-06-28T08:39:02.000Z</time>
      </trkpt>
      <trkpt lat="46.33396" lon="6.00052">
        <ele>1580</ele>
        <time>2014-06-28T08:39:16.000Z</time>
      </trkpt>
      <trkpt lat="46.33391" lon="6.00052">
        <ele>1580</ele>
        <time>2014-06-28T08:39:20.000Z</time>
      </trkpt>
      <trkpt lat="46.33384" lon="6.0005">
        <ele>1579</ele>
        <time>2014-06-28T08:39:31.000Z</time>
      </trkpt>
      <trkpt lat="46.33381" lon="6.0005">
        <ele>1579</ele>
        <time>2014-06-28T08:39:47.000Z</time>
      </trkpt>
      <trkpt lat="46.33377" lon="6.00044">
        <ele>1578</ele>
        <time>2014-06-28T08:40:11.000Z</time>
      </trkpt>
      <trkpt lat="46.33373" lon="6.00042">
        <ele>1578</ele>
        <time>2014-06-28T08:40:16.000Z</time>
      </trkpt>
      <trkpt lat="46.33371" lon="6.00042">
        <ele>1578</ele>
        <time>2014-06-28T08:40:18.000Z</time>
      </trkpt>
      <trkpt lat="46.33363" lon="6.00037">
        <ele>1578</ele>
        <time>2014-06-28T08:40:26.000Z</time>
      </trkpt>
      <trkpt lat="46.3335" lon="6.00034">
        <ele>1578</ele>
        <time>2014-06-28T08:40:36.000Z</time>
      </trkpt>
      <trkpt lat="46.33337" lon="6.00023">
        <ele>1580</ele>
        <time>2014-06-28T08:40:48.000Z</time>
      </trkpt>
      <trkpt lat="46.33329" lon="6.00019">
        <ele>1573</ele>
        <time>2014-06-28T08:40:56.000Z</time>
      </trkpt>
      <trkpt lat="46.33327" lon="6.00017">
        <ele>1573</ele>
        <time>2014-06-28T08:40:58.000Z</time>
      </trkpt>
      <trkpt lat="46.33317" lon="6.00008">
        <ele>1573</ele>
        <time>2014-06-28T08:41:08.000Z</time>
      </trkpt>
      <trkpt lat="46.33314" lon="6.00005">
        <ele>1573</ele>
        <time>2014-06-28T08:41:11.000Z</time>
      </trkpt>
      <trkpt lat="46.33308" lon="6.00004">
        <ele>1571</ele>
        <time>2014-06-28T08:41:19.000Z</time>
      </trkpt>
      <trkpt lat="46.33302" lon="6.00001">
        <ele>1570</ele>
        <time>2014-06-28T08:41:26.000Z</time>
      </trkpt>
      <trkpt lat="46.33302" lon="6">
        <ele>1570</ele>
        <time>2014-06-28T08:41:27.000Z</time>
      </trkpt>
      <trkpt lat="46.33294" lon="5.99997">
        <ele>1577</ele>
        <time>2014-06-28T08:41:34.000Z</time>
      </trkpt>
      <trkpt lat="46.33293" lon="5.99997">
        <ele>1577</ele>
        <time>2014-06-28T08:41:36.000Z</time>
      </trkpt>
      <trkpt lat="46.33288" lon="5.99994">
        <ele>1576</ele>
        <time>2014-06-28T08:41:44.000Z</time>
      </trkpt>
      <trkpt lat="46.33284" lon="5.99991">
        <ele>1576</ele>
        <time>2014-06-28T08:41:47.000Z</time>
      </trkpt>
      <trkpt lat="46.33276" lon="5.99982">
        <ele>1575</ele>
        <time>2014-06-28T08:41:56.000Z</time>
      </trkpt>
      <trkpt lat="46.33271" lon="5.99981">
        <ele>1575</ele>
        <time>2014-06-28T08:42:00.000Z</time>
      </trkpt>
      <trkpt lat="46.33261" lon="5.99975">
        <ele>1574</ele>
        <time>2014-06-28T08:42:09.000Z</time>
      </trkpt>
      <trkpt lat="46.33259" lon="5.99973">
        <ele>1574</ele>
        <time>2014-06-28T08:42:11.000Z</time>
      </trkpt>
      <trkpt lat="46.33252" lon="5.99979">
        <ele>1575</ele>
        <time>2014-06-28T08:42:19.000Z</time>
      </trkpt>
      <trkpt lat="46.33249" lon="5.99979">
        <ele>1568</ele>
        <time>2014-06-28T08:42:22.000Z</time>
      </trkpt>
      <trkpt lat="46.33244" lon="5.9998">
        <ele>1568</ele>
        <time>2014-06-28T08:42:27.000Z</time>
      </trkpt>
      <trkpt lat="46.33242" lon="5.99979">
        <ele>1567</ele>
        <time>2014-06-28T08:42:30.000Z</time>
      </trkpt>
      <trkpt lat="46.33239" lon="5.9998">
        <ele>1567</ele>
        <time>2014-06-28T08:42:33.000Z</time>
      </trkpt>
      <trkpt lat="46.3323" lon="5.9998">
        <ele>1565</ele>
        <time>2014-06-28T08:42:41.000Z</time>
      </trkpt>
      <trkpt lat="46.33226" lon="5.9998">
        <ele>1565</ele>
        <time>2014-06-28T08:42:44.000Z</time>
      </trkpt>
      <trkpt lat="46.33221" lon="5.99981">
        <ele>1564</ele>
        <time>2014-06-28T08:42:48.000Z</time>
      </trkpt>
      <trkpt lat="46.33216" lon="5.99984">
        <ele>1563</ele>
        <time>2014-06-28T08:42:57.000Z</time>
      </trkpt>
      <trkpt lat="46.33216" lon="5.99983">
        <ele>1563</ele>
        <time>2014-06-28T08:43:18.000Z</time>
      </trkpt>
      <trkpt lat="46.33212" lon="5.99983">
        <ele>1562</ele>
        <time>2014-06-28T08:43:28.000Z</time>
      </trkpt>
      <trkpt lat="46.3321" lon="5.99983">
        <ele>1562</ele>
        <time>2014-06-28T08:43:29.000Z</time>
      </trkpt>
      <trkpt lat="46.33207" lon="5.99984">
        <ele>1561</ele>
        <time>2014-06-28T08:43:32.000Z</time>
      </trkpt>
      <trkpt lat="46.33205" lon="5.99984">
        <ele>1561</ele>
        <time>2014-06-28T08:43:33.000Z</time>
      </trkpt>
      <trkpt lat="46.33199" lon="5.99984">
        <ele>1560</ele>
        <time>2014-06-28T08:43:38.000Z</time>
      </trkpt>
      <trkpt lat="46.33195" lon="5.99983">
        <ele>1559</ele>
        <time>2014-06-28T08:43:42.000Z</time>
      </trkpt>
      <trkpt lat="46.33187" lon="5.99984">
        <ele>1558</ele>
        <time>2014-06-28T08:43:47.000Z</time>
      </trkpt>
      <trkpt lat="46.33167" lon="5.99981">
        <ele>1555</ele>
        <time>2014-06-28T08:44:01.000Z</time>
      </trkpt>
      <trkpt lat="46.33148" lon="5.99974">
        <ele>1550</ele>
        <time>2014-06-28T08:44:16.000Z</time>
      </trkpt>
      <trkpt lat="46.3313" lon="5.99967">
        <ele>1549</ele>
        <time>2014-06-28T08:44:30.000Z</time>
      </trkpt>
      <trkpt lat="46.3311" lon="5.99962">
        <ele>1549</ele>
        <time>2014-06-28T08:44:45.000Z</time>
      </trkpt>
      <trkpt lat="46.33091" lon="5.99958">
        <ele>1549</ele>
        <time>2014-06-28T08:44:59.000Z</time>
      </trkpt>
      <trkpt lat="46.33081" lon="5.99954">
        <ele>1549</ele>
        <time>2014-06-28T08:45:06.000Z</time>
      </trkpt>
      <trkpt lat="46.33063" lon="5.99946">
        <ele>1549</ele>
        <time>2014-06-28T08:45:19.000Z</time>
      </trkpt>
      <trkpt lat="46.33051" lon="5.99941">
        <ele>1549</ele>
        <time>2014-06-28T08:45:28.000Z</time>
      </trkpt>
      <trkpt lat="46.33034" lon="5.99936">
        <ele>1550</ele>
        <time>2014-06-28T08:45:42.000Z</time>
      </trkpt>
      <trkpt lat="46.33032" lon="5.99937">
        <ele>1550</ele>
        <time>2014-06-28T08:45:44.000Z</time>
      </trkpt>
      <trkpt lat="46.33019" lon="5.99941">
        <ele>1550</ele>
        <time>2014-06-28T08:45:56.000Z</time>
      </trkpt>
      <trkpt lat="46.33009" lon="5.99948">
        <ele>1550</ele>
        <time>2014-06-28T08:46:06.000Z</time>
      </trkpt>
      <trkpt lat="46.33003" lon="5.99951">
        <ele>1550</ele>
        <time>2014-06-28T08:46:11.000Z</time>
      </trkpt>
      <trkpt lat="46.33002" lon="5.99952">
        <ele>1550</ele>
        <time>2014-06-28T08:46:12.000Z</time>
      </trkpt>
      <trkpt lat="46.32992" lon="5.99957">
        <ele>1557</ele>
        <time>2014-06-28T08:46:21.000Z</time>
      </trkpt>
      <trkpt lat="46.32991" lon="5.99957">
        <ele>1557</ele>
        <time>2014-06-28T08:46:22.000Z</time>
      </trkpt>
      <trkpt lat="46.32987" lon="5.99959">
        <ele>1557</ele>
        <time>2014-06-28T08:46:25.000Z</time>
      </trkpt>
      <trkpt lat="46.32973" lon="5.99962">
        <ele>1558</ele>
        <time>2014-06-28T08:46:37.000Z</time>
      </trkpt>
      <trkpt lat="46.32968" lon="5.99963">
        <ele>1559</ele>
        <time>2014-06-28T08:46:41.000Z</time>
      </trkpt>
      <trkpt lat="46.32952" lon="5.99969">
        <ele>1560</ele>
        <time>2014-06-28T08:46:55.000Z</time>
      </trkpt>
      <trkpt lat="46.32949" lon="5.99974">
        <ele>1561</ele>
        <time>2014-06-28T08:46:59.000Z</time>
      </trkpt>
      <trkpt lat="46.32945" lon="5.99984">
        <ele>1562</ele>
        <time>2014-06-28T08:47:10.000Z</time>
      </trkpt>
      <trkpt lat="46.32939" lon="6.00003">
        <ele>1557</ele>
        <time>2014-06-28T08:47:23.000Z</time>
      </trkpt>
      <trkpt lat="46.32928" lon="6.00011">
        <ele>1559</ele>
        <time>2014-06-28T08:47:35.000Z</time>
      </trkpt>
      <trkpt lat="46.32923" lon="6.00013">
        <ele>1560</ele>
        <time>2014-06-28T08:47:43.000Z</time>
      </trkpt>
      <trkpt lat="46.32923" lon="6.00013">
        <ele>1560</ele>
        <time>2014-06-28T08:47:44.000Z</time>
      </trkpt>
      <trkpt lat="46.32922" lon="6.00011">
        <ele>1561</ele>
        <time>2014-06-28T08:48:02.000Z</time>
      </trkpt>
      <trkpt lat="46.32923" lon="6.0001">
        <ele>1561</ele>
        <time>2014-06-28T08:48:12.000Z</time>
      </trkpt>
      <trkpt lat="46.32922" lon="6.00012">
        <ele>1561</ele>
        <time>2014-06-28T08:48:32.000Z</time>
      </trkpt>
      <trkpt lat="46.32922" lon="6.00011">
        <ele>1561</ele>
        <time>2014-06-28T08:49:10.000Z</time>
      </trkpt>
      <trkpt lat="46.32922" lon="6.00011">
        <ele>1561</ele>
        <time>2014-06-28T08:49:12.000Z</time>
      </trkpt>
      <trkpt lat="46.32922" lon="6.00011">
        <ele>1561</ele>
        <time>2014-06-28T08:49:15.000Z</time>
      </trkpt>
      <trkpt lat="46.32922" lon="6.00011">
        <ele>1561</ele>
        <time>2014-06-28T08:49:21.000Z</time>
      </trkpt>
      <trkpt lat="46.32921" lon="6.00011">
        <ele>1561</ele>
        <time>2014-06-28T08:49:33.000Z</time>
      </trkpt>
      <trkpt lat="46.32914" lon="6.00012">
        <ele>1569</ele>
        <time>2014-06-28T08:49:44.000Z</time>
      </trkpt>
      <trkpt lat="46.32904" lon="6.00012">
        <ele>1569</ele>
        <time>2014-06-28T08:49:59.000Z</time>
      </trkpt>
      <trkpt lat="46.329" lon="6.00014">
        <ele>1569</ele>
        <time>2014-06-28T08:50:14.000Z</time>
      </trkpt>
      <trkpt lat="46.32898" lon="6.00015">
        <ele>1569</ele>
        <time>2014-06-28T08:50:17.000Z</time>
      </trkpt>
      <trkpt lat="46.32894" lon="6.00015">
        <ele>1569</ele>
        <time>2014-06-28T08:50:26.000Z</time>
      </trkpt>
      <trkpt lat="46.32893" lon="6.00018">
        <ele>1569</ele>
        <time>2014-06-28T08:50:29.000Z</time>
      </trkpt>
      <trkpt lat="46.32886" lon="6.00022">
        <ele>1570</ele>
        <time>2014-06-28T08:50:39.000Z</time>
      </trkpt>
      <trkpt lat="46.32884" lon="6.00023">
        <ele>1570</ele>
        <time>2014-06-28T08:50:42.000Z</time>
      </trkpt>
      <trkpt lat="46.32883" lon="6.00026">
        <ele>1570</ele>
        <time>2014-06-28T08:50:45.000Z</time>
      </trkpt>
      <trkpt lat="46.32883" lon="6.00026">
        <ele>1570</ele>
        <time>2014-06-28T08:50:46.000Z</time>
      </trkpt>
      <trkpt lat="46.32879" lon="6.00034">
        <ele>1569</ele>
        <time>2014-06-28T08:50:55.000Z</time>
      </trkpt>
      <trkpt lat="46.32876" lon="6.00037">
        <ele>1569</ele>
        <time>2014-06-28T08:50:59.000Z</time>
      </trkpt>
      <trkpt lat="46.32867" lon="6.0004">
        <ele>1570</ele>
        <time>2014-06-28T08:51:09.000Z</time>
      </trkpt>
      <trkpt lat="46.32861" lon="6.00044">
        <ele>1571</ele>
        <time>2014-06-28T08:51:18.000Z</time>
      </trkpt>
      <trkpt lat="46.32858" lon="6.00045">
        <ele>1571</ele>
        <time>2014-06-28T08:51:20.000Z</time>
      </trkpt>
      <trkpt lat="46.32854" lon="6.00049">
        <ele>1571</ele>
        <time>2014-06-28T08:51:25.000Z</time>
      </trkpt>
      <trkpt lat="46.32851" lon="6.00053">
        <ele>1571</ele>
        <time>2014-06-28T08:51:31.000Z</time>
      </trkpt>
      <trkpt lat="46.32845" lon="6.00059">
        <ele>1571</ele>
        <time>2014-06-28T08:51:44.000Z</time>
      </trkpt>
      <trkpt lat="46.32843" lon="6.00061">
        <ele>1571</ele>
        <time>2014-06-28T08:51:48.000Z</time>
      </trkpt>
      <trkpt lat="46.32843" lon="6.00061">
        <ele>1571</ele>
        <time>2014-06-28T08:52:33.000Z</time>
      </trkpt>
      <trkpt lat="46.32843" lon="6.00062">
        <ele>1571</ele>
        <time>2014-06-28T08:52:35.000Z</time>
      </trkpt>
      <trkpt lat="46.32842" lon="6.00062">
        <ele>1571</ele>
        <time>2014-06-28T08:53:11.000Z</time>
      </trkpt>
      <trkpt lat="46.32841" lon="6.00061">
        <ele>1571</ele>
        <time>2014-06-28T08:53:28.000Z</time>
      </trkpt>
      <trkpt lat="46.32843" lon="6.00062">
        <ele>1571</ele>
        <time>2014-06-28T08:53:57.000Z</time>
      </trkpt>
      <trkpt lat="46.32842" lon="6.00062">
        <ele>1571</ele>
        <time>2014-06-28T08:54:07.000Z</time>
      </trkpt>
      <trkpt lat="46.32842" lon="6.00061">
        <ele>1571</ele>
        <time>2014-06-28T08:54:24.000Z</time>
      </trkpt>
      <trkpt lat="46.32841" lon="6.00059">
        <ele>1571</ele>
        <time>2014-06-28T08:54:56.000Z</time>
      </trkpt>
      <trkpt lat="46.32841" lon="6.00059">
        <ele>1571</ele>
        <time>2014-06-28T08:55:03.000Z</time>
      </trkpt>
      <trkpt lat="46.3284" lon="6.00059">
        <ele>1571</ele>
        <time>2014-06-28T08:55:05.000Z</time>
      </trkpt>
      <trkpt lat="46.32843" lon="6.00063">
        <ele>1571</ele>
        <time>2014-06-28T08:55:44.000Z</time>
      </trkpt>
      <trkpt lat="46.32842" lon="6.00063">
        <ele>1571</ele>
        <time>2014-06-28T08:56:46.000Z</time>
      </trkpt>
      <trkpt lat="46.32841" lon="6.00063">
        <ele>1571</ele>
        <time>2014-06-28T08:58:11.000Z</time>
      </trkpt>
      <trkpt lat="46.3284" lon="6.0006">
        <ele>1571</ele>
        <time>2014-06-28T08:58:34.000Z</time>
      </trkpt>
      <trkpt lat="46.32839" lon="6.00062">
        <ele>1571</ele>
        <time>2014-06-28T08:58:37.000Z</time>
      </trkpt>
      <trkpt lat="46.32832" lon="6.00065">
        <ele>1580</ele>
        <time>2014-06-28T08:58:43.000Z</time>
      </trkpt>
      <trkpt lat="46.32829" lon="6.00067">
        <ele>1580</ele>
        <time>2014-06-28T08:58:47.000Z</time>
      </trkpt>
      <trkpt lat="46.32825" lon="6.00069">
        <ele>1580</ele>
        <time>2014-06-28T08:58:51.000Z</time>
      </trkpt>
      <trkpt lat="46.32823" lon="6.0007">
        <ele>1580</ele>
        <time>2014-06-28T08:58:54.000Z</time>
      </trkpt>
      <trkpt lat="46.32813" lon="6.0007">
        <ele>1582</ele>
        <time>2014-06-28T08:59:04.000Z</time>
      </trkpt>
      <trkpt lat="46.3281" lon="6.00068">
        <ele>1583</ele>
        <time>2014-06-28T08:59:07.000Z</time>
      </trkpt>
      <trkpt lat="46.32807" lon="6.00069">
        <ele>1583</ele>
        <time>2014-06-28T08:59:10.000Z</time>
      </trkpt>
      <trkpt lat="46.32805" lon="6.00069">
        <ele>1584</ele>
        <time>2014-06-28T08:59:12.000Z</time>
      </trkpt>
      <trkpt lat="46.32803" lon="6.00069">
        <ele>1584</ele>
        <time>2014-06-28T08:59:14.000Z</time>
      </trkpt>
      <trkpt lat="46.32803" lon="6.0007">
        <ele>1584</ele>
        <time>2014-06-28T08:59:15.000Z</time>
      </trkpt>
      <trkpt lat="46.32803" lon="6.00069">
        <ele>1584</ele>
        <time>2014-06-28T08:59:17.000Z</time>
      </trkpt>
      <trkpt lat="46.32801" lon="6.00068">
        <ele>1584</ele>
        <time>2014-06-28T08:59:25.000Z</time>
      </trkpt>
      <trkpt lat="46.32801" lon="6.0007">
        <ele>1584</ele>
        <time>2014-06-28T08:59:48.000Z</time>
      </trkpt>
      <trkpt lat="46.32801" lon="6.00071">
        <ele>1584</ele>
        <time>2014-06-28T08:59:51.000Z</time>
      </trkpt>
      <trkpt lat="46.32802" lon="6.00069">
        <ele>1584</ele>
        <time>2014-06-28T09:00:03.000Z</time>
      </trkpt>
      <trkpt lat="46.32802" lon="6.00069">
        <ele>1584</ele>
        <time>2014-06-28T09:00:11.000Z</time>
      </trkpt>
      <trkpt lat="46.32798" lon="6.00068">
        <ele>1585</ele>
        <time>2014-06-28T09:00:15.000Z</time>
      </trkpt>
      <trkpt lat="46.32792" lon="6.0007">
        <ele>1586</ele>
        <time>2014-06-28T09:00:20.000Z</time>
      </trkpt>
      <trkpt lat="46.32787" lon="6.00073">
        <ele>1586</ele>
        <time>2014-06-28T09:00:24.000Z</time>
      </trkpt>
      <trkpt lat="46.32771" lon="6.00083">
        <ele>1588</ele>
        <time>2014-06-28T09:00:37.000Z</time>
      </trkpt>
      <trkpt lat="46.32764" lon="6.00087">
        <ele>1581</ele>
        <time>2014-06-28T09:00:44.000Z</time>
      </trkpt>
      <trkpt lat="46.32746" lon="6.00098">
        <ele>1588</ele>
        <time>2014-06-28T09:00:59.000Z</time>
      </trkpt>
      <trkpt lat="46.32742" lon="6.00103">
        <ele>1586</ele>
        <time>2014-06-28T09:01:02.000Z</time>
      </trkpt>
      <trkpt lat="46.3274" lon="6.00105">
        <ele>1586</ele>
        <time>2014-06-28T09:01:04.000Z</time>
      </trkpt>
      <trkpt lat="46.32737" lon="6.00107">
        <ele>1586</ele>
        <time>2014-06-28T09:01:07.000Z</time>
      </trkpt>
      <trkpt lat="46.32734" lon="6.0011">
        <ele>1585</ele>
        <time>2014-06-28T09:01:12.000Z</time>
      </trkpt>
      <trkpt lat="46.32732" lon="6.00113">
        <ele>1584</ele>
        <time>2014-06-28T09:01:17.000Z</time>
      </trkpt>
      <trkpt lat="46.32729" lon="6.00115">
        <ele>1584</ele>
        <time>2014-06-28T09:01:21.000Z</time>
      </trkpt>
      <trkpt lat="46.32728" lon="6.00116">
        <ele>1584</ele>
        <time>2014-06-28T09:01:22.000Z</time>
      </trkpt>
      <trkpt lat="46.32726" lon="6.0012">
        <ele>1583</ele>
        <time>2014-06-28T09:01:27.000Z</time>
      </trkpt>
      <trkpt lat="46.32726" lon="6.00121">
        <ele>1583</ele>
        <time>2014-06-28T09:01:28.000Z</time>
      </trkpt>
      <trkpt lat="46.32726" lon="6.00121">
        <ele>1583</ele>
        <time>2014-06-28T09:01:34.000Z</time>
      </trkpt>
      <trkpt lat="46.32725" lon="6.00122">
        <ele>1583</ele>
        <time>2014-06-28T09:01:35.000Z</time>
      </trkpt>
      <trkpt lat="46.32719" lon="6.0013">
        <ele>1582</ele>
        <time>2014-06-28T09:01:43.000Z</time>
      </trkpt>
      <trkpt lat="46.32718" lon="6.0013">
        <ele>1582</ele>
        <time>2014-06-28T09:01:44.000Z</time>
      </trkpt>
      <trkpt lat="46.32715" lon="6.00134">
        <ele>1582</ele>
        <time>2014-06-28T09:01:48.000Z</time>
      </trkpt>
      <trkpt lat="46.32712" lon="6.00134">
        <ele>1582</ele>
        <time>2014-06-28T09:01:52.000Z</time>
      </trkpt>
      <trkpt lat="46.32711" lon="6.00135">
        <ele>1582</ele>
        <time>2014-06-28T09:01:54.000Z</time>
      </trkpt>
      <trkpt lat="46.3271" lon="6.00136">
        <ele>1582</ele>
        <time>2014-06-28T09:01:55.000Z</time>
      </trkpt>
      <trkpt lat="46.32709" lon="6.00138">
        <ele>1582</ele>
        <time>2014-06-28T09:01:57.000Z</time>
      </trkpt>
      <trkpt lat="46.32704" lon="6.00139">
        <ele>1582</ele>
        <time>2014-06-28T09:02:01.000Z</time>
      </trkpt>
      <trkpt lat="46.32696" lon="6.00137">
        <ele>1582</ele>
        <time>2014-06-28T09:02:07.000Z</time>
      </trkpt>
      <trkpt lat="46.32689" lon="6.00134">
        <ele>1582</ele>
        <time>2014-06-28T09:02:13.000Z</time>
      </trkpt>
      <trkpt lat="46.32687" lon="6.00133">
        <ele>1582</ele>
        <time>2014-06-28T09:02:15.000Z</time>
      </trkpt>
      <trkpt lat="46.32673" lon="6.00132">
        <ele>1582</ele>
        <time>2014-06-28T09:02:27.000Z</time>
      </trkpt>
      <trkpt lat="46.32671" lon="6.00132">
        <ele>1582</ele>
        <time>2014-06-28T09:02:29.000Z</time>
      </trkpt>
      <trkpt lat="46.32668" lon="6.00133">
        <ele>1582</ele>
        <time>2014-06-28T09:02:31.000Z</time>
      </trkpt>
      <trkpt lat="46.32662" lon="6.00134">
        <ele>1581</ele>
        <time>2014-06-28T09:02:37.000Z</time>
      </trkpt>
      <trkpt lat="46.32661" lon="6.00134">
        <ele>1581</ele>
        <time>2014-06-28T09:02:38.000Z</time>
      </trkpt>
      <trkpt lat="46.32658" lon="6.00134">
        <ele>1581</ele>
        <time>2014-06-28T09:02:41.000Z</time>
      </trkpt>
      <trkpt lat="46.32655" lon="6.00135">
        <ele>1581</ele>
        <time>2014-06-28T09:02:45.000Z</time>
      </trkpt>
      <trkpt lat="46.3265" lon="6.00138">
        <ele>1580</ele>
        <time>2014-06-28T09:02:51.000Z</time>
      </trkpt>
      <trkpt lat="46.32646" lon="6.00143">
        <ele>1580</ele>
        <time>2014-06-28T09:02:57.000Z</time>
      </trkpt>
      <trkpt lat="46.32646" lon="6.00143">
        <ele>1580</ele>
        <time>2014-06-28T09:03:09.000Z</time>
      </trkpt>
      <trkpt lat="46.32647" lon="6.00144">
        <ele>1580</ele>
        <time>2014-06-28T09:03:25.000Z</time>
      </trkpt>
      <trkpt lat="46.32646" lon="6.00144">
        <ele>1580</ele>
        <time>2014-06-28T09:03:38.000Z</time>
      </trkpt>
      <trkpt lat="46.32646" lon="6.00143">
        <ele>1580</ele>
        <time>2014-06-28T09:04:03.000Z</time>
      </trkpt>
      <trkpt lat="46.32646" lon="6.00142">
        <ele>1580</ele>
        <time>2014-06-28T09:04:16.000Z</time>
      </trkpt>
      <trkpt lat="46.32643" lon="6.00144">
        <ele>1579</ele>
        <time>2014-06-28T09:04:21.000Z</time>
      </trkpt>
      <trkpt lat="46.32642" lon="6.00146">
        <ele>1579</ele>
        <time>2014-06-28T09:04:22.000Z</time>
      </trkpt>
      <trkpt lat="46.32635" lon="6.00151">
        <ele>1579</ele>
        <time>2014-06-28T09:04:27.000Z</time>
      </trkpt>
      <trkpt lat="46.32627" lon="6.00153">
        <ele>1578</ele>
        <time>2014-06-28T09:04:32.000Z</time>
      </trkpt>
      <trkpt lat="46.32609" lon="6.00152">
        <ele>1576</ele>
        <time>2014-06-28T09:04:43.000Z</time>
      </trkpt>
      <trkpt lat="46.32597" lon="6.00151">
        <ele>1574</ele>
        <time>2014-06-28T09:04:50.000Z</time>
      </trkpt>
      <trkpt lat="46.32582" lon="6.00144">
        <ele>1573</ele>
        <time>2014-06-28T09:05:02.000Z</time>
      </trkpt>
      <trkpt lat="46.32581" lon="6.00143">
        <ele>1573</ele>
        <time>2014-06-28T09:05:03.000Z</time>
      </trkpt>
      <trkpt lat="46.32577" lon="6.00142">
        <ele>1573</ele>
        <time>2014-06-28T09:05:07.000Z</time>
      </trkpt>
      <trkpt lat="46.32572" lon="6.00139">
        <ele>1574</ele>
        <time>2014-06-28T09:05:11.000Z</time>
      </trkpt>
      <trkpt lat="46.32569" lon="6.00136">
        <ele>1575</ele>
        <time>2014-06-28T09:05:14.000Z</time>
      </trkpt>
      <trkpt lat="46.32566" lon="6.00135">
        <ele>1575</ele>
        <time>2014-06-28T09:05:17.000Z</time>
      </trkpt>
      <trkpt lat="46.32563" lon="6.00132">
        <ele>1576</ele>
        <time>2014-06-28T09:05:21.000Z</time>
      </trkpt>
      <trkpt lat="46.32562" lon="6.00132">
        <ele>1576</ele>
        <time>2014-06-28T09:05:22.000Z</time>
      </trkpt>
      <trkpt lat="46.32555" lon="6.00128">
        <ele>1576</ele>
        <time>2014-06-28T09:05:28.000Z</time>
      </trkpt>
      <trkpt lat="46.3255" lon="6.00126">
        <ele>1577</ele>
        <time>2014-06-28T09:05:32.000Z</time>
      </trkpt>
      <trkpt lat="46.32547" lon="6.00126">
        <ele>1577</ele>
        <time>2014-06-28T09:05:36.000Z</time>
      </trkpt>
      <trkpt lat="46.32541" lon="6.00124">
        <ele>1577</ele>
        <time>2014-06-28T09:05:43.000Z</time>
      </trkpt>
      <trkpt lat="46.32539" lon="6.00125">
        <ele>1577</ele>
        <time>2014-06-28T09:05:45.000Z</time>
      </trkpt>
      <trkpt lat="46.32534" lon="6.00124">
        <ele>1577</ele>
        <time>2014-06-28T09:05:51.000Z</time>
      </trkpt>
      <trkpt lat="46.32532" lon="6.00124">
        <ele>1577</ele>
        <time>2014-06-28T09:05:53.000Z</time>
      </trkpt>
      <trkpt lat="46.32529" lon="6.00124">
        <ele>1577</ele>
        <time>2014-06-28T09:05:56.000Z</time>
      </trkpt>
      <trkpt lat="46.32526" lon="6.00124">
        <ele>1577</ele>
        <time>2014-06-28T09:06:01.000Z</time>
      </trkpt>
      <trkpt lat="46.32516" lon="6.00124">
        <ele>1577</ele>
        <time>2014-06-28T09:06:10.000Z</time>
      </trkpt>
      <trkpt lat="46.32508" lon="6.00121">
        <ele>1578</ele>
        <time>2014-06-28T09:06:23.000Z</time>
      </trkpt>
      <trkpt lat="46.32505" lon="6.00118">
        <ele>1579</ele>
        <time>2014-06-28T09:06:26.000Z</time>
      </trkpt>
      <trkpt lat="46.32492" lon="6.00103">
        <ele>1584</ele>
        <time>2014-06-28T09:06:38.000Z</time>
      </trkpt>
      <trkpt lat="46.32486" lon="6.00099">
        <ele>1584</ele>
        <time>2014-06-28T09:06:44.000Z</time>
      </trkpt>
      <trkpt lat="46.32481" lon="6.00093">
        <ele>1585</ele>
        <time>2014-06-28T09:06:53.000Z</time>
      </trkpt>
      <trkpt lat="46.3247" lon="6.00083">
        <ele>1598</ele>
        <time>2014-06-28T09:07:03.000Z</time>
      </trkpt>
      <trkpt lat="46.32468" lon="6.00075">
        <ele>1598</ele>
        <time>2014-06-28T09:07:08.000Z</time>
      </trkpt>
      <trkpt lat="46.32467" lon="6.00071">
        <ele>1598</ele>
        <time>2014-06-28T09:07:10.000Z</time>
      </trkpt>
      <trkpt lat="46.32464" lon="6.0004">
        <ele>1601</ele>
        <time>2014-06-28T09:07:26.000Z</time>
      </trkpt>
      <trkpt lat="46.32463" lon="6.00036">
        <ele>1601</ele>
        <time>2014-06-28T09:07:28.000Z</time>
      </trkpt>
      <trkpt lat="46.32463" lon="6.00033">
        <ele>1601</ele>
        <time>2014-06-28T09:07:31.000Z</time>
      </trkpt>
      <trkpt lat="46.32463" lon="6.00029">
        <ele>1602</ele>
        <time>2014-06-28T09:07:35.000Z</time>
      </trkpt>
      <trkpt lat="46.3246" lon="6.00006">
        <ele>1603</ele>
        <time>2014-06-28T09:07:47.000Z</time>
      </trkpt>
      <trkpt lat="46.32459" lon="5.9999">
        <ele>1609</ele>
        <time>2014-06-28T09:07:54.000Z</time>
      </trkpt>
      <trkpt lat="46.32458" lon="5.99986">
        <ele>1609</ele>
        <time>2014-06-28T09:07:56.000Z</time>
      </trkpt>
      <trkpt lat="46.32454" lon="5.99963">
        <ele>1609</ele>
        <time>2014-06-28T09:08:07.000Z</time>
      </trkpt>
      <trkpt lat="46.3245" lon="5.99943">
        <ele>1610</ele>
        <time>2014-06-28T09:08:17.000Z</time>
      </trkpt>
      <trkpt lat="46.32445" lon="5.99915">
        <ele>1611</ele>
        <time>2014-06-28T09:08:31.000Z</time>
      </trkpt>
      <trkpt lat="46.32441" lon="5.99891">
        <ele>1611</ele>
        <time>2014-06-28T09:08:43.000Z</time>
      </trkpt>
      <trkpt lat="46.32438" lon="5.99863">
        <ele>1612</ele>
        <time>2014-06-28T09:08:56.000Z</time>
      </trkpt>
      <trkpt lat="46.32433" lon="5.99838">
        <ele>1612</ele>
        <time>2014-06-28T09:09:10.000Z</time>
      </trkpt>
      <trkpt lat="46.32431" lon="5.99831">
        <ele>1612</ele>
        <time>2014-06-28T09:09:26.000Z</time>
      </trkpt>
      <trkpt lat="46.32431" lon="5.99831">
        <ele>1612</ele>
        <time>2014-06-28T09:10:10.000Z</time>
      </trkpt>
      <trkpt lat="46.32433" lon="5.99832">
        <ele>1612</ele>
        <time>2014-06-28T09:11:21.000Z</time>
      </trkpt>
      <trkpt lat="46.32434" lon="5.99837">
        <ele>1612</ele>
        <time>2014-06-28T09:12:51.000Z</time>
      </trkpt>
      <trkpt lat="46.32434" lon="5.99833">
        <ele>1612</ele>
        <time>2014-06-28T09:15:44.000Z</time>
      </trkpt>
      <trkpt lat="46.32437" lon="5.99834">
        <ele>1612</ele>
        <time>2014-06-28T09:17:33.000Z</time>
      </trkpt>
      <trkpt lat="46.32434" lon="5.99832">
        <ele>1612</ele>
        <time>2014-06-28T09:17:48.000Z</time>
      </trkpt>
      <trkpt lat="46.32433" lon="5.9983">
        <ele>1612</ele>
        <time>2014-06-28T09:17:56.000Z</time>
      </trkpt>
      <trkpt lat="46.32428" lon="5.99825">
        <ele>1612</ele>
        <time>2014-06-28T09:18:01.000Z</time>
      </trkpt>
      <trkpt lat="46.32426" lon="5.99822">
        <ele>1612</ele>
        <time>2014-06-28T09:18:03.000Z</time>
      </trkpt>
      <trkpt lat="46.32415" lon="5.99806">
        <ele>1617</ele>
        <time>2014-06-28T09:18:18.000Z</time>
      </trkpt>
      <trkpt lat="46.32408" lon="5.99795">
        <ele>1618</ele>
        <time>2014-06-28T09:18:33.000Z</time>
      </trkpt>
      <trkpt lat="46.32408" lon="5.99793">
        <ele>1618</ele>
        <time>2014-06-28T09:18:37.000Z</time>
      </trkpt>
      <trkpt lat="46.32399" lon="5.99782">
        <ele>1618</ele>
        <time>2014-06-28T09:18:51.000Z</time>
      </trkpt>
      <trkpt lat="46.32396" lon="5.99772">
        <ele>1619</ele>
        <time>2014-06-28T09:19:00.000Z</time>
      </trkpt>
      <trkpt lat="46.32396" lon="5.99763">
        <ele>1618</ele>
        <time>2014-06-28T09:19:06.000Z</time>
      </trkpt>
      <trkpt lat="46.32394" lon="5.99761">
        <ele>1618</ele>
        <time>2014-06-28T09:19:08.000Z</time>
      </trkpt>
      <trkpt lat="46.32393" lon="5.99749">
        <ele>1621</ele>
        <time>2014-06-28T09:19:16.000Z</time>
      </trkpt>
      <trkpt lat="46.32387" lon="5.99745">
        <ele>1623</ele>
        <time>2014-06-28T09:19:28.000Z</time>
      </trkpt>
      <trkpt lat="46.32381" lon="5.99747">
        <ele>1624</ele>
        <time>2014-06-28T09:19:38.000Z</time>
      </trkpt>
      <trkpt lat="46.32375" lon="5.99744">
        <ele>1625</ele>
        <time>2014-06-28T09:19:49.000Z</time>
      </trkpt>
      <trkpt lat="46.32373" lon="5.99739">
        <ele>1626</ele>
        <time>2014-06-28T09:19:59.000Z</time>
      </trkpt>
      <trkpt lat="46.32372" lon="5.99735">
        <ele>1626</ele>
        <time>2014-06-28T09:20:04.000Z</time>
      </trkpt>
      <trkpt lat="46.32368" lon="5.99727">
        <ele>1627</ele>
        <time>2014-06-28T09:20:16.000Z</time>
      </trkpt>
      <trkpt lat="46.32366" lon="5.99727">
        <ele>1627</ele>
        <time>2014-06-28T09:20:28.000Z</time>
      </trkpt>
      <trkpt lat="46.32362" lon="5.99722">
        <ele>1628</ele>
        <time>2014-06-28T09:20:39.000Z</time>
      </trkpt>
      <trkpt lat="46.32356" lon="5.99719">
        <ele>1629</ele>
        <time>2014-06-28T09:20:49.000Z</time>
      </trkpt>
      <trkpt lat="46.32353" lon="5.99716">
        <ele>1629</ele>
        <time>2014-06-28T09:20:54.000Z</time>
      </trkpt>
      <trkpt lat="46.3235" lon="5.9971">
        <ele>1630</ele>
        <time>2014-06-28T09:21:06.000Z</time>
      </trkpt>
      <trkpt lat="46.32344" lon="5.99704">
        <ele>1631</ele>
        <time>2014-06-28T09:21:16.000Z</time>
      </trkpt>
      <trkpt lat="46.32343" lon="5.99703">
        <ele>1631</ele>
        <time>2014-06-28T09:21:18.000Z</time>
      </trkpt>
      <trkpt lat="46.32339" lon="5.99699">
        <ele>1632</ele>
        <time>2014-06-28T09:21:25.000Z</time>
      </trkpt>
      <trkpt lat="46.32333" lon="5.99693">
        <ele>1643</ele>
        <time>2014-06-28T09:21:35.000Z</time>
      </trkpt>
      <trkpt lat="46.32328" lon="5.99683">
        <ele>1644</ele>
        <time>2014-06-28T09:21:47.000Z</time>
      </trkpt>
      <trkpt lat="46.32327" lon="5.99681">
        <ele>1644</ele>
        <time>2014-06-28T09:21:49.000Z</time>
      </trkpt>
      <trkpt lat="46.32325" lon="5.99679">
        <ele>1644</ele>
        <time>2014-06-28T09:21:52.000Z</time>
      </trkpt>
      <trkpt lat="46.32318" lon="5.99671">
        <ele>1644</ele>
        <time>2014-06-28T09:22:04.000Z</time>
      </trkpt>
      <trkpt lat="46.32314" lon="5.99662">
        <ele>1651</ele>
        <time>2014-06-28T09:22:12.000Z</time>
      </trkpt>
      <trkpt lat="46.32314" lon="5.9966">
        <ele>1651</ele>
        <time>2014-06-28T09:22:13.000Z</time>
      </trkpt>
      <trkpt lat="46.32308" lon="5.9965">
        <ele>1653</ele>
        <time>2014-06-28T09:22:24.000Z</time>
      </trkpt>
      <trkpt lat="46.32301" lon="5.99637">
        <ele>1655</ele>
        <time>2014-06-28T09:22:34.000Z</time>
      </trkpt>
      <trkpt lat="46.32299" lon="5.99634">
        <ele>1655</ele>
        <time>2014-06-28T09:22:36.000Z</time>
      </trkpt>
      <trkpt lat="46.32294" lon="5.99625">
        <ele>1656</ele>
        <time>2014-06-28T09:22:46.000Z</time>
      </trkpt>
      <trkpt lat="46.32288" lon="5.99609">
        <ele>1658</ele>
        <time>2014-06-28T09:22:59.000Z</time>
      </trkpt>
      <trkpt lat="46.32283" lon="5.99599">
        <ele>1659</ele>
        <time>2014-06-28T09:23:08.000Z</time>
      </trkpt>
      <trkpt lat="46.32282" lon="5.99598">
        <ele>1660</ele>
        <time>2014-06-28T09:23:09.000Z</time>
      </trkpt>
      <trkpt lat="46.32282" lon="5.99597">
        <ele>1660</ele>
        <time>2014-06-28T09:23:10.000Z</time>
      </trkpt>
      <trkpt lat="46.32278" lon="5.99588">
        <ele>1661</ele>
        <time>2014-06-28T09:23:19.000Z</time>
      </trkpt>
      <trkpt lat="46.32271" lon="5.99577">
        <ele>1668</ele>
        <time>2014-06-28T09:23:31.000Z</time>
      </trkpt>
      <trkpt lat="46.32265" lon="5.99565">
        <ele>1669</ele>
        <time>2014-06-28T09:23:42.000Z</time>
      </trkpt>
      <trkpt lat="46.32261" lon="5.99553">
        <ele>1669</ele>
        <time>2014-06-28T09:23:53.000Z</time>
      </trkpt>
      <trkpt lat="46.32259" lon="5.9955">
        <ele>1669</ele>
        <time>2014-06-28T09:23:57.000Z</time>
      </trkpt>
      <trkpt lat="46.32253" lon="5.99539">
        <ele>1670</ele>
        <time>2014-06-28T09:24:07.000Z</time>
      </trkpt>
      <trkpt lat="46.32248" lon="5.99532">
        <ele>1672</ele>
        <time>2014-06-28T09:24:15.000Z</time>
      </trkpt>
      <trkpt lat="46.32244" lon="5.9953">
        <ele>1672</ele>
        <time>2014-06-28T09:24:19.000Z</time>
      </trkpt>
      <trkpt lat="46.32232" lon="5.99535">
        <ele>1671</ele>
        <time>2014-06-28T09:24:32.000Z</time>
      </trkpt>
      <trkpt lat="46.32229" lon="5.99535">
        <ele>1671</ele>
        <time>2014-06-28T09:24:37.000Z</time>
      </trkpt>
      <trkpt lat="46.32228" lon="5.99535">
        <ele>1671</ele>
        <time>2014-06-28T09:24:40.000Z</time>
      </trkpt>
      <trkpt lat="46.32227" lon="5.99534">
        <ele>1671</ele>
        <time>2014-06-28T09:24:51.000Z</time>
      </trkpt>
      <trkpt lat="46.32227" lon="5.99534">
        <ele>1671</ele>
        <time>2014-06-28T09:24:52.000Z</time>
      </trkpt>
      <trkpt lat="46.32227" lon="5.99534">
        <ele>1671</ele>
        <time>2014-06-28T09:24:53.000Z</time>
      </trkpt>
      <trkpt lat="46.32227" lon="5.99534">
        <ele>1671</ele>
        <time>2014-06-28T09:24:55.000Z</time>
      </trkpt>
      <trkpt lat="46.32227" lon="5.99534">
        <ele>1671</ele>
        <time>2014-06-28T09:24:56.000Z</time>
      </trkpt>
      <trkpt lat="46.32227" lon="5.99534">
        <ele>1671</ele>
        <time>2014-06-28T09:25:01.000Z</time>
      </trkpt>
      <trkpt lat="46.32227" lon="5.99534">
        <ele>1671</ele>
        <time>2014-06-28T09:25:04.000Z</time>
      </trkpt>
      <trkpt lat="46.32227" lon="5.99534">
        <ele>1671</ele>
        <time>2014-06-28T09:25:06.000Z</time>
      </trkpt>
      <trkpt lat="46.32227" lon="5.99534">
        <ele>1671</ele>
        <time>2014-06-28T09:25:12.000Z</time>
      </trkpt>
      <trkpt lat="46.32227" lon="5.99534">
        <ele>1671</ele>
        <time>2014-06-28T09:25:16.000Z</time>
      </trkpt>
      <trkpt lat="46.32227" lon="5.99534">
        <ele>1671</ele>
        <time>2014-06-28T09:25:24.000Z</time>
      </trkpt>
      <trkpt lat="46.32227" lon="5.99534">
        <ele>1671</ele>
        <time>2014-06-28T09:25:25.000Z</time>
      </trkpt>
      <trkpt lat="46.32227" lon="5.99534">
        <ele>1671</ele>
        <time>2014-06-28T09:25:26.000Z</time>
      </trkpt>
      <trkpt lat="46.32227" lon="5.99534">
        <ele>1671</ele>
        <time>2014-06-28T09:25:29.000Z</time>
      </trkpt>
      <trkpt lat="46.32227" lon="5.99534">
        <ele>1671</ele>
        <time>2014-06-28T09:25:30.000Z</time>
      </trkpt>
      <trkpt lat="46.32229" lon="5.99534">
        <ele>1671</ele>
        <time>2014-06-28T09:25:36.000Z</time>
      </trkpt>
      <trkpt lat="46.32229" lon="5.99534">
        <ele>1671</ele>
        <time>2014-06-28T09:25:43.000Z</time>
      </trkpt>
      <trkpt lat="46.3223" lon="5.99535">
        <ele>1671</ele>
        <time>2014-06-28T09:25:58.000Z</time>
      </trkpt>
      <trkpt lat="46.3223" lon="5.99535">
        <ele>1671</ele>
        <time>2014-06-28T09:26:13.000Z</time>
      </trkpt>
      <trkpt lat="46.3223" lon="5.99535">
        <ele>1671</ele>
        <time>2014-06-28T09:26:28.000Z</time>
      </trkpt>
      <trkpt lat="46.3223" lon="5.99535">
        <ele>1671</ele>
        <time>2014-06-28T09:26:35.000Z</time>
      </trkpt>
      <trkpt lat="46.3223" lon="5.99535">
        <ele>1671</ele>
        <time>2014-06-28T09:26:37.000Z</time>
      </trkpt>
      <trkpt lat="46.32234" lon="5.99531">
        <ele>1671</ele>
        <time>2014-06-28T09:26:41.000Z</time>
      </trkpt>
      <trkpt lat="46.32235" lon="5.99528">
        <ele>1672</ele>
        <time>2014-06-28T09:26:43.000Z</time>
      </trkpt>
      <trkpt lat="46.32237" lon="5.99526">
        <ele>1672</ele>
        <time>2014-06-28T09:26:47.000Z</time>
      </trkpt>
      <trkpt lat="46.32238" lon="5.99529">
        <ele>1672</ele>
        <time>2014-06-28T09:26:56.000Z</time>
      </trkpt>
      <trkpt lat="46.32241" lon="5.99531">
        <ele>1672</ele>
        <time>2014-06-28T09:26:59.000Z</time>
      </trkpt>
      <trkpt lat="46.32243" lon="5.99531">
        <ele>1672</ele>
        <time>2014-06-28T09:27:00.000Z</time>
      </trkpt>
      <trkpt lat="46.32251" lon="5.99541">
        <ele>1670</ele>
        <time>2014-06-28T09:27:11.000Z</time>
      </trkpt>
      <trkpt lat="46.32251" lon="5.99543">
        <ele>1670</ele>
        <time>2014-06-28T09:27:44.000Z</time>
      </trkpt>
      <trkpt lat="46.32251" lon="5.99541">
        <ele>1670</ele>
        <time>2014-06-28T09:28:12.000Z</time>
      </trkpt>
      <trkpt lat="46.32251" lon="5.99541">
        <ele>1670</ele>
        <time>2014-06-28T09:28:36.000Z</time>
      </trkpt>
      <trkpt lat="46.32251" lon="5.99541">
        <ele>1670</ele>
        <time>2014-06-28T09:28:52.000Z</time>
      </trkpt>
      <trkpt lat="46.32251" lon="5.99541">
        <ele>1670</ele>
        <time>2014-06-28T09:28:54.000Z</time>
      </trkpt>
      <trkpt lat="46.32251" lon="5.99541">
        <ele>1670</ele>
        <time>2014-06-28T09:28:56.000Z</time>
      </trkpt>
      <trkpt lat="46.32253" lon="5.99541">
        <ele>1670</ele>
        <time>2014-06-28T09:29:45.000Z</time>
      </trkpt>
      <trkpt lat="46.32254" lon="5.99541">
        <ele>1670</ele>
        <time>2014-06-28T09:30:15.000Z</time>
      </trkpt>
      <trkpt lat="46.32254" lon="5.99541">
        <ele>1670</ele>
        <time>2014-06-28T09:30:50.000Z</time>
      </trkpt>
      <trkpt lat="46.32254" lon="5.99543">
        <ele>1670</ele>
        <time>2014-06-28T09:32:17.000Z</time>
      </trkpt>
      <trkpt lat="46.32253" lon="5.99543">
        <ele>1670</ele>
        <time>2014-06-28T09:33:18.000Z</time>
      </trkpt>
      <trkpt lat="46.32253" lon="5.99543">
        <ele>1670</ele>
        <time>2014-06-28T09:33:23.000Z</time>
      </trkpt>
      <trkpt lat="46.32254" lon="5.99541">
        <ele>1670</ele>
        <time>2014-06-28T09:33:57.000Z</time>
      </trkpt>
      <trkpt lat="46.32254" lon="5.99543">
        <ele>1669</ele>
        <time>2014-06-28T09:36:22.000Z</time>
      </trkpt>
      <trkpt lat="46.32256" lon="5.99544">
        <ele>1669</ele>
        <time>2014-06-28T09:36:43.000Z</time>
      </trkpt>
      <trkpt lat="46.32254" lon="5.99542">
        <ele>1670</ele>
        <time>2014-06-28T09:37:11.000Z</time>
      </trkpt>
      <trkpt lat="46.32254" lon="5.99542">
        <ele>1670</ele>
        <time>2014-06-28T09:37:26.000Z</time>
      </trkpt>
      <trkpt lat="46.32254" lon="5.99542">
        <ele>1670</ele>
        <time>2014-06-28T09:37:33.000Z</time>
      </trkpt>
      <trkpt lat="46.32251" lon="5.99538">
        <ele>1670</ele>
        <time>2014-06-28T09:37:41.000Z</time>
      </trkpt>
      <trkpt lat="46.32251" lon="5.99538">
        <ele>1670</ele>
        <time>2014-06-28T09:37:42.000Z</time>
      </trkpt>
      <trkpt lat="46.32251" lon="5.99538">
        <ele>1670</ele>
        <time>2014-06-28T09:37:55.000Z</time>
      </trkpt>
      <trkpt lat="46.32251" lon="5.99537">
        <ele>1670</ele>
        <time>2014-06-28T09:37:56.000Z</time>
      </trkpt>
      <trkpt lat="46.3225" lon="5.99537">
        <ele>1670</ele>
        <time>2014-06-28T09:37:57.000Z</time>
      </trkpt>
      <trkpt lat="46.3225" lon="5.99536">
        <ele>1670</ele>
        <time>2014-06-28T09:37:58.000Z</time>
      </trkpt>
      <trkpt lat="46.3225" lon="5.99536">
        <ele>1672</ele>
        <time>2014-06-28T09:37:59.000Z</time>
      </trkpt>
      <trkpt lat="46.32249" lon="5.99534">
        <ele>1672</ele>
        <time>2014-06-28T09:38:02.000Z</time>
      </trkpt>
      <trkpt lat="46.32243" lon="5.99526">
        <ele>1672</ele>
        <time>2014-06-28T09:38:12.000Z</time>
      </trkpt>
      <trkpt lat="46.32238" lon="5.99521">
        <ele>1673</ele>
        <time>2014-06-28T09:38:20.000Z</time>
      </trkpt>
      <trkpt lat="46.32236" lon="5.99518">
        <ele>1673</ele>
        <time>2014-06-28T09:38:23.000Z</time>
      </trkpt>
      <trkpt lat="46.32235" lon="5.99516">
        <ele>1673</ele>
        <time>2014-06-28T09:38:25.000Z</time>
      </trkpt>
      <trkpt lat="46.32234" lon="5.99516">
        <ele>1673</ele>
        <time>2014-06-28T09:38:26.000Z</time>
      </trkpt>
      <trkpt lat="46.3223" lon="5.99512">
        <ele>1673</ele>
        <time>2014-06-28T09:38:30.000Z</time>
      </trkpt>
      <trkpt lat="46.32229" lon="5.99512">
        <ele>1673</ele>
        <time>2014-06-28T09:38:32.000Z</time>
      </trkpt>
      <trkpt lat="46.32228" lon="5.99511">
        <ele>1672</ele>
        <time>2014-06-28T09:38:33.000Z</time>
      </trkpt>
      <trkpt lat="46.32224" lon="5.99509">
        <ele>1672</ele>
        <time>2014-06-28T09:38:37.000Z</time>
      </trkpt>
      <trkpt lat="46.32224" lon="5.99508">
        <ele>1672</ele>
        <time>2014-06-28T09:38:38.000Z</time>
      </trkpt>
      <trkpt lat="46.32217" lon="5.99503">
        <ele>1672</ele>
        <time>2014-06-28T09:38:44.000Z</time>
      </trkpt>
      <trkpt lat="46.32214" lon="5.995">
        <ele>1674</ele>
        <time>2014-06-28T09:38:47.000Z</time>
      </trkpt>
      <trkpt lat="46.3221" lon="5.99499">
        <ele>1674</ele>
        <time>2014-06-28T09:38:50.000Z</time>
      </trkpt>
      <trkpt lat="46.32206" lon="5.99499">
        <ele>1673</ele>
        <time>2014-06-28T09:38:53.000Z</time>
      </trkpt>
      <trkpt lat="46.32203" lon="5.99493">
        <ele>1673</ele>
        <time>2014-06-28T09:38:57.000Z</time>
      </trkpt>
      <trkpt lat="46.32202" lon="5.99491">
        <ele>1673</ele>
        <time>2014-06-28T09:38:58.000Z</time>
      </trkpt>
      <trkpt lat="46.322" lon="5.99488">
        <ele>1673</ele>
        <time>2014-06-28T09:39:00.000Z</time>
      </trkpt>
      <trkpt lat="46.32199" lon="5.99486">
        <ele>1673</ele>
        <time>2014-06-28T09:39:01.000Z</time>
      </trkpt>
      <trkpt lat="46.32198" lon="5.99484">
        <ele>1673</ele>
        <time>2014-06-28T09:39:03.000Z</time>
      </trkpt>
      <trkpt lat="46.32197" lon="5.99482">
        <ele>1673</ele>
        <time>2014-06-28T09:39:04.000Z</time>
      </trkpt>
      <trkpt lat="46.32195" lon="5.99477">
        <ele>1673</ele>
        <time>2014-06-28T09:39:07.000Z</time>
      </trkpt>
      <trkpt lat="46.32193" lon="5.99475">
        <ele>1673</ele>
        <time>2014-06-28T09:39:09.000Z</time>
      </trkpt>
      <trkpt lat="46.32191" lon="5.99475">
        <ele>1673</ele>
        <time>2014-06-28T09:39:10.000Z</time>
      </trkpt>
      <trkpt lat="46.3219" lon="5.99473">
        <ele>1673</ele>
        <time>2014-06-28T09:39:12.000Z</time>
      </trkpt>
      <trkpt lat="46.32187" lon="5.9947">
        <ele>1672</ele>
        <time>2014-06-28T09:39:15.000Z</time>
      </trkpt>
      <trkpt lat="46.32185" lon="5.99466">
        <ele>1672</ele>
        <time>2014-06-28T09:39:17.000Z</time>
      </trkpt>
      <trkpt lat="46.32184" lon="5.99465">
        <ele>1672</ele>
        <time>2014-06-28T09:39:18.000Z</time>
      </trkpt>
      <trkpt lat="46.32182" lon="5.99462">
        <ele>1672</ele>
        <time>2014-06-28T09:39:20.000Z</time>
      </trkpt>
      <trkpt lat="46.3218" lon="5.99461">
        <ele>1672</ele>
        <time>2014-06-28T09:39:21.000Z</time>
      </trkpt>
      <trkpt lat="46.3217" lon="5.99455">
        <ele>1672</ele>
        <time>2014-06-28T09:39:28.000Z</time>
      </trkpt>
      <trkpt lat="46.32164" lon="5.99448">
        <ele>1663</ele>
        <time>2014-06-28T09:39:33.000Z</time>
      </trkpt>
      <trkpt lat="46.32158" lon="5.99438">
        <ele>1663</ele>
        <time>2014-06-28T09:39:39.000Z</time>
      </trkpt>
      <trkpt lat="46.32154" lon="5.99432">
        <ele>1664</ele>
        <time>2014-06-28T09:39:42.000Z</time>
      </trkpt>
      <trkpt lat="46.32152" lon="5.99429">
        <ele>1664</ele>
        <time>2014-06-28T09:39:44.000Z</time>
      </trkpt>
      <trkpt lat="46.32146" lon="5.99424">
        <ele>1663</ele>
        <time>2014-06-28T09:39:48.000Z</time>
      </trkpt>
      <trkpt lat="46.32145" lon="5.99423">
        <ele>1663</ele>
        <time>2014-06-28T09:39:49.000Z</time>
      </trkpt>
      <trkpt lat="46.32143" lon="5.9942">
        <ele>1662</ele>
        <time>2014-06-28T09:39:51.000Z</time>
      </trkpt>
      <trkpt lat="46.3214" lon="5.99414">
        <ele>1662</ele>
        <time>2014-06-28T09:39:54.000Z</time>
      </trkpt>
      <trkpt lat="46.32136" lon="5.9941">
        <ele>1661</ele>
        <time>2014-06-28T09:39:57.000Z</time>
      </trkpt>
      <trkpt lat="46.32134" lon="5.99406">
        <ele>1660</ele>
        <time>2014-06-28T09:39:59.000Z</time>
      </trkpt>
      <trkpt lat="46.32122" lon="5.99393">
        <ele>1658</ele>
        <time>2014-06-28T09:40:11.000Z</time>
      </trkpt>
      <trkpt lat="46.32117" lon="5.99387">
        <ele>1657</ele>
        <time>2014-06-28T09:40:15.000Z</time>
      </trkpt>
      <trkpt lat="46.32114" lon="5.99384">
        <ele>1657</ele>
        <time>2014-06-28T09:40:17.000Z</time>
      </trkpt>
      <trkpt lat="46.32113" lon="5.99384">
        <ele>1657</ele>
        <time>2014-06-28T09:40:18.000Z</time>
      </trkpt>
      <trkpt lat="46.32104" lon="5.99375">
        <ele>1656</ele>
        <time>2014-06-28T09:40:27.000Z</time>
      </trkpt>
      <trkpt lat="46.32104" lon="5.99374">
        <ele>1656</ele>
        <time>2014-06-28T09:40:29.000Z</time>
      </trkpt>
      <trkpt lat="46.32103" lon="5.99373">
        <ele>1655</ele>
        <time>2014-06-28T09:40:31.000Z</time>
      </trkpt>
      <trkpt lat="46.32101" lon="5.99371">
        <ele>1655</ele>
        <time>2014-06-28T09:40:33.000Z</time>
      </trkpt>
      <trkpt lat="46.32099" lon="5.9937">
        <ele>1655</ele>
        <time>2014-06-28T09:40:35.000Z</time>
      </trkpt>
      <trkpt lat="46.32089" lon="5.99367">
        <ele>1654</ele>
        <time>2014-06-28T09:40:48.000Z</time>
      </trkpt>
      <trkpt lat="46.32084" lon="5.99363">
        <ele>1653</ele>
        <time>2014-06-28T09:40:55.000Z</time>
      </trkpt>
      <trkpt lat="46.32079" lon="5.99359">
        <ele>1641</ele>
        <time>2014-06-28T09:41:04.000Z</time>
      </trkpt>
      <trkpt lat="46.32075" lon="5.99357">
        <ele>1641</ele>
        <time>2014-06-28T09:41:10.000Z</time>
      </trkpt>
      <trkpt lat="46.32067" lon="5.99349">
        <ele>1641</ele>
        <time>2014-06-28T09:41:21.000Z</time>
      </trkpt>
      <trkpt lat="46.32066" lon="5.99348">
        <ele>1640</ele>
        <time>2014-06-28T09:41:23.000Z</time>
      </trkpt>
      <trkpt lat="46.32063" lon="5.99342">
        <ele>1640</ele>
        <time>2014-06-28T09:41:28.000Z</time>
      </trkpt>
      <trkpt lat="46.32059" lon="5.99321">
        <ele>1639</ele>
        <time>2014-06-28T09:41:40.000Z</time>
      </trkpt>
      <trkpt lat="46.3205" lon="5.99301">
        <ele>1637</ele>
        <time>2014-06-28T09:41:50.000Z</time>
      </trkpt>
      <trkpt lat="46.32045" lon="5.99295">
        <ele>1636</ele>
        <time>2014-06-28T09:41:55.000Z</time>
      </trkpt>
      <trkpt lat="46.32045" lon="5.99294">
        <ele>1636</ele>
        <time>2014-06-28T09:41:56.000Z</time>
      </trkpt>
      <trkpt lat="46.3204" lon="5.99289">
        <ele>1636</ele>
        <time>2014-06-28T09:42:00.000Z</time>
      </trkpt>
      <trkpt lat="46.32036" lon="5.99284">
        <ele>1635</ele>
        <time>2014-06-28T09:42:03.000Z</time>
      </trkpt>
      <trkpt lat="46.32021" lon="5.99268">
        <ele>1633</ele>
        <time>2014-06-28T09:42:15.000Z</time>
      </trkpt>
      <trkpt lat="46.32019" lon="5.99268">
        <ele>1633</ele>
        <time>2014-06-28T09:42:16.000Z</time>
      </trkpt>
      <trkpt lat="46.32016" lon="5.99266">
        <ele>1633</ele>
        <time>2014-06-28T09:42:18.000Z</time>
      </trkpt>
      <trkpt lat="46.32005" lon="5.99257">
        <ele>1631</ele>
        <time>2014-06-28T09:42:25.000Z</time>
      </trkpt>
      <trkpt lat="46.31992" lon="5.99246">
        <ele>1628</ele>
        <time>2014-06-28T09:42:36.000Z</time>
      </trkpt>
      <trkpt lat="46.31989" lon="5.99244">
        <ele>1628</ele>
        <time>2014-06-28T09:42:38.000Z</time>
      </trkpt>
      <trkpt lat="46.31987" lon="5.99241">
        <ele>1628</ele>
        <time>2014-06-28T09:42:40.000Z</time>
      </trkpt>
      <trkpt lat="46.31982" lon="5.99237">
        <ele>1628</ele>
        <time>2014-06-28T09:42:45.000Z</time>
      </trkpt>
      <trkpt lat="46.31978" lon="5.99234">
        <ele>1627</ele>
        <time>2014-06-28T09:42:50.000Z</time>
      </trkpt>
      <trkpt lat="46.31973" lon="5.99228">
        <ele>1627</ele>
        <time>2014-06-28T09:42:55.000Z</time>
      </trkpt>
      <trkpt lat="46.31969" lon="5.99223">
        <ele>1627</ele>
        <time>2014-06-28T09:43:00.000Z</time>
      </trkpt>
      <trkpt lat="46.31963" lon="5.99221">
        <ele>1627</ele>
        <time>2014-06-28T09:43:06.000Z</time>
      </trkpt>
      <trkpt lat="46.31961" lon="5.99218">
        <ele>1627</ele>
        <time>2014-06-28T09:43:08.000Z</time>
      </trkpt>
      <trkpt lat="46.31953" lon="5.99209">
        <ele>1627</ele>
        <time>2014-06-28T09:43:18.000Z</time>
      </trkpt>
      <trkpt lat="46.3195" lon="5.99205">
        <ele>1627</ele>
        <time>2014-06-28T09:43:22.000Z</time>
      </trkpt>
      <trkpt lat="46.31942" lon="5.99193">
        <ele>1627</ele>
        <time>2014-06-28T09:43:33.000Z</time>
      </trkpt>
      <trkpt lat="46.31934" lon="5.9918">
        <ele>1628</ele>
        <time>2014-06-28T09:43:45.000Z</time>
      </trkpt>
      <trkpt lat="46.31926" lon="5.99172">
        <ele>1629</ele>
        <time>2014-06-28T09:43:54.000Z</time>
      </trkpt>
      <trkpt lat="46.31923" lon="5.99163">
        <ele>1630</ele>
        <time>2014-06-28T09:44:01.000Z</time>
      </trkpt>
      <trkpt lat="46.31921" lon="5.99155">
        <ele>1630</ele>
        <time>2014-06-28T09:44:06.000Z</time>
      </trkpt>
      <trkpt lat="46.31919" lon="5.99155">
        <ele>1630</ele>
        <time>2014-06-28T09:44:08.000Z</time>
      </trkpt>
      <trkpt lat="46.31917" lon="5.9915">
        <ele>1631</ele>
        <time>2014-06-28T09:44:13.000Z</time>
      </trkpt>
      <trkpt lat="46.31912" lon="5.99136">
        <ele>1635</ele>
        <time>2014-06-28T09:44:23.000Z</time>
      </trkpt>
      <trkpt lat="46.3191" lon="5.99133">
        <ele>1636</ele>
        <time>2014-06-28T09:44:26.000Z</time>
      </trkpt>
      <trkpt lat="46.31909" lon="5.9913">
        <ele>1636</ele>
        <time>2014-06-28T09:44:28.000Z</time>
      </trkpt>
      <trkpt lat="46.31905" lon="5.99128">
        <ele>1636</ele>
        <time>2014-06-28T09:44:32.000Z</time>
      </trkpt>
      <trkpt lat="46.31902" lon="5.99126">
        <ele>1636</ele>
        <time>2014-06-28T09:44:35.000Z</time>
      </trkpt>
      <trkpt lat="46.31897" lon="5.99119">
        <ele>1637</ele>
        <time>2014-06-28T09:44:42.000Z</time>
      </trkpt>
      <trkpt lat="46.31892" lon="5.99113">
        <ele>1638</ele>
        <time>2014-06-28T09:44:49.000Z</time>
      </trkpt>
      <trkpt lat="46.31882" lon="5.99107">
        <ele>1638</ele>
        <time>2014-06-28T09:45:00.000Z</time>
      </trkpt>
      <trkpt lat="46.31871" lon="5.99097">
        <ele>1639</ele>
        <time>2014-06-28T09:45:11.000Z</time>
      </trkpt>
      <trkpt lat="46.31864" lon="5.99088">
        <ele>1641</ele>
        <time>2014-06-28T09:45:19.000Z</time>
      </trkpt>
      <trkpt lat="46.31861" lon="5.99087">
        <ele>1641</ele>
        <time>2014-06-28T09:45:22.000Z</time>
      </trkpt>
      <trkpt lat="46.31858" lon="5.99083">
        <ele>1646</ele>
        <time>2014-06-28T09:45:26.000Z</time>
      </trkpt>
      <trkpt lat="46.31857" lon="5.99081">
        <ele>1646</ele>
        <time>2014-06-28T09:45:28.000Z</time>
      </trkpt>
      <trkpt lat="46.3185" lon="5.99074">
        <ele>1646</ele>
        <time>2014-06-28T09:45:38.000Z</time>
      </trkpt>
      <trkpt lat="46.31847" lon="5.99065">
        <ele>1647</ele>
        <time>2014-06-28T09:45:48.000Z</time>
      </trkpt>
      <trkpt lat="46.31839" lon="5.99058">
        <ele>1647</ele>
        <time>2014-06-28T09:46:00.000Z</time>
      </trkpt>
      <trkpt lat="46.31838" lon="5.99057">
        <ele>1647</ele>
        <time>2014-06-28T09:46:01.000Z</time>
      </trkpt>
      <trkpt lat="46.31835" lon="5.99046">
        <ele>1647</ele>
        <time>2014-06-28T09:46:09.000Z</time>
      </trkpt>
      <trkpt lat="46.31829" lon="5.99038">
        <ele>1654</ele>
        <time>2014-06-28T09:46:19.000Z</time>
      </trkpt>
      <trkpt lat="46.31827" lon="5.99036">
        <ele>1654</ele>
        <time>2014-06-28T09:46:22.000Z</time>
      </trkpt>
      <trkpt lat="46.31826" lon="5.99034">
        <ele>1654</ele>
        <time>2014-06-28T09:46:24.000Z</time>
      </trkpt>
      <trkpt lat="46.31816" lon="5.99023">
        <ele>1655</ele>
        <time>2014-06-28T09:46:36.000Z</time>
      </trkpt>
      <trkpt lat="46.31806" lon="5.99017">
        <ele>1655</ele>
        <time>2014-06-28T09:46:48.000Z</time>
      </trkpt>
      <trkpt lat="46.31802" lon="5.99016">
        <ele>1656</ele>
        <time>2014-06-28T09:46:57.000Z</time>
      </trkpt>
      <trkpt lat="46.31791" lon="5.99012">
        <ele>1656</ele>
        <time>2014-06-28T09:47:09.000Z</time>
      </trkpt>
      <trkpt lat="46.31791" lon="5.99011">
        <ele>1656</ele>
        <time>2014-06-28T09:47:10.000Z</time>
      </trkpt>
      <trkpt lat="46.31786" lon="5.99012">
        <ele>1657</ele>
        <time>2014-06-28T09:47:15.000Z</time>
      </trkpt>
      <trkpt lat="46.31775" lon="5.99004">
        <ele>1658</ele>
        <time>2014-06-28T09:47:25.000Z</time>
      </trkpt>
      <trkpt lat="46.31762" lon="5.98998">
        <ele>1660</ele>
        <time>2014-06-28T09:47:37.000Z</time>
      </trkpt>
      <trkpt lat="46.31749" lon="5.98982">
        <ele>1663</ele>
        <time>2014-06-28T09:47:50.000Z</time>
      </trkpt>
      <trkpt lat="46.31746" lon="5.98981">
        <ele>1663</ele>
        <time>2014-06-28T09:47:53.000Z</time>
      </trkpt>
      <trkpt lat="46.31734" lon="5.98975">
        <ele>1664</ele>
        <time>2014-06-28T09:48:03.000Z</time>
      </trkpt>
      <trkpt lat="46.31731" lon="5.98972">
        <ele>1664</ele>
        <time>2014-06-28T09:48:06.000Z</time>
      </trkpt>
      <trkpt lat="46.31723" lon="5.98956">
        <ele>1664</ele>
        <time>2014-06-28T09:48:16.000Z</time>
      </trkpt>
      <trkpt lat="46.31718" lon="5.98949">
        <ele>1664</ele>
        <time>2014-06-28T09:48:20.000Z</time>
      </trkpt>
      <trkpt lat="46.31716" lon="5.98947">
        <ele>1664</ele>
        <time>2014-06-28T09:48:22.000Z</time>
      </trkpt>
      <trkpt lat="46.31707" lon="5.98937">
        <ele>1665</ele>
        <time>2014-06-28T09:48:31.000Z</time>
      </trkpt>
      <trkpt lat="46.31701" lon="5.98925">
        <ele>1665</ele>
        <time>2014-06-28T09:48:39.000Z</time>
      </trkpt>
      <trkpt lat="46.31688" lon="5.98906">
        <ele>1662</ele>
        <time>2014-06-28T09:48:53.000Z</time>
      </trkpt>
      <trkpt lat="46.31682" lon="5.98898">
        <ele>1662</ele>
        <time>2014-06-28T09:49:00.000Z</time>
      </trkpt>
      <trkpt lat="46.31682" lon="5.98897">
        <ele>1662</ele>
        <time>2014-06-28T09:49:01.000Z</time>
      </trkpt>
      <trkpt lat="46.31681" lon="5.98895">
        <ele>1662</ele>
        <time>2014-06-28T09:49:19.000Z</time>
      </trkpt>
      <trkpt lat="46.31681" lon="5.98895">
        <ele>1662</ele>
        <time>2014-06-28T09:49:28.000Z</time>
      </trkpt>
      <trkpt lat="46.31681" lon="5.98895">
        <ele>1662</ele>
        <time>2014-06-28T09:49:29.000Z</time>
      </trkpt>
      <trkpt lat="46.31681" lon="5.98895">
        <ele>1662</ele>
        <time>2014-06-28T09:49:31.000Z</time>
      </trkpt>
      <trkpt lat="46.31681" lon="5.98896">
        <ele>1662</ele>
        <time>2014-06-28T09:49:32.000Z</time>
      </trkpt>
      <trkpt lat="46.31681" lon="5.98896">
        <ele>1662</ele>
        <time>2014-06-28T09:49:36.000Z</time>
      </trkpt>
      <trkpt lat="46.3168" lon="5.98896">
        <ele>1662</ele>
        <time>2014-06-28T09:49:37.000Z</time>
      </trkpt>
      <trkpt lat="46.31681" lon="5.98894">
        <ele>1662</ele>
        <time>2014-06-28T09:50:56.000Z</time>
      </trkpt>
      <trkpt lat="46.3168" lon="5.98894">
        <ele>1662</ele>
        <time>2014-06-28T09:51:30.000Z</time>
      </trkpt>
      <trkpt lat="46.3168" lon="5.98894">
        <ele>1662</ele>
        <time>2014-06-28T09:51:34.000Z</time>
      </trkpt>
      <trkpt lat="46.3168" lon="5.98895">
        <ele>1662</ele>
        <time>2014-06-28T09:51:49.000Z</time>
      </trkpt>
      <trkpt lat="46.3168" lon="5.98895">
        <ele>1662</ele>
        <time>2014-06-28T09:52:22.000Z</time>
      </trkpt>
      <trkpt lat="46.3168" lon="5.98895">
        <ele>1662</ele>
        <time>2014-06-28T09:52:23.000Z</time>
      </trkpt>
      <trkpt lat="46.31681" lon="5.98896">
        <ele>1662</ele>
        <time>2014-06-28T09:52:36.000Z</time>
      </trkpt>
      <trkpt lat="46.31681" lon="5.98896">
        <ele>1662</ele>
        <time>2014-06-28T09:53:25.000Z</time>
      </trkpt>
      <trkpt lat="46.31681" lon="5.98896">
        <ele>1662</ele>
        <time>2014-06-28T09:53:37.000Z</time>
      </trkpt>
      <trkpt lat="46.31681" lon="5.98897">
        <ele>1662</ele>
        <time>2014-06-28T09:53:38.000Z</time>
      </trkpt>
      <trkpt lat="46.3168" lon="5.98897">
        <ele>1662</ele>
        <time>2014-06-28T09:53:47.000Z</time>
      </trkpt>
      <trkpt lat="46.3168" lon="5.98897">
        <ele>1662</ele>
        <time>2014-06-28T09:53:48.000Z</time>
      </trkpt>
      <trkpt lat="46.31682" lon="5.98896">
        <ele>1662</ele>
        <time>2014-06-28T09:53:57.000Z</time>
      </trkpt>
      <trkpt lat="46.31682" lon="5.98896">
        <ele>1662</ele>
        <time>2014-06-28T09:54:07.000Z</time>
      </trkpt>
      <trkpt lat="46.31681" lon="5.98895">
        <ele>1662</ele>
        <time>2014-06-28T09:54:09.000Z</time>
      </trkpt>
      <trkpt lat="46.3168" lon="5.98893">
        <ele>1662</ele>
        <time>2014-06-28T09:54:11.000Z</time>
      </trkpt>
      <trkpt lat="46.31668" lon="5.98886">
        <ele>1661</ele>
        <time>2014-06-28T09:54:23.000Z</time>
      </trkpt>
      <trkpt lat="46.31661" lon="5.98881">
        <ele>1658</ele>
        <time>2014-06-28T09:54:34.000Z</time>
      </trkpt>
      <trkpt lat="46.31657" lon="5.98877">
        <ele>1657</ele>
        <time>2014-06-28T09:54:38.000Z</time>
      </trkpt>
      <trkpt lat="46.3165" lon="5.98874">
        <ele>1656</ele>
        <time>2014-06-28T09:54:45.000Z</time>
      </trkpt>
      <trkpt lat="46.31649" lon="5.98874">
        <ele>1656</ele>
        <time>2014-06-28T09:54:46.000Z</time>
      </trkpt>
      <trkpt lat="46.31649" lon="5.98874">
        <ele>1656</ele>
        <time>2014-06-28T09:54:47.000Z</time>
      </trkpt>
      <trkpt lat="46.31644" lon="5.98872">
        <ele>1655</ele>
        <time>2014-06-28T09:54:51.000Z</time>
      </trkpt>
      <trkpt lat="46.31639" lon="5.98869">
        <ele>1655</ele>
        <time>2014-06-28T09:54:56.000Z</time>
      </trkpt>
      <trkpt lat="46.31635" lon="5.98867">
        <ele>1654</ele>
        <time>2014-06-28T09:54:59.000Z</time>
      </trkpt>
      <trkpt lat="46.31634" lon="5.98866">
        <ele>1654</ele>
        <time>2014-06-28T09:55:01.000Z</time>
      </trkpt>
      <trkpt lat="46.31627" lon="5.98864">
        <ele>1653</ele>
        <time>2014-06-28T09:55:10.000Z</time>
      </trkpt>
      <trkpt lat="46.31627" lon="5.98863">
        <ele>1653</ele>
        <time>2014-06-28T09:55:11.000Z</time>
      </trkpt>
      <trkpt lat="46.31624" lon="5.98863">
        <ele>1653</ele>
        <time>2014-06-28T09:55:14.000Z</time>
      </trkpt>
      <trkpt lat="46.31619" lon="5.98861">
        <ele>1652</ele>
        <time>2014-06-28T09:55:21.000Z</time>
      </trkpt>
      <trkpt lat="46.31618" lon="5.9886">
        <ele>1652</ele>
        <time>2014-06-28T09:55:23.000Z</time>
      </trkpt>
      <trkpt lat="46.31616" lon="5.98859">
        <ele>1652</ele>
        <time>2014-06-28T09:55:26.000Z</time>
      </trkpt>
      <trkpt lat="46.31607" lon="5.98856">
        <ele>1651</ele>
        <time>2014-06-28T09:55:39.000Z</time>
      </trkpt>
      <trkpt lat="46.31606" lon="5.98855">
        <ele>1650</ele>
        <time>2014-06-28T09:55:42.000Z</time>
      </trkpt>
      <trkpt lat="46.316" lon="5.98853">
        <ele>1649</ele>
        <time>2014-06-28T09:55:52.000Z</time>
      </trkpt>
      <trkpt lat="46.31597" lon="5.98848">
        <ele>1648</ele>
        <time>2014-06-28T09:56:03.000Z</time>
      </trkpt>
      <trkpt lat="46.31595" lon="5.98846">
        <ele>1647</ele>
        <time>2014-06-28T09:56:06.000Z</time>
      </trkpt>
      <trkpt lat="46.31592" lon="5.98843">
        <ele>1646</ele>
        <time>2014-06-28T09:56:10.000Z</time>
      </trkpt>
      <trkpt lat="46.31588" lon="5.98841">
        <ele>1644</ele>
        <time>2014-06-28T09:56:14.000Z</time>
      </trkpt>
      <trkpt lat="46.3158" lon="5.98835">
        <ele>1639</ele>
        <time>2014-06-28T09:56:21.000Z</time>
      </trkpt>
      <trkpt lat="46.31567" lon="5.98828">
        <ele>1630</ele>
        <time>2014-06-28T09:56:32.000Z</time>
      </trkpt>
      <trkpt lat="46.31566" lon="5.98828">
        <ele>1630</ele>
        <time>2014-06-28T09:56:33.000Z</time>
      </trkpt>
      <trkpt lat="46.31561" lon="5.98825">
        <ele>1628</ele>
        <time>2014-06-28T09:56:36.000Z</time>
      </trkpt>
      <trkpt lat="46.31559" lon="5.98825">
        <ele>1627</ele>
        <time>2014-06-28T09:56:37.000Z</time>
      </trkpt>
      <trkpt lat="46.31554" lon="5.9882">
        <ele>1625</ele>
        <time>2014-06-28T09:56:41.000Z</time>
      </trkpt>
      <trkpt lat="46.31551" lon="5.98816">
        <ele>1624</ele>
        <time>2014-06-28T09:56:43.000Z</time>
      </trkpt>
      <trkpt lat="46.31548" lon="5.98813">
        <ele>1623</ele>
        <time>2014-06-28T09:56:45.000Z</time>
      </trkpt>
      <trkpt lat="46.3154" lon="5.98806">
        <ele>1621</ele>
        <time>2014-06-28T09:56:50.000Z</time>
      </trkpt>
      <trkpt lat="46.31539" lon="5.98804">
        <ele>1621</ele>
        <time>2014-06-28T09:56:51.000Z</time>
      </trkpt>
      <trkpt lat="46.31535" lon="5.98803">
        <ele>1620</ele>
        <time>2014-06-28T09:56:53.000Z</time>
      </trkpt>
      <trkpt lat="46.31531" lon="5.98802">
        <ele>1620</ele>
        <time>2014-06-28T09:56:56.000Z</time>
      </trkpt>
      <trkpt lat="46.31524" lon="5.98798">
        <ele>1619</ele>
        <time>2014-06-28T09:57:00.000Z</time>
      </trkpt>
      <trkpt lat="46.31519" lon="5.98795">
        <ele>1618</ele>
        <time>2014-06-28T09:57:03.000Z</time>
      </trkpt>
      <trkpt lat="46.31509" lon="5.98788">
        <ele>1616</ele>
        <time>2014-06-28T09:57:08.000Z</time>
      </trkpt>
      <trkpt lat="46.31503" lon="5.9878">
        <ele>1615</ele>
        <time>2014-06-28T09:57:12.000Z</time>
      </trkpt>
      <trkpt lat="46.31496" lon="5.9877">
        <ele>1601</ele>
        <time>2014-06-28T09:57:17.000Z</time>
      </trkpt>
      <trkpt lat="46.31491" lon="5.98761">
        <ele>1601</ele>
        <time>2014-06-28T09:57:21.000Z</time>
      </trkpt>
      <trkpt lat="46.3149" lon="5.98759">
        <ele>1601</ele>
        <time>2014-06-28T09:57:22.000Z</time>
      </trkpt>
      <trkpt lat="46.31484" lon="5.98753">
        <ele>1600</ele>
        <time>2014-06-28T09:57:26.000Z</time>
      </trkpt>
      <trkpt lat="46.31474" lon="5.98745">
        <ele>1593</ele>
        <time>2014-06-28T09:57:33.000Z</time>
      </trkpt>
      <trkpt lat="46.31473" lon="5.98741">
        <ele>1592</ele>
        <time>2014-06-28T09:57:35.000Z</time>
      </trkpt>
      <trkpt lat="46.31468" lon="5.98735">
        <ele>1591</ele>
        <time>2014-06-28T09:57:41.000Z</time>
      </trkpt>
      <trkpt lat="46.31466" lon="5.9873">
        <ele>1590</ele>
        <time>2014-06-28T09:57:44.000Z</time>
      </trkpt>
      <trkpt lat="46.31466" lon="5.98727">
        <ele>1590</ele>
        <time>2014-06-28T09:57:45.000Z</time>
      </trkpt>
      <trkpt lat="46.31465" lon="5.98723">
        <ele>1589</ele>
        <time>2014-06-28T09:57:47.000Z</time>
      </trkpt>
      <trkpt lat="46.31463" lon="5.98718">
        <ele>1589</ele>
        <time>2014-06-28T09:57:50.000Z</time>
      </trkpt>
      <trkpt lat="46.31451" lon="5.98702">
        <ele>1586</ele>
        <time>2014-06-28T09:58:01.000Z</time>
      </trkpt>
      <trkpt lat="46.31447" lon="5.98697">
        <ele>1586</ele>
        <time>2014-06-28T09:58:05.000Z</time>
      </trkpt>
      <trkpt lat="46.31438" lon="5.98684">
        <ele>1584</ele>
        <time>2014-06-28T09:58:14.000Z</time>
      </trkpt>
      <trkpt lat="46.31434" lon="5.9868">
        <ele>1583</ele>
        <time>2014-06-28T09:58:18.000Z</time>
      </trkpt>
      <trkpt lat="46.31424" lon="5.98666">
        <ele>1577</ele>
        <time>2014-06-28T09:58:28.000Z</time>
      </trkpt>
      <trkpt lat="46.31417" lon="5.9866">
        <ele>1577</ele>
        <time>2014-06-28T09:58:34.000Z</time>
      </trkpt>
      <trkpt lat="46.31417" lon="5.98657">
        <ele>1577</ele>
        <time>2014-06-28T09:58:49.000Z</time>
      </trkpt>
      <trkpt lat="46.31417" lon="5.98654">
        <ele>1577</ele>
        <time>2014-06-28T10:01:56.000Z</time>
      </trkpt>
      <trkpt lat="46.31416" lon="5.9866">
        <ele>1575</ele>
        <time>2014-06-28T10:16:00.000Z</time>
      </trkpt>
      <trkpt lat="46.31415" lon="5.98659">
        <ele>1575</ele>
        <time>2014-06-28T10:18:01.000Z</time>
      </trkpt>
      <trkpt lat="46.31415" lon="5.98659">
        <ele>1575</ele>
        <time>2014-06-28T10:18:10.000Z</time>
      </trkpt>
      <trkpt lat="46.31416" lon="5.9866">
        <ele>1575</ele>
        <time>2014-06-28T10:18:29.000Z</time>
      </trkpt>
      <trkpt lat="46.31416" lon="5.9866">
        <ele>1575</ele>
        <time>2014-06-28T10:23:02.000Z</time>
      </trkpt>
      <trkpt lat="46.31416" lon="5.98658">
        <ele>1575</ele>
        <time>2014-06-28T10:23:06.000Z</time>
      </trkpt>
      <trkpt lat="46.31415" lon="5.98657">
        <ele>1575</ele>
        <time>2014-06-28T10:23:24.000Z</time>
      </trkpt>
      <trkpt lat="46.31414" lon="5.98656">
        <ele>1575</ele>
        <time>2014-06-28T10:24:52.000Z</time>
      </trkpt>
      <trkpt lat="46.31415" lon="5.98657">
        <ele>1575</ele>
        <time>2014-06-28T10:26:00.000Z</time>
      </trkpt>
      <trkpt lat="46.31415" lon="5.98657">
        <ele>1575</ele>
        <time>2014-06-28T10:26:42.000Z</time>
      </trkpt>
      <trkpt lat="46.31415" lon="5.98657">
        <ele>1575</ele>
        <time>2014-06-28T10:27:22.000Z</time>
      </trkpt>
      <trkpt lat="46.31415" lon="5.98657">
        <ele>1575</ele>
        <time>2014-06-28T10:28:07.000Z</time>
      </trkpt>
      <trkpt lat="46.31415" lon="5.98657">
        <ele>1575</ele>
        <time>2014-06-28T10:29:16.000Z</time>
      </trkpt>
      <trkpt lat="46.31415" lon="5.98657">
        <ele>1575</ele>
        <time>2014-06-28T10:30:03.000Z</time>
      </trkpt>
      <trkpt lat="46.31415" lon="5.98656">
        <ele>1575</ele>
        <time>2014-06-28T10:31:39.000Z</time>
      </trkpt>
      <trkpt lat="46.31415" lon="5.98656">
        <ele>1575</ele>
        <time>2014-06-28T10:32:13.000Z</time>
      </trkpt>
      <trkpt lat="46.31414" lon="5.98657">
        <ele>1575</ele>
        <time>2014-06-28T10:33:15.000Z</time>
      </trkpt>
      <trkpt lat="46.31413" lon="5.98658">
        <ele>1575</ele>
        <time>2014-06-28T10:34:49.000Z</time>
      </trkpt>
      <trkpt lat="46.31413" lon="5.98658">
        <ele>1575</ele>
        <time>2014-06-28T10:36:52.000Z</time>
      </trkpt>
      <trkpt lat="46.31413" lon="5.98657">
        <ele>1575</ele>
        <time>2014-06-28T10:41:26.000Z</time>
      </trkpt>
      <trkpt lat="46.31413" lon="5.98658">
        <ele>1575</ele>
        <time>2014-06-28T10:42:15.000Z</time>
      </trkpt>
      <trkpt lat="46.31413" lon="5.98658">
        <ele>1575</ele>
        <time>2014-06-28T10:45:54.000Z</time>
      </trkpt>
      <trkpt lat="46.31413" lon="5.98658">
        <ele>1575</ele>
        <time>2014-06-28T10:47:52.000Z</time>
      </trkpt>
      <trkpt lat="46.31413" lon="5.98658">
        <ele>1575</ele>
        <time>2014-06-28T10:48:59.000Z</time>
      </trkpt>
      <trkpt lat="46.31413" lon="5.98658">
        <ele>1575</ele>
        <time>2014-06-28T10:50:41.000Z</time>
      </trkpt>
      <trkpt lat="46.31413" lon="5.98658">
        <ele>1575</ele>
        <time>2014-06-28T10:51:40.000Z</time>
      </trkpt>
      <trkpt lat="46.31415" lon="5.98656">
        <ele>1575</ele>
        <time>2014-06-28T10:53:37.000Z</time>
      </trkpt>
      <trkpt lat="46.31414" lon="5.98656">
        <ele>1575</ele>
        <time>2014-06-28T10:53:56.000Z</time>
      </trkpt>
      <trkpt lat="46.31414" lon="5.98656">
        <ele>1575</ele>
        <time>2014-06-28T10:54:00.000Z</time>
      </trkpt>
      <trkpt lat="46.3141" lon="5.98656">
        <ele>1575</ele>
        <time>2014-06-28T10:54:21.000Z</time>
      </trkpt>
      <trkpt lat="46.31405" lon="5.98655">
        <ele>1575</ele>
        <time>2014-06-28T10:54:36.000Z</time>
      </trkpt>
      <trkpt lat="46.31398" lon="5.9865">
        <ele>1574</ele>
        <time>2014-06-28T10:54:51.000Z</time>
      </trkpt>
      <trkpt lat="46.31386" lon="5.98642">
        <ele>1574</ele>
        <time>2014-06-28T10:55:04.000Z</time>
      </trkpt>
      <trkpt lat="46.3137" lon="5.98635">
        <ele>1574</ele>
        <time>2014-06-28T10:55:18.000Z</time>
      </trkpt>
      <trkpt lat="46.31368" lon="5.98634">
        <ele>1573</ele>
        <time>2014-06-28T10:55:19.000Z</time>
      </trkpt>
      <trkpt lat="46.31359" lon="5.98629">
        <ele>1573</ele>
        <time>2014-06-28T10:55:27.000Z</time>
      </trkpt>
      <trkpt lat="46.31341" lon="5.98614">
        <ele>1573</ele>
        <time>2014-06-28T10:55:44.000Z</time>
      </trkpt>
      <trkpt lat="46.31324" lon="5.98604">
        <ele>1574</ele>
        <time>2014-06-28T10:56:01.000Z</time>
      </trkpt>
      <trkpt lat="46.3132" lon="5.98602">
        <ele>1574</ele>
        <time>2014-06-28T10:56:05.000Z</time>
      </trkpt>
      <trkpt lat="46.31313" lon="5.98597">
        <ele>1574</ele>
        <time>2014-06-28T10:56:14.000Z</time>
      </trkpt>
      <trkpt lat="46.31301" lon="5.98588">
        <ele>1574</ele>
        <time>2014-06-28T10:56:26.000Z</time>
      </trkpt>
      <trkpt lat="46.31283" lon="5.98587">
        <ele>1575</ele>
        <time>2014-06-28T10:56:42.000Z</time>
      </trkpt>
      <trkpt lat="46.31271" lon="5.98582">
        <ele>1575</ele>
        <time>2014-06-28T10:56:55.000Z</time>
      </trkpt>
      <trkpt lat="46.3126" lon="5.98571">
        <ele>1576</ele>
        <time>2014-06-28T10:57:08.000Z</time>
      </trkpt>
      <trkpt lat="46.31249" lon="5.98558">
        <ele>1579</ele>
        <time>2014-06-28T10:57:22.000Z</time>
      </trkpt>
      <trkpt lat="46.3124" lon="5.98555">
        <ele>1579</ele>
        <time>2014-06-28T10:57:30.000Z</time>
      </trkpt>
      <trkpt lat="46.31225" lon="5.98547">
        <ele>1580</ele>
        <time>2014-06-28T10:57:45.000Z</time>
      </trkpt>
      <trkpt lat="46.31215" lon="5.98542">
        <ele>1581</ele>
        <time>2014-06-28T10:57:57.000Z</time>
      </trkpt>
      <trkpt lat="46.3121" lon="5.9854">
        <ele>1581</ele>
        <time>2014-06-28T10:58:01.000Z</time>
      </trkpt>
      <trkpt lat="46.31198" lon="5.98532">
        <ele>1582</ele>
        <time>2014-06-28T10:58:14.000Z</time>
      </trkpt>
      <trkpt lat="46.31186" lon="5.9853">
        <ele>1583</ele>
        <time>2014-06-28T10:58:25.000Z</time>
      </trkpt>
      <trkpt lat="46.31173" lon="5.98523">
        <ele>1584</ele>
        <time>2014-06-28T10:58:39.000Z</time>
      </trkpt>
      <trkpt lat="46.31172" lon="5.98522">
        <ele>1584</ele>
        <time>2014-06-28T10:58:40.000Z</time>
      </trkpt>
      <trkpt lat="46.31163" lon="5.98516">
        <ele>1592</ele>
        <time>2014-06-28T10:58:51.000Z</time>
      </trkpt>
      <trkpt lat="46.31158" lon="5.98511">
        <ele>1591</ele>
        <time>2014-06-28T10:58:58.000Z</time>
      </trkpt>
      <trkpt lat="46.31149" lon="5.98495">
        <ele>1594</ele>
        <time>2014-06-28T10:59:12.000Z</time>
      </trkpt>
      <trkpt lat="46.31142" lon="5.98484">
        <ele>1596</ele>
        <time>2014-06-28T10:59:20.000Z</time>
      </trkpt>
      <trkpt lat="46.31141" lon="5.98476">
        <ele>1596</ele>
        <time>2014-06-28T10:59:24.000Z</time>
      </trkpt>
      <trkpt lat="46.31137" lon="5.98467">
        <ele>1597</ele>
        <time>2014-06-28T10:59:30.000Z</time>
      </trkpt>
      <trkpt lat="46.31129" lon="5.98454">
        <ele>1598</ele>
        <time>2014-06-28T10:59:38.000Z</time>
      </trkpt>
      <trkpt lat="46.31128" lon="5.98449">
        <ele>1599</ele>
        <time>2014-06-28T10:59:40.000Z</time>
      </trkpt>
      <trkpt lat="46.31125" lon="5.98427">
        <ele>1599</ele>
        <time>2014-06-28T10:59:52.000Z</time>
      </trkpt>
      <trkpt lat="46.31123" lon="5.98402">
        <ele>1602</ele>
        <time>2014-06-28T11:00:05.000Z</time>
      </trkpt>
      <trkpt lat="46.31118" lon="5.98394">
        <ele>1603</ele>
        <time>2014-06-28T11:00:16.000Z</time>
      </trkpt>
      <trkpt lat="46.31115" lon="5.9839">
        <ele>1603</ele>
        <time>2014-06-28T11:00:20.000Z</time>
      </trkpt>
      <trkpt lat="46.31106" lon="5.98382">
        <ele>1604</ele>
        <time>2014-06-28T11:00:32.000Z</time>
      </trkpt>
      <trkpt lat="46.31095" lon="5.9837">
        <ele>1605</ele>
        <time>2014-06-28T11:00:44.000Z</time>
      </trkpt>
      <trkpt lat="46.31092" lon="5.98368">
        <ele>1605</ele>
        <time>2014-06-28T11:00:47.000Z</time>
      </trkpt>
      <trkpt lat="46.31089" lon="5.98365">
        <ele>1606</ele>
        <time>2014-06-28T11:00:50.000Z</time>
      </trkpt>
      <trkpt lat="46.31076" lon="5.98359">
        <ele>1612</ele>
        <time>2014-06-28T11:01:02.000Z</time>
      </trkpt>
      <trkpt lat="46.31063" lon="5.98357">
        <ele>1612</ele>
        <time>2014-06-28T11:01:13.000Z</time>
      </trkpt>
      <trkpt lat="46.31056" lon="5.98354">
        <ele>1612</ele>
        <time>2014-06-28T11:01:20.000Z</time>
      </trkpt>
      <trkpt lat="46.31055" lon="5.98354">
        <ele>1612</ele>
        <time>2014-06-28T11:01:21.000Z</time>
      </trkpt>
      <trkpt lat="46.31054" lon="5.98356">
        <ele>1612</ele>
        <time>2014-06-28T11:01:23.000Z</time>
      </trkpt>
      <trkpt lat="46.31054" lon="5.98356">
        <ele>1612</ele>
        <time>2014-06-28T11:01:25.000Z</time>
      </trkpt>
      <trkpt lat="46.31055" lon="5.98358">
        <ele>1612</ele>
        <time>2014-06-28T11:03:24.000Z</time>
      </trkpt>
      <trkpt lat="46.31055" lon="5.98358">
        <ele>1612</ele>
        <time>2014-06-28T11:03:25.000Z</time>
      </trkpt>
      <trkpt lat="46.31055" lon="5.98358">
        <ele>1612</ele>
        <time>2014-06-28T11:03:27.000Z</time>
      </trkpt>
      <trkpt lat="46.31054" lon="5.98357">
        <ele>1612</ele>
        <time>2014-06-28T11:03:30.000Z</time>
      </trkpt>
      <trkpt lat="46.31053" lon="5.98355">
        <ele>1612</ele>
        <time>2014-06-28T11:03:32.000Z</time>
      </trkpt>
      <trkpt lat="46.31052" lon="5.98354">
        <ele>1612</ele>
        <time>2014-06-28T11:03:33.000Z</time>
      </trkpt>
      <trkpt lat="46.3105" lon="5.98354">
        <ele>1612</ele>
        <time>2014-06-28T11:03:34.000Z</time>
      </trkpt>
      <trkpt lat="46.31047" lon="5.98353">
        <ele>1612</ele>
        <time>2014-06-28T11:03:36.000Z</time>
      </trkpt>
      <trkpt lat="46.31038" lon="5.98351">
        <ele>1612</ele>
        <time>2014-06-28T11:03:44.000Z</time>
      </trkpt>
      <trkpt lat="46.31036" lon="5.98349">
        <ele>1612</ele>
        <time>2014-06-28T11:03:46.000Z</time>
      </trkpt>
      <trkpt lat="46.31034" lon="5.98349">
        <ele>1612</ele>
        <time>2014-06-28T11:03:47.000Z</time>
      </trkpt>
      <trkpt lat="46.31012" lon="5.98345">
        <ele>1611</ele>
        <time>2014-06-28T11:04:01.000Z</time>
      </trkpt>
      <trkpt lat="46.31009" lon="5.98344">
        <ele>1611</ele>
        <time>2014-06-28T11:04:03.000Z</time>
      </trkpt>
      <trkpt lat="46.30999" lon="5.98342">
        <ele>1610</ele>
        <time>2014-06-28T11:04:09.000Z</time>
      </trkpt>
      <trkpt lat="46.3098" lon="5.98341">
        <ele>1611</ele>
        <time>2014-06-28T11:04:22.000Z</time>
      </trkpt>
      <trkpt lat="46.30975" lon="5.98341">
        <ele>1611</ele>
        <time>2014-06-28T11:04:25.000Z</time>
      </trkpt>
      <trkpt lat="46.30972" lon="5.98341">
        <ele>1611</ele>
        <time>2014-06-28T11:04:27.000Z</time>
      </trkpt>
      <trkpt lat="46.3097" lon="5.9834">
        <ele>1611</ele>
        <time>2014-06-28T11:04:28.000Z</time>
      </trkpt>
      <trkpt lat="46.30961" lon="5.98337">
        <ele>1611</ele>
        <time>2014-06-28T11:04:34.000Z</time>
      </trkpt>
      <trkpt lat="46.30955" lon="5.98334">
        <ele>1610</ele>
        <time>2014-06-28T11:04:38.000Z</time>
      </trkpt>
      <trkpt lat="46.30953" lon="5.98334">
        <ele>1610</ele>
        <time>2014-06-28T11:04:39.000Z</time>
      </trkpt>
      <trkpt lat="46.30944" lon="5.9833">
        <ele>1605</ele>
        <time>2014-06-28T11:04:45.000Z</time>
      </trkpt>
      <trkpt lat="46.30936" lon="5.98328">
        <ele>1605</ele>
        <time>2014-06-28T11:04:49.000Z</time>
      </trkpt>
      <trkpt lat="46.30933" lon="5.98326">
        <ele>1605</ele>
        <time>2014-06-28T11:04:52.000Z</time>
      </trkpt>
      <trkpt lat="46.30925" lon="5.98325">
        <ele>1605</ele>
        <time>2014-06-28T11:04:58.000Z</time>
      </trkpt>
      <trkpt lat="46.30901" lon="5.98315">
        <ele>1601</ele>
        <time>2014-06-28T11:05:13.000Z</time>
      </trkpt>
      <trkpt lat="46.30898" lon="5.98313">
        <ele>1601</ele>
        <time>2014-06-28T11:05:15.000Z</time>
      </trkpt>
      <trkpt lat="46.30892" lon="5.98308">
        <ele>1600</ele>
        <time>2014-06-28T11:05:20.000Z</time>
      </trkpt>
      <trkpt lat="46.3089" lon="5.98305">
        <ele>1600</ele>
        <time>2014-06-28T11:05:22.000Z</time>
      </trkpt>
      <trkpt lat="46.30885" lon="5.98299">
        <ele>1599</ele>
        <time>2014-06-28T11:05:27.000Z</time>
      </trkpt>
      <trkpt lat="46.30879" lon="5.98294">
        <ele>1599</ele>
        <time>2014-06-28T11:05:32.000Z</time>
      </trkpt>
      <trkpt lat="46.30874" lon="5.98287">
        <ele>1598</ele>
        <time>2014-06-28T11:05:37.000Z</time>
      </trkpt>
      <trkpt lat="46.3087" lon="5.98282">
        <ele>1598</ele>
        <time>2014-06-28T11:05:41.000Z</time>
      </trkpt>
      <trkpt lat="46.30868" lon="5.98279">
        <ele>1597</ele>
        <time>2014-06-28T11:05:43.000Z</time>
      </trkpt>
      <trkpt lat="46.30848" lon="5.98267">
        <ele>1595</ele>
        <time>2014-06-28T11:05:56.000Z</time>
      </trkpt>
      <trkpt lat="46.30829" lon="5.98252">
        <ele>1590</ele>
        <time>2014-06-28T11:06:09.000Z</time>
      </trkpt>
      <trkpt lat="46.30821" lon="5.98246">
        <ele>1588</ele>
        <time>2014-06-28T11:06:16.000Z</time>
      </trkpt>
      <trkpt lat="46.30816" lon="5.98241">
        <ele>1588</ele>
        <time>2014-06-28T11:06:21.000Z</time>
      </trkpt>
      <trkpt lat="46.30809" lon="5.98238">
        <ele>1588</ele>
        <time>2014-06-28T11:06:27.000Z</time>
      </trkpt>
      <trkpt lat="46.30794" lon="5.98233">
        <ele>1587</ele>
        <time>2014-06-28T11:06:40.000Z</time>
      </trkpt>
      <trkpt lat="46.30792" lon="5.98232">
        <ele>1587</ele>
        <time>2014-06-28T11:06:42.000Z</time>
      </trkpt>
      <trkpt lat="46.30789" lon="5.98231">
        <ele>1587</ele>
        <time>2014-06-28T11:06:45.000Z</time>
      </trkpt>
      <trkpt lat="46.3078" lon="5.98232">
        <ele>1588</ele>
        <time>2014-06-28T11:06:53.000Z</time>
      </trkpt>
      <trkpt lat="46.30775" lon="5.98234">
        <ele>1588</ele>
        <time>2014-06-28T11:06:58.000Z</time>
      </trkpt>
      <trkpt lat="46.3077" lon="5.98236">
        <ele>1588</ele>
        <time>2014-06-28T11:07:03.000Z</time>
      </trkpt>
      <trkpt lat="46.30756" lon="5.98231">
        <ele>1588</ele>
        <time>2014-06-28T11:07:16.000Z</time>
      </trkpt>
      <trkpt lat="46.30752" lon="5.98229">
        <ele>1588</ele>
        <time>2014-06-28T11:07:19.000Z</time>
      </trkpt>
      <trkpt lat="46.30746" lon="5.98222">
        <ele>1589</ele>
        <time>2014-06-28T11:07:26.000Z</time>
      </trkpt>
      <trkpt lat="46.30734" lon="5.98211">
        <ele>1589</ele>
        <time>2014-06-28T11:07:38.000Z</time>
      </trkpt>
      <trkpt lat="46.30714" lon="5.98197">
        <ele>1588</ele>
        <time>2014-06-28T11:07:57.000Z</time>
      </trkpt>
      <trkpt lat="46.30701" lon="5.9819">
        <ele>1589</ele>
        <time>2014-06-28T11:08:08.000Z</time>
      </trkpt>
      <trkpt lat="46.3068" lon="5.98176">
        <ele>1588</ele>
        <time>2014-06-28T11:08:24.000Z</time>
      </trkpt>
      <trkpt lat="46.30666" lon="5.9817">
        <ele>1588</ele>
        <time>2014-06-28T11:08:35.000Z</time>
      </trkpt>
      <trkpt lat="46.30647" lon="5.98162">
        <ele>1588</ele>
        <time>2014-06-28T11:08:50.000Z</time>
      </trkpt>
      <trkpt lat="46.30629" lon="5.9815">
        <ele>1588</ele>
        <time>2014-06-28T11:09:05.000Z</time>
      </trkpt>
      <trkpt lat="46.30623" lon="5.98145">
        <ele>1588</ele>
        <time>2014-06-28T11:09:10.000Z</time>
      </trkpt>
      <trkpt lat="46.30619" lon="5.98139">
        <ele>1588</ele>
        <time>2014-06-28T11:09:14.000Z</time>
      </trkpt>
      <trkpt lat="46.30611" lon="5.98132">
        <ele>1588</ele>
        <time>2014-06-28T11:09:21.000Z</time>
      </trkpt>
      <trkpt lat="46.30595" lon="5.9812">
        <ele>1588</ele>
        <time>2014-06-28T11:09:36.000Z</time>
      </trkpt>
      <trkpt lat="46.30592" lon="5.9812">
        <ele>1588</ele>
        <time>2014-06-28T11:09:54.000Z</time>
      </trkpt>
      <trkpt lat="46.30587" lon="5.98116">
        <ele>1588</ele>
        <time>2014-06-28T11:10:31.000Z</time>
      </trkpt>
      <trkpt lat="46.30573" lon="5.98107">
        <ele>1590</ele>
        <time>2014-06-28T11:10:45.000Z</time>
      </trkpt>
      <trkpt lat="46.30564" lon="5.98101">
        <ele>1590</ele>
        <time>2014-06-28T11:10:58.000Z</time>
      </trkpt>
      <trkpt lat="46.30561" lon="5.981">
        <ele>1591</ele>
        <time>2014-06-28T11:11:11.000Z</time>
      </trkpt>
      <trkpt lat="46.30555" lon="5.98096">
        <ele>1591</ele>
        <time>2014-06-28T11:11:16.000Z</time>
      </trkpt>
      <trkpt lat="46.30553" lon="5.98095">
        <ele>1591</ele>
        <time>2014-06-28T11:11:18.000Z</time>
      </trkpt>
      <trkpt lat="46.30536" lon="5.98088">
        <ele>1592</ele>
        <time>2014-06-28T11:11:30.000Z</time>
      </trkpt>
      <trkpt lat="46.30532" lon="5.98083">
        <ele>1593</ele>
        <time>2014-06-28T11:11:34.000Z</time>
      </trkpt>
      <trkpt lat="46.30523" lon="5.98078">
        <ele>1594</ele>
        <time>2014-06-28T11:11:40.000Z</time>
      </trkpt>
      <trkpt lat="46.30519" lon="5.98075">
        <ele>1594</ele>
        <time>2014-06-28T11:11:43.000Z</time>
      </trkpt>
      <trkpt lat="46.30515" lon="5.98074">
        <ele>1594</ele>
        <time>2014-06-28T11:11:47.000Z</time>
      </trkpt>
      <trkpt lat="46.305" lon="5.98063">
        <ele>1594</ele>
        <time>2014-06-28T11:12:00.000Z</time>
      </trkpt>
      <trkpt lat="46.30494" lon="5.9806">
        <ele>1600</ele>
        <time>2014-06-28T11:12:08.000Z</time>
      </trkpt>
      <trkpt lat="46.30493" lon="5.9806">
        <ele>1600</ele>
        <time>2014-06-28T11:12:09.000Z</time>
      </trkpt>
      <trkpt lat="46.3049" lon="5.98058">
        <ele>1600</ele>
        <time>2014-06-28T11:12:11.000Z</time>
      </trkpt>
      <trkpt lat="46.30483" lon="5.98054">
        <ele>1601</ele>
        <time>2014-06-28T11:12:17.000Z</time>
      </trkpt>
      <trkpt lat="46.30478" lon="5.98051">
        <ele>1601</ele>
        <time>2014-06-28T11:12:25.000Z</time>
      </trkpt>
      <trkpt lat="46.30471" lon="5.98044">
        <ele>1602</ele>
        <time>2014-06-28T11:12:35.000Z</time>
      </trkpt>
      <trkpt lat="46.3047" lon="5.98042">
        <ele>1602</ele>
        <time>2014-06-28T11:12:37.000Z</time>
      </trkpt>
      <trkpt lat="46.30467" lon="5.98039">
        <ele>1602</ele>
        <time>2014-06-28T11:12:40.000Z</time>
      </trkpt>
      <trkpt lat="46.3046" lon="5.98036">
        <ele>1603</ele>
        <time>2014-06-28T11:12:48.000Z</time>
      </trkpt>
      <trkpt lat="46.30457" lon="5.98034">
        <ele>1603</ele>
        <time>2014-06-28T11:12:51.000Z</time>
      </trkpt>
      <trkpt lat="46.30449" lon="5.9802">
        <ele>1604</ele>
        <time>2014-06-28T11:13:05.000Z</time>
      </trkpt>
      <trkpt lat="46.30444" lon="5.98013">
        <ele>1604</ele>
        <time>2014-06-28T11:13:12.000Z</time>
      </trkpt>
      <trkpt lat="46.30436" lon="5.98007">
        <ele>1605</ele>
        <time>2014-06-28T11:13:21.000Z</time>
      </trkpt>
      <trkpt lat="46.30435" lon="5.98006">
        <ele>1605</ele>
        <time>2014-06-28T11:13:23.000Z</time>
      </trkpt>
      <trkpt lat="46.30432" lon="5.98003">
        <ele>1605</ele>
        <time>2014-06-28T11:13:28.000Z</time>
      </trkpt>
      <trkpt lat="46.30428" lon="5.97996">
        <ele>1605</ele>
        <time>2014-06-28T11:13:34.000Z</time>
      </trkpt>
      <trkpt lat="46.30426" lon="5.97994">
        <ele>1605</ele>
        <time>2014-06-28T11:13:36.000Z</time>
      </trkpt>
      <trkpt lat="46.30425" lon="5.97993">
        <ele>1605</ele>
        <time>2014-06-28T11:13:37.000Z</time>
      </trkpt>
      <trkpt lat="46.30418" lon="5.97972">
        <ele>1603</ele>
        <time>2014-06-28T11:13:50.000Z</time>
      </trkpt>
      <trkpt lat="46.30415" lon="5.97964">
        <ele>1601</ele>
        <time>2014-06-28T11:13:56.000Z</time>
      </trkpt>
      <trkpt lat="46.30413" lon="5.97961">
        <ele>1601</ele>
        <time>2014-06-28T11:13:58.000Z</time>
      </trkpt>
      <trkpt lat="46.30407" lon="5.97933">
        <ele>1600</ele>
        <time>2014-06-28T11:14:14.000Z</time>
      </trkpt>
      <trkpt lat="46.30406" lon="5.97924">
        <ele>1600</ele>
        <time>2014-06-28T11:14:20.000Z</time>
      </trkpt>
      <trkpt lat="46.30398" lon="5.97911">
        <ele>1596</ele>
        <time>2014-06-28T11:14:31.000Z</time>
      </trkpt>
      <trkpt lat="46.30393" lon="5.97903">
        <ele>1595</ele>
        <time>2014-06-28T11:14:38.000Z</time>
      </trkpt>
      <trkpt lat="46.30389" lon="5.979">
        <ele>1595</ele>
        <time>2014-06-28T11:14:42.000Z</time>
      </trkpt>
      <trkpt lat="46.30386" lon="5.97898">
        <ele>1595</ele>
        <time>2014-06-28T11:14:44.000Z</time>
      </trkpt>
      <trkpt lat="46.30381" lon="5.97888">
        <ele>1594</ele>
        <time>2014-06-28T11:14:52.000Z</time>
      </trkpt>
      <trkpt lat="46.30379" lon="5.97879">
        <ele>1594</ele>
        <time>2014-06-28T11:14:57.000Z</time>
      </trkpt>
      <trkpt lat="46.30375" lon="5.97872">
        <ele>1593</ele>
        <time>2014-06-28T11:15:02.000Z</time>
      </trkpt>
      <trkpt lat="46.30373" lon="5.97859">
        <ele>1593</ele>
        <time>2014-06-28T11:15:10.000Z</time>
      </trkpt>
      <trkpt lat="46.3037" lon="5.97843">
        <ele>1592</ele>
        <time>2014-06-28T11:15:20.000Z</time>
      </trkpt>
      <trkpt lat="46.30371" lon="5.97832">
        <ele>1588</ele>
        <time>2014-06-28T11:15:27.000Z</time>
      </trkpt>
      <trkpt lat="46.30377" lon="5.97814">
        <ele>1587</ele>
        <time>2014-06-28T11:15:38.000Z</time>
      </trkpt>
      <trkpt lat="46.30377" lon="5.97812">
        <ele>1587</ele>
        <time>2014-06-28T11:15:39.000Z</time>
      </trkpt>
      <trkpt lat="46.3038" lon="5.97794">
        <ele>1586</ele>
        <time>2014-06-28T11:15:51.000Z</time>
      </trkpt>
      <trkpt lat="46.30385" lon="5.97769">
        <ele>1584</ele>
        <time>2014-06-28T11:16:06.000Z</time>
      </trkpt>
      <trkpt lat="46.30385" lon="5.97758">
        <ele>1584</ele>
        <time>2014-06-28T11:16:12.000Z</time>
      </trkpt>
      <trkpt lat="46.30384" lon="5.97752">
        <ele>1584</ele>
        <time>2014-06-28T11:16:16.000Z</time>
      </trkpt>
      <trkpt lat="46.30384" lon="5.97751">
        <ele>1584</ele>
        <time>2014-06-28T11:16:17.000Z</time>
      </trkpt>
      <trkpt lat="46.30382" lon="5.97744">
        <ele>1578</ele>
        <time>2014-06-28T11:16:21.000Z</time>
      </trkpt>
      <trkpt lat="46.30378" lon="5.97733">
        <ele>1578</ele>
        <time>2014-06-28T11:16:28.000Z</time>
      </trkpt>
      <trkpt lat="46.30373" lon="5.97725">
        <ele>1578</ele>
        <time>2014-06-28T11:16:36.000Z</time>
      </trkpt>
      <trkpt lat="46.30371" lon="5.97722">
        <ele>1578</ele>
        <time>2014-06-28T11:16:39.000Z</time>
      </trkpt>
      <trkpt lat="46.3037" lon="5.9772">
        <ele>1578</ele>
        <time>2014-06-28T11:16:42.000Z</time>
      </trkpt>
      <trkpt lat="46.30366" lon="5.97713">
        <ele>1578</ele>
        <time>2014-06-28T11:16:49.000Z</time>
      </trkpt>
      <trkpt lat="46.30364" lon="5.97706">
        <ele>1577</ele>
        <time>2014-06-28T11:16:54.000Z</time>
      </trkpt>
      <trkpt lat="46.30359" lon="5.97697">
        <ele>1577</ele>
        <time>2014-06-28T11:17:02.000Z</time>
      </trkpt>
      <trkpt lat="46.30359" lon="5.97684">
        <ele>1576</ele>
        <time>2014-06-28T11:17:13.000Z</time>
      </trkpt>
      <trkpt lat="46.30357" lon="5.97669">
        <ele>1575</ele>
        <time>2014-06-28T11:17:25.000Z</time>
      </trkpt>
      <trkpt lat="46.30352" lon="5.97655">
        <ele>1568</ele>
        <time>2014-06-28T11:17:38.000Z</time>
      </trkpt>
      <trkpt lat="46.30347" lon="5.97641">
        <ele>1567</ele>
        <time>2014-06-28T11:17:47.000Z</time>
      </trkpt>
      <trkpt lat="46.30346" lon="5.97637">
        <ele>1566</ele>
        <time>2014-06-28T11:17:51.000Z</time>
      </trkpt>
      <trkpt lat="46.30347" lon="5.97638">
        <ele>1566</ele>
        <time>2014-06-28T11:18:23.000Z</time>
      </trkpt>
      <trkpt lat="46.30346" lon="5.97636">
        <ele>1566</ele>
        <time>2014-06-28T11:18:29.000Z</time>
      </trkpt>
      <trkpt lat="46.30345" lon="5.97633">
        <ele>1566</ele>
        <time>2014-06-28T11:18:36.000Z</time>
      </trkpt>
      <trkpt lat="46.30344" lon="5.97631">
        <ele>1566</ele>
        <time>2014-06-28T11:18:45.000Z</time>
      </trkpt>
      <trkpt lat="46.30342" lon="5.97623">
        <ele>1565</ele>
        <time>2014-06-28T11:19:00.000Z</time>
      </trkpt>
      <trkpt lat="46.30341" lon="5.97615">
        <ele>1564</ele>
        <time>2014-06-28T11:19:08.000Z</time>
      </trkpt>
      <trkpt lat="46.30334" lon="5.97604">
        <ele>1562</ele>
        <time>2014-06-28T11:19:16.000Z</time>
      </trkpt>
      <trkpt lat="46.3033" lon="5.97598">
        <ele>1560</ele>
        <time>2014-06-28T11:19:20.000Z</time>
      </trkpt>
      <trkpt lat="46.3033" lon="5.97596">
        <ele>1560</ele>
        <time>2014-06-28T11:19:21.000Z</time>
      </trkpt>
      <trkpt lat="46.30329" lon="5.97591">
        <ele>1560</ele>
        <time>2014-06-28T11:19:24.000Z</time>
      </trkpt>
      <trkpt lat="46.30327" lon="5.97588">
        <ele>1559</ele>
        <time>2014-06-28T11:19:26.000Z</time>
      </trkpt>
      <trkpt lat="46.30325" lon="5.97582">
        <ele>1555</ele>
        <time>2014-06-28T11:19:29.000Z</time>
      </trkpt>
      <trkpt lat="46.30323" lon="5.97575">
        <ele>1554</ele>
        <time>2014-06-28T11:19:33.000Z</time>
      </trkpt>
      <trkpt lat="46.30321" lon="5.9757">
        <ele>1552</ele>
        <time>2014-06-28T11:19:36.000Z</time>
      </trkpt>
      <trkpt lat="46.30318" lon="5.97564">
        <ele>1551</ele>
        <time>2014-06-28T11:19:40.000Z</time>
      </trkpt>
      <trkpt lat="46.30317" lon="5.97562">
        <ele>1550</ele>
        <time>2014-06-28T11:19:41.000Z</time>
      </trkpt>
      <trkpt lat="46.30313" lon="5.97549">
        <ele>1548</ele>
        <time>2014-06-28T11:19:50.000Z</time>
      </trkpt>
      <trkpt lat="46.30309" lon="5.97544">
        <ele>1547</ele>
        <time>2014-06-28T11:19:55.000Z</time>
      </trkpt>
      <trkpt lat="46.30305" lon="5.97542">
        <ele>1547</ele>
        <time>2014-06-28T11:19:59.000Z</time>
      </trkpt>
      <trkpt lat="46.303" lon="5.97537">
        <ele>1546</ele>
        <time>2014-06-28T11:20:04.000Z</time>
      </trkpt>
      <trkpt lat="46.303" lon="5.97537">
        <ele>1546</ele>
        <time>2014-06-28T11:20:05.000Z</time>
      </trkpt>
      <trkpt lat="46.30289" lon="5.97524">
        <ele>1545</ele>
        <time>2014-06-28T11:20:15.000Z</time>
      </trkpt>
      <trkpt lat="46.30281" lon="5.97509">
        <ele>1543</ele>
        <time>2014-06-28T11:20:26.000Z</time>
      </trkpt>
      <trkpt lat="46.3028" lon="5.97504">
        <ele>1543</ele>
        <time>2014-06-28T11:20:29.000Z</time>
      </trkpt>
      <trkpt lat="46.30277" lon="5.97495">
        <ele>1535</ele>
        <time>2014-06-28T11:20:33.000Z</time>
      </trkpt>
      <trkpt lat="46.30267" lon="5.97479">
        <ele>1534</ele>
        <time>2014-06-28T11:20:43.000Z</time>
      </trkpt>
      <trkpt lat="46.30256" lon="5.97467">
        <ele>1534</ele>
        <time>2014-06-28T11:20:54.000Z</time>
      </trkpt>
      <trkpt lat="46.30254" lon="5.97463">
        <ele>1533</ele>
        <time>2014-06-28T11:20:57.000Z</time>
      </trkpt>
      <trkpt lat="46.30252" lon="5.97459">
        <ele>1533</ele>
        <time>2014-06-28T11:20:59.000Z</time>
      </trkpt>
      <trkpt lat="46.30251" lon="5.97457">
        <ele>1533</ele>
        <time>2014-06-28T11:21:01.000Z</time>
      </trkpt>
      <trkpt lat="46.30249" lon="5.97455">
        <ele>1531</ele>
        <time>2014-06-28T11:21:03.000Z</time>
      </trkpt>
      <trkpt lat="46.30244" lon="5.97453">
        <ele>1531</ele>
        <time>2014-06-28T11:21:07.000Z</time>
      </trkpt>
      <trkpt lat="46.30226" lon="5.97444">
        <ele>1530</ele>
        <time>2014-06-28T11:21:22.000Z</time>
      </trkpt>
      <trkpt lat="46.30221" lon="5.97441">
        <ele>1530</ele>
        <time>2014-06-28T11:21:26.000Z</time>
      </trkpt>
      <trkpt lat="46.30215" lon="5.97441">
        <ele>1530</ele>
        <time>2014-06-28T11:21:30.000Z</time>
      </trkpt>
      <trkpt lat="46.30206" lon="5.97444">
        <ele>1530</ele>
        <time>2014-06-28T11:21:37.000Z</time>
      </trkpt>
      <trkpt lat="46.30204" lon="5.97449">
        <ele>1530</ele>
        <time>2014-06-28T11:21:40.000Z</time>
      </trkpt>
      <trkpt lat="46.30204" lon="5.97453">
        <ele>1530</ele>
        <time>2014-06-28T11:21:43.000Z</time>
      </trkpt>
      <trkpt lat="46.30204" lon="5.97454">
        <ele>1530</ele>
        <time>2014-06-28T11:21:52.000Z</time>
      </trkpt>
      <trkpt lat="46.30201" lon="5.97453">
        <ele>1530</ele>
        <time>2014-06-28T11:21:55.000Z</time>
      </trkpt>
      <trkpt lat="46.30198" lon="5.97452">
        <ele>1530</ele>
        <time>2014-06-28T11:21:58.000Z</time>
      </trkpt>
      <trkpt lat="46.30193" lon="5.97455">
        <ele>1530</ele>
        <time>2014-06-28T11:22:08.000Z</time>
      </trkpt>
      <trkpt lat="46.30192" lon="5.97456">
        <ele>1530</ele>
        <time>2014-06-28T11:22:09.000Z</time>
      </trkpt>
      <trkpt lat="46.30188" lon="5.9746">
        <ele>1530</ele>
        <time>2014-06-28T11:22:16.000Z</time>
      </trkpt>
      <trkpt lat="46.30174" lon="5.97466">
        <ele>1531</ele>
        <time>2014-06-28T11:22:30.000Z</time>
      </trkpt>
      <trkpt lat="46.30172" lon="5.97467">
        <ele>1531</ele>
        <time>2014-06-28T11:22:42.000Z</time>
      </trkpt>
      <trkpt lat="46.30171" lon="5.97466">
        <ele>1531</ele>
        <time>2014-06-28T11:24:21.000Z</time>
      </trkpt>
      <trkpt lat="46.30171" lon="5.97465">
        <ele>1530</ele>
        <time>2014-06-28T11:30:19.000Z</time>
      </trkpt>
      <trkpt lat="46.30171" lon="5.97465">
        <ele>1530</ele>
        <time>2014-06-28T11:30:20.000Z</time>
      </trkpt>
      <trkpt lat="46.30168" lon="5.97468">
        <ele>1531</ele>
        <time>2014-06-28T11:35:47.000Z</time>
      </trkpt>
      <trkpt lat="46.30168" lon="5.97468">
        <ele>1531</ele>
        <time>2014-06-28T11:39:12.000Z</time>
      </trkpt>
      <trkpt lat="46.30167" lon="5.97468">
        <ele>1531</ele>
        <time>2014-06-28T11:40:57.000Z</time>
      </trkpt>
      <trkpt lat="46.30167" lon="5.97467">
        <ele>1531</ele>
        <time>2014-06-28T11:41:15.000Z</time>
      </trkpt>
      <trkpt lat="46.30169" lon="5.97468">
        <ele>1531</ele>
        <time>2014-06-28T11:49:36.000Z</time>
      </trkpt>
      <trkpt lat="46.3017" lon="5.97468">
        <ele>1531</ele>
        <time>2014-06-28T11:54:19.000Z</time>
      </trkpt>
      <trkpt lat="46.30171" lon="5.97467">
        <ele>1531</ele>
        <time>2014-06-28T11:54:43.000Z</time>
      </trkpt>
      <trkpt lat="46.30172" lon="5.97466">
        <ele>1531</ele>
        <time>2014-06-28T11:55:09.000Z</time>
      </trkpt>
      <trkpt lat="46.30172" lon="5.97465">
        <ele>1530</ele>
        <time>2014-06-28T11:55:30.000Z</time>
      </trkpt>
      <trkpt lat="46.3017" lon="5.97464">
        <ele>1530</ele>
        <time>2014-06-28T11:55:32.000Z</time>
      </trkpt>
      <trkpt lat="46.30167" lon="5.97465">
        <ele>1530</ele>
        <time>2014-06-28T11:55:34.000Z</time>
      </trkpt>
      <trkpt lat="46.30145" lon="5.97451">
        <ele>1526</ele>
        <time>2014-06-28T11:55:49.000Z</time>
      </trkpt>
      <trkpt lat="46.30137" lon="5.97444">
        <ele>1526</ele>
        <time>2014-06-28T11:55:55.000Z</time>
      </trkpt>
      <trkpt lat="46.30131" lon="5.97435">
        <ele>1525</ele>
        <time>2014-06-28T11:56:02.000Z</time>
      </trkpt>
      <trkpt lat="46.30125" lon="5.97417">
        <ele>1525</ele>
        <time>2014-06-28T11:56:10.000Z</time>
      </trkpt>
      <trkpt lat="46.30121" lon="5.974">
        <ele>1519</ele>
        <time>2014-06-28T11:56:18.000Z</time>
      </trkpt>
      <trkpt lat="46.30116" lon="5.97382">
        <ele>1518</ele>
        <time>2014-06-28T11:56:27.000Z</time>
      </trkpt>
      <trkpt lat="46.30115" lon="5.9738">
        <ele>1518</ele>
        <time>2014-06-28T11:56:28.000Z</time>
      </trkpt>
      <trkpt lat="46.3011" lon="5.97353">
        <ele>1517</ele>
        <time>2014-06-28T11:56:41.000Z</time>
      </trkpt>
      <trkpt lat="46.30101" lon="5.9733">
        <ele>1514</ele>
        <time>2014-06-28T11:56:52.000Z</time>
      </trkpt>
      <trkpt lat="46.30089" lon="5.97303">
        <ele>1514</ele>
        <time>2014-06-28T11:57:09.000Z</time>
      </trkpt>
      <trkpt lat="46.30078" lon="5.97292">
        <ele>1516</ele>
        <time>2014-06-28T11:57:20.000Z</time>
      </trkpt>
      <trkpt lat="46.30062" lon="5.97282">
        <ele>1516</ele>
        <time>2014-06-28T11:57:34.000Z</time>
      </trkpt>
      <trkpt lat="46.30046" lon="5.97265">
        <ele>1516</ele>
        <time>2014-06-28T11:57:52.000Z</time>
      </trkpt>
      <trkpt lat="46.30042" lon="5.9726">
        <ele>1516</ele>
        <time>2014-06-28T11:57:57.000Z</time>
      </trkpt>
      <trkpt lat="46.30033" lon="5.9725">
        <ele>1516</ele>
        <time>2014-06-28T11:58:06.000Z</time>
      </trkpt>
      <trkpt lat="46.30018" lon="5.97235">
        <ele>1516</ele>
        <time>2014-06-28T11:58:21.000Z</time>
      </trkpt>
      <trkpt lat="46.30013" lon="5.97229">
        <ele>1516</ele>
        <time>2014-06-28T11:58:28.000Z</time>
      </trkpt>
      <trkpt lat="46.30011" lon="5.97229">
        <ele>1516</ele>
        <time>2014-06-28T11:58:29.000Z</time>
      </trkpt>
      <trkpt lat="46.3001" lon="5.97227">
        <ele>1516</ele>
        <time>2014-06-28T11:58:31.000Z</time>
      </trkpt>
      <trkpt lat="46.29995" lon="5.97215">
        <ele>1514</ele>
        <time>2014-06-28T11:58:45.000Z</time>
      </trkpt>
      <trkpt lat="46.29989" lon="5.9721">
        <ele>1514</ele>
        <time>2014-06-28T11:58:51.000Z</time>
      </trkpt>
      <trkpt lat="46.29982" lon="5.97204">
        <ele>1514</ele>
        <time>2014-06-28T11:58:58.000Z</time>
      </trkpt>
      <trkpt lat="46.29979" lon="5.97203">
        <ele>1514</ele>
        <time>2014-06-28T11:59:00.000Z</time>
      </trkpt>
      <trkpt lat="46.29977" lon="5.97201">
        <ele>1514</ele>
        <time>2014-06-28T11:59:02.000Z</time>
      </trkpt>
      <trkpt lat="46.29976" lon="5.97201">
        <ele>1514</ele>
        <time>2014-06-28T11:59:03.000Z</time>
      </trkpt>
      <trkpt lat="46.29976" lon="5.97199">
        <ele>1514</ele>
        <time>2014-06-28T11:59:04.000Z</time>
      </trkpt>
      <trkpt lat="46.29969" lon="5.97193">
        <ele>1514</ele>
        <time>2014-06-28T11:59:11.000Z</time>
      </trkpt>
      <trkpt lat="46.29959" lon="5.97186">
        <ele>1514</ele>
        <time>2014-06-28T11:59:19.000Z</time>
      </trkpt>
      <trkpt lat="46.29957" lon="5.97184">
        <ele>1513</ele>
        <time>2014-06-28T11:59:21.000Z</time>
      </trkpt>
      <trkpt lat="46.29952" lon="5.9718">
        <ele>1513</ele>
        <time>2014-06-28T11:59:26.000Z</time>
      </trkpt>
      <trkpt lat="46.29937" lon="5.97163">
        <ele>1513</ele>
        <time>2014-06-28T11:59:42.000Z</time>
      </trkpt>
      <trkpt lat="46.29922" lon="5.97143">
        <ele>1513</ele>
        <time>2014-06-28T11:59:59.000Z</time>
      </trkpt>
      <trkpt lat="46.2991" lon="5.97132">
        <ele>1509</ele>
        <time>2014-06-28T12:00:13.000Z</time>
      </trkpt>
      <trkpt lat="46.29903" lon="5.97123">
        <ele>1509</ele>
        <time>2014-06-28T12:00:21.000Z</time>
      </trkpt>
      <trkpt lat="46.29892" lon="5.97113">
        <ele>1509</ele>
        <time>2014-06-28T12:00:32.000Z</time>
      </trkpt>
      <trkpt lat="46.2989" lon="5.97111">
        <ele>1509</ele>
        <time>2014-06-28T12:00:34.000Z</time>
      </trkpt>
      <trkpt lat="46.29889" lon="5.97109">
        <ele>1509</ele>
        <time>2014-06-28T12:00:36.000Z</time>
      </trkpt>
      <trkpt lat="46.29874" lon="5.9709">
        <ele>1508</ele>
        <time>2014-06-28T12:00:52.000Z</time>
      </trkpt>
      <trkpt lat="46.2986" lon="5.97075">
        <ele>1506</ele>
        <time>2014-06-28T12:01:06.000Z</time>
      </trkpt>
      <trkpt lat="46.29859" lon="5.97076">
        <ele>1506</ele>
        <time>2014-06-28T12:01:27.000Z</time>
      </trkpt>
      <trkpt lat="46.29859" lon="5.97076">
        <ele>1506</ele>
        <time>2014-06-28T12:02:10.000Z</time>
      </trkpt>
      <trkpt lat="46.29859" lon="5.97076">
        <ele>1506</ele>
        <time>2014-06-28T12:02:12.000Z</time>
      </trkpt>
      <trkpt lat="46.29859" lon="5.97076">
        <ele>1506</ele>
        <time>2014-06-28T12:02:16.000Z</time>
      </trkpt>
      <trkpt lat="46.29857" lon="5.97075">
        <ele>1506</ele>
        <time>2014-06-28T12:02:23.000Z</time>
      </trkpt>
      <trkpt lat="46.29855" lon="5.97072">
        <ele>1506</ele>
        <time>2014-06-28T12:02:25.000Z</time>
      </trkpt>
      <trkpt lat="46.29852" lon="5.97068">
        <ele>1506</ele>
        <time>2014-06-28T12:02:28.000Z</time>
      </trkpt>
      <trkpt lat="46.2984" lon="5.97054">
        <ele>1505</ele>
        <time>2014-06-28T12:02:40.000Z</time>
      </trkpt>
      <trkpt lat="46.29828" lon="5.97044">
        <ele>1504</ele>
        <time>2014-06-28T12:02:49.000Z</time>
      </trkpt>
      <trkpt lat="46.29824" lon="5.9704">
        <ele>1504</ele>
        <time>2014-06-28T12:02:53.000Z</time>
      </trkpt>
      <trkpt lat="46.29807" lon="5.97025">
        <ele>1504</ele>
        <time>2014-06-28T12:03:07.000Z</time>
      </trkpt>
      <trkpt lat="46.298" lon="5.97021">
        <ele>1504</ele>
        <time>2014-06-28T12:03:12.000Z</time>
      </trkpt>
      <trkpt lat="46.29781" lon="5.97009">
        <ele>1504</ele>
        <time>2014-06-28T12:03:26.000Z</time>
      </trkpt>
      <trkpt lat="46.29776" lon="5.97004">
        <ele>1504</ele>
        <time>2014-06-28T12:03:31.000Z</time>
      </trkpt>
      <trkpt lat="46.29769" lon="5.96999">
        <ele>1503</ele>
        <time>2014-06-28T12:03:37.000Z</time>
      </trkpt>
      <trkpt lat="46.29764" lon="5.96995">
        <ele>1504</ele>
        <time>2014-06-28T12:03:41.000Z</time>
      </trkpt>
      <trkpt lat="46.29747" lon="5.96978">
        <ele>1506</ele>
        <time>2014-06-28T12:03:56.000Z</time>
      </trkpt>
      <trkpt lat="46.29739" lon="5.96971">
        <ele>1506</ele>
        <time>2014-06-28T12:04:03.000Z</time>
      </trkpt>
      <trkpt lat="46.29738" lon="5.9697">
        <ele>1506</ele>
        <time>2014-06-28T12:04:04.000Z</time>
      </trkpt>
      <trkpt lat="46.29725" lon="5.96953">
        <ele>1506</ele>
        <time>2014-06-28T12:04:17.000Z</time>
      </trkpt>
      <trkpt lat="46.29712" lon="5.96937">
        <ele>1506</ele>
        <time>2014-06-28T12:04:29.000Z</time>
      </trkpt>
      <trkpt lat="46.29697" lon="5.96925">
        <ele>1506</ele>
        <time>2014-06-28T12:04:43.000Z</time>
      </trkpt>
      <trkpt lat="46.29689" lon="5.96918">
        <ele>1507</ele>
        <time>2014-06-28T12:04:51.000Z</time>
      </trkpt>
      <trkpt lat="46.29671" lon="5.96909">
        <ele>1507</ele>
        <time>2014-06-28T12:05:06.000Z</time>
      </trkpt>
      <trkpt lat="46.29667" lon="5.96906">
        <ele>1506</ele>
        <time>2014-06-28T12:05:09.000Z</time>
      </trkpt>
      <trkpt lat="46.2966" lon="5.96903">
        <ele>1505</ele>
        <time>2014-06-28T12:05:14.000Z</time>
      </trkpt>
      <trkpt lat="46.29647" lon="5.96883">
        <ele>1504</ele>
        <time>2014-06-28T12:05:28.000Z</time>
      </trkpt>
      <trkpt lat="46.29639" lon="5.96872">
        <ele>1503</ele>
        <time>2014-06-28T12:05:37.000Z</time>
      </trkpt>
      <trkpt lat="46.29638" lon="5.96871">
        <ele>1503</ele>
        <time>2014-06-28T12:05:38.000Z</time>
      </trkpt>
      <trkpt lat="46.29633" lon="5.96863">
        <ele>1502</ele>
        <time>2014-06-28T12:05:44.000Z</time>
      </trkpt>
      <trkpt lat="46.29625" lon="5.96851">
        <ele>1502</ele>
        <time>2014-06-28T12:05:53.000Z</time>
      </trkpt>
      <trkpt lat="46.29615" lon="5.96833">
        <ele>1495</ele>
        <time>2014-06-28T12:06:05.000Z</time>
      </trkpt>
      <trkpt lat="46.29599" lon="5.96812">
        <ele>1494</ele>
        <time>2014-06-28T12:06:21.000Z</time>
      </trkpt>
      <trkpt lat="46.29596" lon="5.96806">
        <ele>1494</ele>
        <time>2014-06-28T12:06:25.000Z</time>
      </trkpt>
      <trkpt lat="46.29591" lon="5.96787">
        <ele>1492</ele>
        <time>2014-06-28T12:06:36.000Z</time>
      </trkpt>
      <trkpt lat="46.29582" lon="5.96764">
        <ele>1486</ele>
        <time>2014-06-28T12:06:51.000Z</time>
      </trkpt>
      <trkpt lat="46.29579" lon="5.96754">
        <ele>1485</ele>
        <time>2014-06-28T12:07:12.000Z</time>
      </trkpt>
      <trkpt lat="46.29571" lon="5.96734">
        <ele>1482</ele>
        <time>2014-06-28T12:07:25.000Z</time>
      </trkpt>
      <trkpt lat="46.2957" lon="5.96733">
        <ele>1482</ele>
        <time>2014-06-28T12:07:26.000Z</time>
      </trkpt>
      <trkpt lat="46.29566" lon="5.96722">
        <ele>1481</ele>
        <time>2014-06-28T12:07:33.000Z</time>
      </trkpt>
      <trkpt lat="46.29554" lon="5.96697">
        <ele>1480</ele>
        <time>2014-06-28T12:07:48.000Z</time>
      </trkpt>
      <trkpt lat="46.29543" lon="5.9668">
        <ele>1480</ele>
        <time>2014-06-28T12:08:00.000Z</time>
      </trkpt>
      <trkpt lat="46.29528" lon="5.96663">
        <ele>1476</ele>
        <time>2014-06-28T12:08:15.000Z</time>
      </trkpt>
      <trkpt lat="46.29517" lon="5.96652">
        <ele>1477</ele>
        <time>2014-06-28T12:08:27.000Z</time>
      </trkpt>
      <trkpt lat="46.29505" lon="5.96637">
        <ele>1476</ele>
        <time>2014-06-28T12:08:40.000Z</time>
      </trkpt>
      <trkpt lat="46.29494" lon="5.96623">
        <ele>1479</ele>
        <time>2014-06-28T12:08:53.000Z</time>
      </trkpt>
      <trkpt lat="46.29485" lon="5.96611">
        <ele>1479</ele>
        <time>2014-06-28T12:09:03.000Z</time>
      </trkpt>
      <trkpt lat="46.29476" lon="5.96595">
        <ele>1478</ele>
        <time>2014-06-28T12:09:16.000Z</time>
      </trkpt>
      <trkpt lat="46.2947" lon="5.96585">
        <ele>1478</ele>
        <time>2014-06-28T12:09:25.000Z</time>
      </trkpt>
      <trkpt lat="46.29468" lon="5.96582">
        <ele>1474</ele>
        <time>2014-06-28T12:09:28.000Z</time>
      </trkpt>
      <trkpt lat="46.29467" lon="5.9658">
        <ele>1474</ele>
        <time>2014-06-28T12:09:45.000Z</time>
      </trkpt>
      <trkpt lat="46.29467" lon="5.9658">
        <ele>1474</ele>
        <time>2014-06-28T12:10:14.000Z</time>
      </trkpt>
      <trkpt lat="46.29467" lon="5.9658">
        <ele>1474</ele>
        <time>2014-06-28T12:12:50.000Z</time>
      </trkpt>
      <trkpt lat="46.29466" lon="5.96578">
        <ele>1474</ele>
        <time>2014-06-28T12:13:50.000Z</time>
      </trkpt>
      <trkpt lat="46.29467" lon="5.96573">
        <ele>1474</ele>
        <time>2014-06-28T12:14:08.000Z</time>
      </trkpt>
      <trkpt lat="46.29467" lon="5.96574">
        <ele>1474</ele>
        <time>2014-06-28T12:14:58.000Z</time>
      </trkpt>
      <trkpt lat="46.29467" lon="5.96569">
        <ele>1473</ele>
        <time>2014-06-28T12:15:13.000Z</time>
      </trkpt>
      <trkpt lat="46.29468" lon="5.96561">
        <ele>1473</ele>
        <time>2014-06-28T12:15:18.000Z</time>
      </trkpt>
      <trkpt lat="46.29467" lon="5.96554">
        <ele>1473</ele>
        <time>2014-06-28T12:15:23.000Z</time>
      </trkpt>
      <trkpt lat="46.29463" lon="5.96543">
        <ele>1472</ele>
        <time>2014-06-28T12:15:31.000Z</time>
      </trkpt>
      <trkpt lat="46.29452" lon="5.96532">
        <ele>1472</ele>
        <time>2014-06-28T12:15:43.000Z</time>
      </trkpt>
      <trkpt lat="46.29439" lon="5.96522">
        <ele>1471</ele>
        <time>2014-06-28T12:15:54.000Z</time>
      </trkpt>
      <trkpt lat="46.29437" lon="5.96517">
        <ele>1471</ele>
        <time>2014-06-28T12:15:57.000Z</time>
      </trkpt>
      <trkpt lat="46.29437" lon="5.96512">
        <ele>1471</ele>
        <time>2014-06-28T12:16:00.000Z</time>
      </trkpt>
      <trkpt lat="46.2944" lon="5.96502">
        <ele>1471</ele>
        <time>2014-06-28T12:16:07.000Z</time>
      </trkpt>
      <trkpt lat="46.29446" lon="5.96485">
        <ele>1463</ele>
        <time>2014-06-28T12:16:19.000Z</time>
      </trkpt>
      <trkpt lat="46.29452" lon="5.96471">
        <ele>1462</ele>
        <time>2014-06-28T12:16:32.000Z</time>
      </trkpt>
      <trkpt lat="46.29458" lon="5.96457">
        <ele>1460</ele>
        <time>2014-06-28T12:16:42.000Z</time>
      </trkpt>
      <trkpt lat="46.29464" lon="5.96448">
        <ele>1459</ele>
        <time>2014-06-28T12:16:49.000Z</time>
      </trkpt>
      <trkpt lat="46.29475" lon="5.96429">
        <ele>1456</ele>
        <time>2014-06-28T12:17:03.000Z</time>
      </trkpt>
      <trkpt lat="46.29484" lon="5.96419">
        <ele>1454</ele>
        <time>2014-06-28T12:17:13.000Z</time>
      </trkpt>
      <trkpt lat="46.29488" lon="5.96416">
        <ele>1450</ele>
        <time>2014-06-28T12:17:17.000Z</time>
      </trkpt>
      <trkpt lat="46.29496" lon="5.96403">
        <ele>1449</ele>
        <time>2014-06-28T12:17:28.000Z</time>
      </trkpt>
      <trkpt lat="46.29499" lon="5.96399">
        <ele>1449</ele>
        <time>2014-06-28T12:17:32.000Z</time>
      </trkpt>
      <trkpt lat="46.29499" lon="5.96375">
        <ele>1448</ele>
        <time>2014-06-28T12:17:47.000Z</time>
      </trkpt>
      <trkpt lat="46.29492" lon="5.96359">
        <ele>1447</ele>
        <time>2014-06-28T12:17:58.000Z</time>
      </trkpt>
      <trkpt lat="46.29478" lon="5.96339">
        <ele>1446</ele>
        <time>2014-06-28T12:18:14.000Z</time>
      </trkpt>
      <trkpt lat="46.29467" lon="5.96323">
        <ele>1442</ele>
        <time>2014-06-28T12:18:27.000Z</time>
      </trkpt>
      <trkpt lat="46.29454" lon="5.9631">
        <ele>1442</ele>
        <time>2014-06-28T12:18:39.000Z</time>
      </trkpt>
      <trkpt lat="46.29442" lon="5.96291">
        <ele>1442</ele>
        <time>2014-06-28T12:18:53.000Z</time>
      </trkpt>
      <trkpt lat="46.29427" lon="5.96275">
        <ele>1442</ele>
        <time>2014-06-28T12:19:07.000Z</time>
      </trkpt>
      <trkpt lat="46.29425" lon="5.96272">
        <ele>1441</ele>
        <time>2014-06-28T12:19:09.000Z</time>
      </trkpt>
      <trkpt lat="46.29421" lon="5.96268">
        <ele>1441</ele>
        <time>2014-06-28T12:19:13.000Z</time>
      </trkpt>
      <trkpt lat="46.29414" lon="5.9626">
        <ele>1446</ele>
        <time>2014-06-28T12:19:20.000Z</time>
      </trkpt>
      <trkpt lat="46.29412" lon="5.96257">
        <ele>1445</ele>
        <time>2014-06-28T12:19:23.000Z</time>
      </trkpt>
      <trkpt lat="46.29403" lon="5.96243">
        <ele>1445</ele>
        <time>2014-06-28T12:19:33.000Z</time>
      </trkpt>
      <trkpt lat="46.2939" lon="5.96226">
        <ele>1447</ele>
        <time>2014-06-28T12:19:46.000Z</time>
      </trkpt>
      <trkpt lat="46.29381" lon="5.96212">
        <ele>1448</ele>
        <time>2014-06-28T12:19:57.000Z</time>
      </trkpt>
      <trkpt lat="46.29375" lon="5.96195">
        <ele>1448</ele>
        <time>2014-06-28T12:20:08.000Z</time>
      </trkpt>
      <trkpt lat="46.29374" lon="5.96191">
        <ele>1448</ele>
        <time>2014-06-28T12:20:10.000Z</time>
      </trkpt>
      <trkpt lat="46.29373" lon="5.96183">
        <ele>1448</ele>
        <time>2014-06-28T12:20:14.000Z</time>
      </trkpt>
      <trkpt lat="46.29374" lon="5.96177">
        <ele>1448</ele>
        <time>2014-06-28T12:20:17.000Z</time>
      </trkpt>
      <trkpt lat="46.29375" lon="5.96163">
        <ele>1445</ele>
        <time>2014-06-28T12:20:25.000Z</time>
      </trkpt>
      <trkpt lat="46.29377" lon="5.96154">
        <ele>1445</ele>
        <time>2014-06-28T12:20:30.000Z</time>
      </trkpt>
      <trkpt lat="46.29378" lon="5.96145">
        <ele>1445</ele>
        <time>2014-06-28T12:20:35.000Z</time>
      </trkpt>
      <trkpt lat="46.29377" lon="5.96131">
        <ele>1445</ele>
        <time>2014-06-28T12:20:46.000Z</time>
      </trkpt>
      <trkpt lat="46.29373" lon="5.9612">
        <ele>1445</ele>
        <time>2014-06-28T12:20:54.000Z</time>
      </trkpt>
      <trkpt lat="46.2937" lon="5.96113">
        <ele>1446</ele>
        <time>2014-06-28T12:20:59.000Z</time>
      </trkpt>
      <trkpt lat="46.29363" lon="5.96107">
        <ele>1446</ele>
        <time>2014-06-28T12:21:09.000Z</time>
      </trkpt>
      <trkpt lat="46.29363" lon="5.96109">
        <ele>1446</ele>
        <time>2014-06-28T12:21:22.000Z</time>
      </trkpt>
      <trkpt lat="46.29362" lon="5.96109">
        <ele>1446</ele>
        <time>2014-06-28T12:21:38.000Z</time>
      </trkpt>
      <trkpt lat="46.29362" lon="5.96109">
        <ele>1446</ele>
        <time>2014-06-28T12:21:52.000Z</time>
      </trkpt>
      <trkpt lat="46.29362" lon="5.96108">
        <ele>1446</ele>
        <time>2014-06-28T12:23:04.000Z</time>
      </trkpt>
      <trkpt lat="46.29363" lon="5.96107">
        <ele>1446</ele>
        <time>2014-06-28T12:23:44.000Z</time>
      </trkpt>
      <trkpt lat="46.29364" lon="5.96105">
        <ele>1446</ele>
        <time>2014-06-28T12:23:46.000Z</time>
      </trkpt>
      <trkpt lat="46.29364" lon="5.96095">
        <ele>1446</ele>
        <time>2014-06-28T12:23:56.000Z</time>
      </trkpt>
      <trkpt lat="46.29362" lon="5.96084">
        <ele>1446</ele>
        <time>2014-06-28T12:24:04.000Z</time>
      </trkpt>
      <trkpt lat="46.29361" lon="5.96074">
        <ele>1445</ele>
        <time>2014-06-28T12:24:17.000Z</time>
      </trkpt>
      <trkpt lat="46.29365" lon="5.96069">
        <ele>1444</ele>
        <time>2014-06-28T12:24:32.000Z</time>
      </trkpt>
      <trkpt lat="46.29365" lon="5.96069">
        <ele>1444</ele>
        <time>2014-06-28T12:24:58.000Z</time>
      </trkpt>
      <trkpt lat="46.29366" lon="5.96068">
        <ele>1444</ele>
        <time>2014-06-28T12:29:33.000Z</time>
      </trkpt>
      <trkpt lat="46.29359" lon="5.96058">
        <ele>1444</ele>
        <time>2014-06-28T12:29:47.000Z</time>
      </trkpt>
      <trkpt lat="46.29351" lon="5.96039">
        <ele>1445</ele>
        <time>2014-06-28T12:30:00.000Z</time>
      </trkpt>
      <trkpt lat="46.29346" lon="5.96021">
        <ele>1445</ele>
        <time>2014-06-28T12:30:13.000Z</time>
      </trkpt>
      <trkpt lat="46.29346" lon="5.96015">
        <ele>1446</ele>
        <time>2014-06-28T12:30:26.000Z</time>
      </trkpt>
      <trkpt lat="46.2934" lon="5.96001">
        <ele>1448</ele>
        <time>2014-06-28T12:30:36.000Z</time>
      </trkpt>
      <trkpt lat="46.29336" lon="5.95987">
        <ele>1446</ele>
        <time>2014-06-28T12:30:44.000Z</time>
      </trkpt>
      <trkpt lat="46.29332" lon="5.95963">
        <ele>1456</ele>
        <time>2014-06-28T12:30:58.000Z</time>
      </trkpt>
      <trkpt lat="46.29325" lon="5.95944">
        <ele>1456</ele>
        <time>2014-06-28T12:31:10.000Z</time>
      </trkpt>
      <trkpt lat="46.29313" lon="5.95934">
        <ele>1457</ele>
        <time>2014-06-28T12:31:24.000Z</time>
      </trkpt>
      <trkpt lat="46.29303" lon="5.95928">
        <ele>1458</ele>
        <time>2014-06-28T12:31:35.000Z</time>
      </trkpt>
      <trkpt lat="46.29301" lon="5.95925">
        <ele>1459</ele>
        <time>2014-06-28T12:31:39.000Z</time>
      </trkpt>
      <trkpt lat="46.29292" lon="5.95916">
        <ele>1460</ele>
        <time>2014-06-28T12:31:51.000Z</time>
      </trkpt>
      <trkpt lat="46.29291" lon="5.95915">
        <ele>1460</ele>
        <time>2014-06-28T12:31:54.000Z</time>
      </trkpt>
      <trkpt lat="46.29284" lon="5.95906">
        <ele>1461</ele>
        <time>2014-06-28T12:32:06.000Z</time>
      </trkpt>
      <trkpt lat="46.29281" lon="5.95896">
        <ele>1462</ele>
        <time>2014-06-28T12:32:16.000Z</time>
      </trkpt>
      <trkpt lat="46.29278" lon="5.9589">
        <ele>1462</ele>
        <time>2014-06-28T12:32:30.000Z</time>
      </trkpt>
      <trkpt lat="46.29279" lon="5.95892">
        <ele>1462</ele>
        <time>2014-06-28T12:32:53.000Z</time>
      </trkpt>
      <trkpt lat="46.29281" lon="5.95894">
        <ele>1462</ele>
        <time>2014-06-28T12:34:53.000Z</time>
      </trkpt>
      <trkpt lat="46.29282" lon="5.95894">
        <ele>1461</ele>
        <time>2014-06-28T12:35:01.000Z</time>
      </trkpt>
      <trkpt lat="46.29277" lon="5.95889">
        <ele>1462</ele>
        <time>2014-06-28T12:35:18.000Z</time>
      </trkpt>
      <trkpt lat="46.29273" lon="5.95887">
        <ele>1462</ele>
        <time>2014-06-28T12:35:23.000Z</time>
      </trkpt>
      <trkpt lat="46.29266" lon="5.95881">
        <ele>1463</ele>
        <time>2014-06-28T12:35:32.000Z</time>
      </trkpt>
      <trkpt lat="46.29259" lon="5.95878">
        <ele>1464</ele>
        <time>2014-06-28T12:35:39.000Z</time>
      </trkpt>
      <trkpt lat="46.29248" lon="5.95868">
        <ele>1477</ele>
        <time>2014-06-28T12:35:54.000Z</time>
      </trkpt>
      <trkpt lat="46.2924" lon="5.95862">
        <ele>1477</ele>
        <time>2014-06-28T12:36:06.000Z</time>
      </trkpt>
      <trkpt lat="46.29229" lon="5.95856">
        <ele>1478</ele>
        <time>2014-06-28T12:36:18.000Z</time>
      </trkpt>
      <trkpt lat="46.29221" lon="5.95852">
        <ele>1479</ele>
        <time>2014-06-28T12:36:28.000Z</time>
      </trkpt>
      <trkpt lat="46.29208" lon="5.95849">
        <ele>1480</ele>
        <time>2014-06-28T12:36:41.000Z</time>
      </trkpt>
      <trkpt lat="46.29207" lon="5.95849">
        <ele>1480</ele>
        <time>2014-06-28T12:36:42.000Z</time>
      </trkpt>
      <trkpt lat="46.29195" lon="5.95849">
        <ele>1482</ele>
        <time>2014-06-28T12:36:55.000Z</time>
      </trkpt>
      <trkpt lat="46.29184" lon="5.95851">
        <ele>1483</ele>
        <time>2014-06-28T12:37:06.000Z</time>
      </trkpt>
      <trkpt lat="46.29183" lon="5.95851">
        <ele>1484</ele>
        <time>2014-06-28T12:37:07.000Z</time>
      </trkpt>
      <trkpt lat="46.29177" lon="5.95848">
        <ele>1484</ele>
        <time>2014-06-28T12:37:13.000Z</time>
      </trkpt>
      <trkpt lat="46.2917" lon="5.95844">
        <ele>1486</ele>
        <time>2014-06-28T12:37:21.000Z</time>
      </trkpt>
      <trkpt lat="46.29158" lon="5.95831">
        <ele>1491</ele>
        <time>2014-06-28T12:37:34.000Z</time>
      </trkpt>
      <trkpt lat="46.29147" lon="5.95822">
        <ele>1494</ele>
        <time>2014-06-28T12:37:47.000Z</time>
      </trkpt>
      <trkpt lat="46.2914" lon="5.95816">
        <ele>1495</ele>
        <time>2014-06-28T12:37:56.000Z</time>
      </trkpt>
      <trkpt lat="46.29131" lon="5.95805">
        <ele>1496</ele>
        <time>2014-06-28T12:38:08.000Z</time>
      </trkpt>
      <trkpt lat="46.29128" lon="5.95801">
        <ele>1496</ele>
        <time>2014-06-28T12:38:12.000Z</time>
      </trkpt>
      <trkpt lat="46.29124" lon="5.95798">
        <ele>1496</ele>
        <time>2014-06-28T12:38:16.000Z</time>
      </trkpt>
      <trkpt lat="46.29116" lon="5.95789">
        <ele>1497</ele>
        <time>2014-06-28T12:38:25.000Z</time>
      </trkpt>
      <trkpt lat="46.29113" lon="5.95785">
        <ele>1497</ele>
        <time>2014-06-28T12:38:38.000Z</time>
      </trkpt>
      <trkpt lat="46.2911" lon="5.95781">
        <ele>1498</ele>
        <time>2014-06-28T12:38:51.000Z</time>
      </trkpt>
      <trkpt lat="46.29106" lon="5.95777">
        <ele>1498</ele>
        <time>2014-06-28T12:39:09.000Z</time>
      </trkpt>
      <trkpt lat="46.291" lon="5.95773">
        <ele>1498</ele>
        <time>2014-06-28T12:39:20.000Z</time>
      </trkpt>
      <trkpt lat="46.2909" lon="5.95766">
        <ele>1499</ele>
        <time>2014-06-28T12:39:35.000Z</time>
      </trkpt>
      <trkpt lat="46.29081" lon="5.95763">
        <ele>1505</ele>
        <time>2014-06-28T12:39:44.000Z</time>
      </trkpt>
      <trkpt lat="46.29079" lon="5.95763">
        <ele>1505</ele>
        <time>2014-06-28T12:39:45.000Z</time>
      </trkpt>
      <trkpt lat="46.29078" lon="5.95763">
        <ele>1505</ele>
        <time>2014-06-28T12:39:46.000Z</time>
      </trkpt>
      <trkpt lat="46.29072" lon="5.95758">
        <ele>1506</ele>
        <time>2014-06-28T12:39:52.000Z</time>
      </trkpt>
      <trkpt lat="46.29065" lon="5.95755">
        <ele>1506</ele>
        <time>2014-06-28T12:39:59.000Z</time>
      </trkpt>
      <trkpt lat="46.29055" lon="5.95751">
        <ele>1508</ele>
        <time>2014-06-28T12:40:08.000Z</time>
      </trkpt>
      <trkpt lat="46.29042" lon="5.95749">
        <ele>1505</ele>
        <time>2014-06-28T12:40:21.000Z</time>
      </trkpt>
      <trkpt lat="46.2903" lon="5.95755">
        <ele>1510</ele>
        <time>2014-06-28T12:40:33.000Z</time>
      </trkpt>
      <trkpt lat="46.29018" lon="5.95762">
        <ele>1511</ele>
        <time>2014-06-28T12:40:47.000Z</time>
      </trkpt>
      <trkpt lat="46.29018" lon="5.95763">
        <ele>1511</ele>
        <time>2014-06-28T12:40:48.000Z</time>
      </trkpt>
      <trkpt lat="46.29011" lon="5.95763">
        <ele>1511</ele>
        <time>2014-06-28T12:41:01.000Z</time>
      </trkpt>
      <trkpt lat="46.29002" lon="5.95766">
        <ele>1512</ele>
        <time>2014-06-28T12:41:26.000Z</time>
      </trkpt>
      <trkpt lat="46.28999" lon="5.95766">
        <ele>1518</ele>
        <time>2014-06-28T12:41:31.000Z</time>
      </trkpt>
      <trkpt lat="46.28988" lon="5.95771">
        <ele>1519</ele>
        <time>2014-06-28T12:41:43.000Z</time>
      </trkpt>
      <trkpt lat="46.28977" lon="5.95778">
        <ele>1521</ele>
        <time>2014-06-28T12:41:53.000Z</time>
      </trkpt>
      <trkpt lat="46.28971" lon="5.95782">
        <ele>1522</ele>
        <time>2014-06-28T12:42:01.000Z</time>
      </trkpt>
      <trkpt lat="46.28962" lon="5.95784">
        <ele>1523</ele>
        <time>2014-06-28T12:42:10.000Z</time>
      </trkpt>
      <trkpt lat="46.28956" lon="5.95781">
        <ele>1524</ele>
        <time>2014-06-28T12:42:18.000Z</time>
      </trkpt>
      <trkpt lat="46.28957" lon="5.95783">
        <ele>1524</ele>
        <time>2014-06-28T12:42:35.000Z</time>
      </trkpt>
      <trkpt lat="46.28962" lon="5.95795">
        <ele>1524</ele>
        <time>2014-06-28T12:42:46.000Z</time>
      </trkpt>
      <trkpt lat="46.28963" lon="5.95791">
        <ele>1524</ele>
        <time>2014-06-28T12:43:01.000Z</time>
      </trkpt>
      <trkpt lat="46.2896" lon="5.95785">
        <ele>1524</ele>
        <time>2014-06-28T12:43:29.000Z</time>
      </trkpt>
      <trkpt lat="46.28959" lon="5.95783">
        <ele>1524</ele>
        <time>2014-06-28T12:43:32.000Z</time>
      </trkpt>
      <trkpt lat="46.28949" lon="5.95779">
        <ele>1524</ele>
        <time>2014-06-28T12:43:45.000Z</time>
      </trkpt>
      <trkpt lat="46.28939" lon="5.95771">
        <ele>1524</ele>
        <time>2014-06-28T12:43:57.000Z</time>
      </trkpt>
      <trkpt lat="46.28939" lon="5.9577">
        <ele>1524</ele>
        <time>2014-06-28T12:43:58.000Z</time>
      </trkpt>
      <trkpt lat="46.28932" lon="5.95767">
        <ele>1524</ele>
        <time>2014-06-28T12:44:08.000Z</time>
      </trkpt>
      <trkpt lat="46.28931" lon="5.95767">
        <ele>1524</ele>
        <time>2014-06-28T12:44:09.000Z</time>
      </trkpt>
      <trkpt lat="46.28923" lon="5.95761">
        <ele>1524</ele>
        <time>2014-06-28T12:44:18.000Z</time>
      </trkpt>
      <trkpt lat="46.28918" lon="5.95753">
        <ele>1524</ele>
        <time>2014-06-28T12:44:34.000Z</time>
      </trkpt>
      <trkpt lat="46.28913" lon="5.95749">
        <ele>1524</ele>
        <time>2014-06-28T12:44:46.000Z</time>
      </trkpt>
      <trkpt lat="46.28909" lon="5.95748">
        <ele>1525</ele>
        <time>2014-06-28T12:44:50.000Z</time>
      </trkpt>
      <trkpt lat="46.28907" lon="5.95746">
        <ele>1525</ele>
        <time>2014-06-28T12:44:52.000Z</time>
      </trkpt>
      <trkpt lat="46.28899" lon="5.95745">
        <ele>1525</ele>
        <time>2014-06-28T12:45:07.000Z</time>
      </trkpt>
      <trkpt lat="46.28891" lon="5.95748">
        <ele>1526</ele>
        <time>2014-06-28T12:45:16.000Z</time>
      </trkpt>
      <trkpt lat="46.28887" lon="5.95751">
        <ele>1535</ele>
        <time>2014-06-28T12:45:22.000Z</time>
      </trkpt>
      <trkpt lat="46.28872" lon="5.95748">
        <ele>1528</ele>
        <time>2014-06-28T12:45:35.000Z</time>
      </trkpt>
      <trkpt lat="46.28864" lon="5.95741">
        <ele>1529</ele>
        <time>2014-06-28T12:45:47.000Z</time>
      </trkpt>
      <trkpt lat="46.28863" lon="5.95741">
        <ele>1530</ele>
        <time>2014-06-28T12:45:51.000Z</time>
      </trkpt>
      <trkpt lat="46.28861" lon="5.95741">
        <ele>1530</ele>
        <time>2014-06-28T12:45:54.000Z</time>
      </trkpt>
      <trkpt lat="46.28858" lon="5.9574">
        <ele>1531</ele>
        <time>2014-06-28T12:45:57.000Z</time>
      </trkpt>
      <trkpt lat="46.28856" lon="5.95733">
        <ele>1530</ele>
        <time>2014-06-28T12:46:02.000Z</time>
      </trkpt>
      <trkpt lat="46.2885" lon="5.95718">
        <ele>1529</ele>
        <time>2014-06-28T12:46:16.000Z</time>
      </trkpt>
      <trkpt lat="46.28848" lon="5.95715">
        <ele>1529</ele>
        <time>2014-06-28T12:46:22.000Z</time>
      </trkpt>
      <trkpt lat="46.28844" lon="5.95708">
        <ele>1528</ele>
        <time>2014-06-28T12:46:35.000Z</time>
      </trkpt>
      <trkpt lat="46.2884" lon="5.95699">
        <ele>1528</ele>
        <time>2014-06-28T12:46:46.000Z</time>
      </trkpt>
      <trkpt lat="46.2884" lon="5.95698">
        <ele>1528</ele>
        <time>2014-06-28T12:46:49.000Z</time>
      </trkpt>
      <trkpt lat="46.2884" lon="5.95695">
        <ele>1528</ele>
        <time>2014-06-28T12:46:51.000Z</time>
      </trkpt>
      <trkpt lat="46.28836" lon="5.9569">
        <ele>1527</ele>
        <time>2014-06-28T12:47:00.000Z</time>
      </trkpt>
      <trkpt lat="46.2883" lon="5.95682">
        <ele>1534</ele>
        <time>2014-06-28T12:47:14.000Z</time>
      </trkpt>
      <trkpt lat="46.28825" lon="5.95678">
        <ele>1534</ele>
        <time>2014-06-28T12:47:25.000Z</time>
      </trkpt>
      <trkpt lat="46.28819" lon="5.95671">
        <ele>1534</ele>
        <time>2014-06-28T12:47:37.000Z</time>
      </trkpt>
      <trkpt lat="46.28817" lon="5.95667">
        <ele>1534</ele>
        <time>2014-06-28T12:47:41.000Z</time>
      </trkpt>
      <trkpt lat="46.28815" lon="5.95666">
        <ele>1527</ele>
        <time>2014-06-28T12:47:43.000Z</time>
      </trkpt>
      <trkpt lat="46.28811" lon="5.95665">
        <ele>1527</ele>
        <time>2014-06-28T12:47:48.000Z</time>
      </trkpt>
      <trkpt lat="46.28805" lon="5.95657">
        <ele>1527</ele>
        <time>2014-06-28T12:47:59.000Z</time>
      </trkpt>
      <trkpt lat="46.28802" lon="5.95655">
        <ele>1528</ele>
        <time>2014-06-28T12:48:03.000Z</time>
      </trkpt>
      <trkpt lat="46.28791" lon="5.95654">
        <ele>1528</ele>
        <time>2014-06-28T12:48:15.000Z</time>
      </trkpt>
      <trkpt lat="46.28787" lon="5.95653">
        <ele>1529</ele>
        <time>2014-06-28T12:48:19.000Z</time>
      </trkpt>
      <trkpt lat="46.28784" lon="5.95651">
        <ele>1529</ele>
        <time>2014-06-28T12:48:23.000Z</time>
      </trkpt>
      <trkpt lat="46.28776" lon="5.95648">
        <ele>1530</ele>
        <time>2014-06-28T12:48:32.000Z</time>
      </trkpt>
      <trkpt lat="46.28767" lon="5.95645">
        <ele>1530</ele>
        <time>2014-06-28T12:48:46.000Z</time>
      </trkpt>
      <trkpt lat="46.28765" lon="5.95642">
        <ele>1530</ele>
        <time>2014-06-28T12:48:52.000Z</time>
      </trkpt>
      <trkpt lat="46.2876" lon="5.95644">
        <ele>1531</ele>
        <time>2014-06-28T12:49:10.000Z</time>
      </trkpt>
      <trkpt lat="46.28744" lon="5.95635">
        <ele>1542</ele>
        <time>2014-06-28T12:49:20.000Z</time>
      </trkpt>
      <trkpt lat="46.28739" lon="5.95634">
        <ele>1543</ele>
        <time>2014-06-28T12:49:25.000Z</time>
      </trkpt>
      <trkpt lat="46.28736" lon="5.95633">
        <ele>1543</ele>
        <time>2014-06-28T12:49:28.000Z</time>
      </trkpt>
      <trkpt lat="46.28729" lon="5.9562">
        <ele>1542</ele>
        <time>2014-06-28T12:49:40.000Z</time>
      </trkpt>
      <trkpt lat="46.28728" lon="5.95619">
        <ele>1542</ele>
        <time>2014-06-28T12:49:41.000Z</time>
      </trkpt>
      <trkpt lat="46.28719" lon="5.9561">
        <ele>1543</ele>
        <time>2014-06-28T12:49:53.000Z</time>
      </trkpt>
      <trkpt lat="46.28713" lon="5.95602">
        <ele>1543</ele>
        <time>2014-06-28T12:50:04.000Z</time>
      </trkpt>
      <trkpt lat="46.28709" lon="5.95591">
        <ele>1543</ele>
        <time>2014-06-28T12:50:13.000Z</time>
      </trkpt>
      <trkpt lat="46.28707" lon="5.95588">
        <ele>1544</ele>
        <time>2014-06-28T12:50:17.000Z</time>
      </trkpt>
      <trkpt lat="46.28706" lon="5.9558">
        <ele>1536</ele>
        <time>2014-06-28T12:50:25.000Z</time>
      </trkpt>
      <trkpt lat="46.28699" lon="5.95573">
        <ele>1538</ele>
        <time>2014-06-28T12:50:35.000Z</time>
      </trkpt>
      <trkpt lat="46.28691" lon="5.95566">
        <ele>1539</ele>
        <time>2014-06-28T12:50:44.000Z</time>
      </trkpt>
      <trkpt lat="46.28686" lon="5.95559">
        <ele>1539</ele>
        <time>2014-06-28T12:50:52.000Z</time>
      </trkpt>
      <trkpt lat="46.2868" lon="5.9555">
        <ele>1539</ele>
        <time>2014-06-28T12:51:01.000Z</time>
      </trkpt>
      <trkpt lat="46.2868" lon="5.95549">
        <ele>1539</ele>
        <time>2014-06-28T12:51:02.000Z</time>
      </trkpt>
      <trkpt lat="46.28679" lon="5.95544">
        <ele>1538</ele>
        <time>2014-06-28T12:51:06.000Z</time>
      </trkpt>
      <trkpt lat="46.28671" lon="5.9554">
        <ele>1538</ele>
        <time>2014-06-28T12:51:16.000Z</time>
      </trkpt>
      <trkpt lat="46.28662" lon="5.95534">
        <ele>1556</ele>
        <time>2014-06-28T12:51:25.000Z</time>
      </trkpt>
      <trkpt lat="46.2866" lon="5.95531">
        <ele>1555</ele>
        <time>2014-06-28T12:51:29.000Z</time>
      </trkpt>
      <trkpt lat="46.28656" lon="5.95525">
        <ele>1554</ele>
        <time>2014-06-28T12:51:39.000Z</time>
      </trkpt>
      <trkpt lat="46.28654" lon="5.95521">
        <ele>1554</ele>
        <time>2014-06-28T12:51:46.000Z</time>
      </trkpt>
      <trkpt lat="46.2865" lon="5.95517">
        <ele>1554</ele>
        <time>2014-06-28T12:51:53.000Z</time>
      </trkpt>
      <trkpt lat="46.28648" lon="5.95517">
        <ele>1554</ele>
        <time>2014-06-28T12:51:55.000Z</time>
      </trkpt>
      <trkpt lat="46.28645" lon="5.95515">
        <ele>1555</ele>
        <time>2014-06-28T12:51:59.000Z</time>
      </trkpt>
      <trkpt lat="46.28639" lon="5.95511">
        <ele>1556</ele>
        <time>2014-06-28T12:52:12.000Z</time>
      </trkpt>
      <trkpt lat="46.28639" lon="5.95512">
        <ele>1556</ele>
        <time>2014-06-28T12:52:13.000Z</time>
      </trkpt>
      <trkpt lat="46.28638" lon="5.95515">
        <ele>1557</ele>
        <time>2014-06-28T12:52:15.000Z</time>
      </trkpt>
      <trkpt lat="46.28626" lon="5.95505">
        <ele>1559</ele>
        <time>2014-06-28T12:52:25.000Z</time>
      </trkpt>
      <trkpt lat="46.28616" lon="5.95497">
        <ele>1553</ele>
        <time>2014-06-28T12:52:36.000Z</time>
      </trkpt>
      <trkpt lat="46.28616" lon="5.95497">
        <ele>1553</ele>
        <time>2014-06-28T12:52:37.000Z</time>
      </trkpt>
      <trkpt lat="46.28615" lon="5.95495">
        <ele>1553</ele>
        <time>2014-06-28T12:52:39.000Z</time>
      </trkpt>
      <trkpt lat="46.28612" lon="5.95494">
        <ele>1554</ele>
        <time>2014-06-28T12:52:42.000Z</time>
      </trkpt>
      <trkpt lat="46.28608" lon="5.9549">
        <ele>1555</ele>
        <time>2014-06-28T12:52:48.000Z</time>
      </trkpt>
      <trkpt lat="46.28605" lon="5.95484">
        <ele>1555</ele>
        <time>2014-06-28T12:52:52.000Z</time>
      </trkpt>
      <trkpt lat="46.28602" lon="5.95476">
        <ele>1554</ele>
        <time>2014-06-28T12:52:58.000Z</time>
      </trkpt>
      <trkpt lat="46.28599" lon="5.95466">
        <ele>1553</ele>
        <time>2014-06-28T12:53:07.000Z</time>
      </trkpt>
      <trkpt lat="46.28595" lon="5.95464">
        <ele>1553</ele>
        <time>2014-06-28T12:53:11.000Z</time>
      </trkpt>
      <trkpt lat="46.2859" lon="5.95464">
        <ele>1553</ele>
        <time>2014-06-28T12:53:14.000Z</time>
      </trkpt>
      <trkpt lat="46.28585" lon="5.95463">
        <ele>1554</ele>
        <time>2014-06-28T12:53:19.000Z</time>
      </trkpt>
      <trkpt lat="46.28576" lon="5.9546">
        <ele>1569</ele>
        <time>2014-06-28T12:53:31.000Z</time>
      </trkpt>
      <trkpt lat="46.28572" lon="5.95455">
        <ele>1568</ele>
        <time>2014-06-28T12:53:38.000Z</time>
      </trkpt>
      <trkpt lat="46.2857" lon="5.95452">
        <ele>1568</ele>
        <time>2014-06-28T12:53:41.000Z</time>
      </trkpt>
      <trkpt lat="46.28564" lon="5.95451">
        <ele>1569</ele>
        <time>2014-06-28T12:53:49.000Z</time>
      </trkpt>
      <trkpt lat="46.28559" lon="5.95447">
        <ele>1569</ele>
        <time>2014-06-28T12:53:53.000Z</time>
      </trkpt>
      <trkpt lat="46.28556" lon="5.95447">
        <ele>1569</ele>
        <time>2014-06-28T12:53:56.000Z</time>
      </trkpt>
      <trkpt lat="46.2855" lon="5.95445">
        <ele>1570</ele>
        <time>2014-06-28T12:54:02.000Z</time>
      </trkpt>
      <trkpt lat="46.28546" lon="5.95446">
        <ele>1571</ele>
        <time>2014-06-28T12:54:05.000Z</time>
      </trkpt>
      <trkpt lat="46.28532" lon="5.95443">
        <ele>1573</ele>
        <time>2014-06-28T12:54:18.000Z</time>
      </trkpt>
      <trkpt lat="46.28531" lon="5.95444">
        <ele>1573</ele>
        <time>2014-06-28T12:54:20.000Z</time>
      </trkpt>
      <trkpt lat="46.28528" lon="5.95443">
        <ele>1573</ele>
        <time>2014-06-28T12:54:24.000Z</time>
      </trkpt>
      <trkpt lat="46.28525" lon="5.95441">
        <ele>1574</ele>
        <time>2014-06-28T12:54:28.000Z</time>
      </trkpt>
      <trkpt lat="46.28518" lon="5.95438">
        <ele>1574</ele>
        <time>2014-06-28T12:54:39.000Z</time>
      </trkpt>
      <trkpt lat="46.28515" lon="5.95437">
        <ele>1574</ele>
        <time>2014-06-28T12:54:44.000Z</time>
      </trkpt>
      <trkpt lat="46.2851" lon="5.95433">
        <ele>1574</ele>
        <time>2014-06-28T12:54:53.000Z</time>
      </trkpt>
      <trkpt lat="46.28506" lon="5.95426">
        <ele>1574</ele>
        <time>2014-06-28T12:55:01.000Z</time>
      </trkpt>
      <trkpt lat="46.28508" lon="5.95418">
        <ele>1574</ele>
        <time>2014-06-28T12:55:04.000Z</time>
      </trkpt>
      <trkpt lat="46.28507" lon="5.95415">
        <ele>1571</ele>
        <time>2014-06-28T12:55:07.000Z</time>
      </trkpt>
      <trkpt lat="46.28503" lon="5.95413">
        <ele>1572</ele>
        <time>2014-06-28T12:55:11.000Z</time>
      </trkpt>
      <trkpt lat="46.28503" lon="5.95412">
        <ele>1572</ele>
        <time>2014-06-28T12:55:12.000Z</time>
      </trkpt>
      <trkpt lat="46.28497" lon="5.95398">
        <ele>1578</ele>
        <time>2014-06-28T12:55:25.000Z</time>
      </trkpt>
      <trkpt lat="46.28497" lon="5.95392">
        <ele>1579</ele>
        <time>2014-06-28T12:55:30.000Z</time>
      </trkpt>
      <trkpt lat="46.285" lon="5.95378">
        <ele>1563</ele>
        <time>2014-06-28T12:55:39.000Z</time>
      </trkpt>
      <trkpt lat="46.28499" lon="5.9536">
        <ele>1575</ele>
        <time>2014-06-28T12:55:50.000Z</time>
      </trkpt>
      <trkpt lat="46.28494" lon="5.95344">
        <ele>1571</ele>
        <time>2014-06-28T12:56:02.000Z</time>
      </trkpt>
      <trkpt lat="46.2849" lon="5.95332">
        <ele>1566</ele>
        <time>2014-06-28T12:56:13.000Z</time>
      </trkpt>
      <trkpt lat="46.28489" lon="5.95329">
        <ele>1566</ele>
        <time>2014-06-28T12:56:15.000Z</time>
      </trkpt>
      <trkpt lat="46.28486" lon="5.9532">
        <ele>1567</ele>
        <time>2014-06-28T12:56:21.000Z</time>
      </trkpt>
      <trkpt lat="46.28484" lon="5.9531">
        <ele>1567</ele>
        <time>2014-06-28T12:56:27.000Z</time>
      </trkpt>
      <trkpt lat="46.2848" lon="5.95305">
        <ele>1567</ele>
        <time>2014-06-28T12:56:42.000Z</time>
      </trkpt>
      <trkpt lat="46.28479" lon="5.95305">
        <ele>1567</ele>
        <time>2014-06-28T12:57:06.000Z</time>
      </trkpt>
      <trkpt lat="46.28482" lon="5.95302">
        <ele>1567</ele>
        <time>2014-06-28T12:59:47.000Z</time>
      </trkpt>
      <trkpt lat="46.28474" lon="5.95291">
        <ele>1567</ele>
        <time>2014-06-28T12:59:58.000Z</time>
      </trkpt>
      <trkpt lat="46.28461" lon="5.95282">
        <ele>1568</ele>
        <time>2014-06-28T13:00:12.000Z</time>
      </trkpt>
      <trkpt lat="46.28459" lon="5.9528">
        <ele>1568</ele>
        <time>2014-06-28T13:00:14.000Z</time>
      </trkpt>
      <trkpt lat="46.28456" lon="5.95279">
        <ele>1568</ele>
        <time>2014-06-28T13:00:17.000Z</time>
      </trkpt>
      <trkpt lat="46.28454" lon="5.95278">
        <ele>1568</ele>
        <time>2014-06-28T13:00:19.000Z</time>
      </trkpt>
      <trkpt lat="46.28452" lon="5.95278">
        <ele>1568</ele>
        <time>2014-06-28T13:00:21.000Z</time>
      </trkpt>
      <trkpt lat="46.28447" lon="5.95278">
        <ele>1569</ele>
        <time>2014-06-28T13:00:26.000Z</time>
      </trkpt>
      <trkpt lat="46.28444" lon="5.95276">
        <ele>1569</ele>
        <time>2014-06-28T13:00:29.000Z</time>
      </trkpt>
      <trkpt lat="46.28432" lon="5.9527">
        <ele>1570</ele>
        <time>2014-06-28T13:00:39.000Z</time>
      </trkpt>
      <trkpt lat="46.2843" lon="5.9527">
        <ele>1570</ele>
        <time>2014-06-28T13:00:41.000Z</time>
      </trkpt>
      <trkpt lat="46.28427" lon="5.95269">
        <ele>1570</ele>
        <time>2014-06-28T13:00:44.000Z</time>
      </trkpt>
      <trkpt lat="46.28425" lon="5.95267">
        <ele>1570</ele>
        <time>2014-06-28T13:00:46.000Z</time>
      </trkpt>
      <trkpt lat="46.28421" lon="5.95264">
        <ele>1570</ele>
        <time>2014-06-28T13:00:50.000Z</time>
      </trkpt>
      <trkpt lat="46.28419" lon="5.95261">
        <ele>1570</ele>
        <time>2014-06-28T13:00:52.000Z</time>
      </trkpt>
      <trkpt lat="46.28416" lon="5.9526">
        <ele>1577</ele>
        <time>2014-06-28T13:00:55.000Z</time>
      </trkpt>
      <trkpt lat="46.28414" lon="5.95259">
        <ele>1577</ele>
        <time>2014-06-28T13:00:57.000Z</time>
      </trkpt>
      <trkpt lat="46.28407" lon="5.95258">
        <ele>1579</ele>
        <time>2014-06-28T13:01:04.000Z</time>
      </trkpt>
      <trkpt lat="46.28399" lon="5.95256">
        <ele>1581</ele>
        <time>2014-06-28T13:01:10.000Z</time>
      </trkpt>
      <trkpt lat="46.28397" lon="5.95254">
        <ele>1582</ele>
        <time>2014-06-28T13:01:12.000Z</time>
      </trkpt>
      <trkpt lat="46.28391" lon="5.95255">
        <ele>1585</ele>
        <time>2014-06-28T13:01:17.000Z</time>
      </trkpt>
      <trkpt lat="46.28389" lon="5.95245">
        <ele>1581</ele>
        <time>2014-06-28T13:01:23.000Z</time>
      </trkpt>
      <trkpt lat="46.28389" lon="5.95238">
        <ele>1581</ele>
        <time>2014-06-28T13:01:27.000Z</time>
      </trkpt>
      <trkpt lat="46.28388" lon="5.95222">
        <ele>1582</ele>
        <time>2014-06-28T13:01:39.000Z</time>
      </trkpt>
      <trkpt lat="46.28388" lon="5.9522">
        <ele>1582</ele>
        <time>2014-06-28T13:01:40.000Z</time>
      </trkpt>
      <trkpt lat="46.28384" lon="5.95212">
        <ele>1582</ele>
        <time>2014-06-28T13:01:49.000Z</time>
      </trkpt>
      <trkpt lat="46.28384" lon="5.95201">
        <ele>1582</ele>
        <time>2014-06-28T13:01:57.000Z</time>
      </trkpt>
      <trkpt lat="46.28384" lon="5.9519">
        <ele>1581</ele>
        <time>2014-06-28T13:02:10.000Z</time>
      </trkpt>
      <trkpt lat="46.28382" lon="5.95188">
        <ele>1582</ele>
        <time>2014-06-28T13:02:12.000Z</time>
      </trkpt>
      <trkpt lat="46.28382" lon="5.95186">
        <ele>1582</ele>
        <time>2014-06-28T13:02:14.000Z</time>
      </trkpt>
      <trkpt lat="46.28383" lon="5.95181">
        <ele>1581</ele>
        <time>2014-06-28T13:02:17.000Z</time>
      </trkpt>
      <trkpt lat="46.28383" lon="5.95164">
        <ele>1578</ele>
        <time>2014-06-28T13:02:27.000Z</time>
      </trkpt>
      <trkpt lat="46.28383" lon="5.95161">
        <ele>1578</ele>
        <time>2014-06-28T13:02:29.000Z</time>
      </trkpt>
      <trkpt lat="46.28384" lon="5.95158">
        <ele>1578</ele>
        <time>2014-06-28T13:02:31.000Z</time>
      </trkpt>
      <trkpt lat="46.28383" lon="5.95145">
        <ele>1578</ele>
        <time>2014-06-28T13:02:43.000Z</time>
      </trkpt>
      <trkpt lat="46.28377" lon="5.95135">
        <ele>1580</ele>
        <time>2014-06-28T13:02:53.000Z</time>
      </trkpt>
      <trkpt lat="46.28376" lon="5.95119">
        <ele>1580</ele>
        <time>2014-06-28T13:03:06.000Z</time>
      </trkpt>
      <trkpt lat="46.28375" lon="5.95115">
        <ele>1580</ele>
        <time>2014-06-28T13:03:10.000Z</time>
      </trkpt>
      <trkpt lat="46.28371" lon="5.95104">
        <ele>1581</ele>
        <time>2014-06-28T13:03:18.000Z</time>
      </trkpt>
      <trkpt lat="46.2837" lon="5.95091">
        <ele>1581</ele>
        <time>2014-06-28T13:03:26.000Z</time>
      </trkpt>
      <trkpt lat="46.2837" lon="5.95086">
        <ele>1581</ele>
        <time>2014-06-28T13:03:29.000Z</time>
      </trkpt>
      <trkpt lat="46.28369" lon="5.95081">
        <ele>1574</ele>
        <time>2014-06-28T13:03:33.000Z</time>
      </trkpt>
      <trkpt lat="46.2836" lon="5.95069">
        <ele>1577</ele>
        <time>2014-06-28T13:03:45.000Z</time>
      </trkpt>
      <trkpt lat="46.28357" lon="5.95063">
        <ele>1576</ele>
        <time>2014-06-28T13:03:55.000Z</time>
      </trkpt>
      <trkpt lat="46.28356" lon="5.95064">
        <ele>1577</ele>
        <time>2014-06-28T13:05:36.000Z</time>
      </trkpt>
      <trkpt lat="46.28353" lon="5.95061">
        <ele>1577</ele>
        <time>2014-06-28T13:06:13.000Z</time>
      </trkpt>
      <trkpt lat="46.28354" lon="5.95063">
        <ele>1578</ele>
        <time>2014-06-28T13:09:30.000Z</time>
      </trkpt>
      <trkpt lat="46.28354" lon="5.95063">
        <ele>1578</ele>
        <time>2014-06-28T13:09:33.000Z</time>
      </trkpt>
      <trkpt lat="46.28353" lon="5.95061">
        <ele>1577</ele>
        <time>2014-06-28T13:10:09.000Z</time>
      </trkpt>
      <trkpt lat="46.2835" lon="5.95057">
        <ele>1577</ele>
        <time>2014-06-28T13:10:23.000Z</time>
      </trkpt>
      <trkpt lat="46.28347" lon="5.95055">
        <ele>1577</ele>
        <time>2014-06-28T13:10:27.000Z</time>
      </trkpt>
      <trkpt lat="46.28341" lon="5.95053">
        <ele>1578</ele>
        <time>2014-06-28T13:10:33.000Z</time>
      </trkpt>
      <trkpt lat="46.28334" lon="5.95036">
        <ele>1575</ele>
        <time>2014-06-28T13:10:47.000Z</time>
      </trkpt>
      <trkpt lat="46.28324" lon="5.95031">
        <ele>1592</ele>
        <time>2014-06-28T13:10:56.000Z</time>
      </trkpt>
      <trkpt lat="46.28322" lon="5.9503">
        <ele>1592</ele>
        <time>2014-06-28T13:10:59.000Z</time>
      </trkpt>
      <trkpt lat="46.28316" lon="5.95027">
        <ele>1592</ele>
        <time>2014-06-28T13:11:06.000Z</time>
      </trkpt>
      <trkpt lat="46.28312" lon="5.95024">
        <ele>1592</ele>
        <time>2014-06-28T13:11:11.000Z</time>
      </trkpt>
      <trkpt lat="46.2831" lon="5.95025">
        <ele>1593</ele>
        <time>2014-06-28T13:11:14.000Z</time>
      </trkpt>
      <trkpt lat="46.28301" lon="5.9503">
        <ele>1595</ele>
        <time>2014-06-28T13:11:24.000Z</time>
      </trkpt>
      <trkpt lat="46.28299" lon="5.95031">
        <ele>1595</ele>
        <time>2014-06-28T13:11:28.000Z</time>
      </trkpt>
      <trkpt lat="46.28291" lon="5.95033">
        <ele>1597</ele>
        <time>2014-06-28T13:11:38.000Z</time>
      </trkpt>
      <trkpt lat="46.28289" lon="5.95034">
        <ele>1597</ele>
        <time>2014-06-28T13:11:43.000Z</time>
      </trkpt>
      <trkpt lat="46.28283" lon="5.95035">
        <ele>1598</ele>
        <time>2014-06-28T13:12:27.000Z</time>
      </trkpt>
      <trkpt lat="46.28271" lon="5.95041">
        <ele>1600</ele>
        <time>2014-06-28T13:12:39.000Z</time>
      </trkpt>
      <trkpt lat="46.28268" lon="5.95042">
        <ele>1600</ele>
        <time>2014-06-28T13:12:41.000Z</time>
      </trkpt>
      <trkpt lat="46.28258" lon="5.95044">
        <ele>1602</ele>
        <time>2014-06-28T13:12:50.000Z</time>
      </trkpt>
      <trkpt lat="46.28254" lon="5.95048">
        <ele>1603</ele>
        <time>2014-06-28T13:12:54.000Z</time>
      </trkpt>
      <trkpt lat="46.28241" lon="5.95051">
        <ele>1610</ele>
        <time>2014-06-28T13:13:03.000Z</time>
      </trkpt>
      <trkpt lat="46.28231" lon="5.95054">
        <ele>1611</ele>
        <time>2014-06-28T13:13:10.000Z</time>
      </trkpt>
      <trkpt lat="46.28221" lon="5.95064">
        <ele>1612</ele>
        <time>2014-06-28T13:13:21.000Z</time>
      </trkpt>
      <trkpt lat="46.28208" lon="5.95069">
        <ele>1612</ele>
        <time>2014-06-28T13:13:31.000Z</time>
      </trkpt>
      <trkpt lat="46.28203" lon="5.95071">
        <ele>1612</ele>
        <time>2014-06-28T13:13:35.000Z</time>
      </trkpt>
      <trkpt lat="46.28185" lon="5.95073">
        <ele>1614</ele>
        <time>2014-06-28T13:13:48.000Z</time>
      </trkpt>
      <trkpt lat="46.28175" lon="5.95073">
        <ele>1615</ele>
        <time>2014-06-28T13:13:57.000Z</time>
      </trkpt>
      <trkpt lat="46.28173" lon="5.95072">
        <ele>1615</ele>
        <time>2014-06-28T13:14:00.000Z</time>
      </trkpt>
      <trkpt lat="46.28157" lon="5.9507">
        <ele>1617</ele>
        <time>2014-06-28T13:14:11.000Z</time>
      </trkpt>
      <trkpt lat="46.28147" lon="5.95072">
        <ele>1617</ele>
        <time>2014-06-28T13:14:20.000Z</time>
      </trkpt>
      <trkpt lat="46.28145" lon="5.95074">
        <ele>1617</ele>
        <time>2014-06-28T13:14:22.000Z</time>
      </trkpt>
      <trkpt lat="46.28139" lon="5.95076">
        <ele>1617</ele>
        <time>2014-06-28T13:14:26.000Z</time>
      </trkpt>
      <trkpt lat="46.28131" lon="5.95081">
        <ele>1617</ele>
        <time>2014-06-28T13:14:35.000Z</time>
      </trkpt>
      <trkpt lat="46.28131" lon="5.95081">
        <ele>1617</ele>
        <time>2014-06-28T13:16:24.000Z</time>
      </trkpt>
      <trkpt lat="46.28124" lon="5.9509">
        <ele>1628</ele>
        <time>2014-06-28T13:16:47.000Z</time>
      </trkpt>
      <trkpt lat="46.28115" lon="5.95102">
        <ele>1629</ele>
        <time>2014-06-28T13:16:58.000Z</time>
      </trkpt>
      <trkpt lat="46.2811" lon="5.95106">
        <ele>1630</ele>
        <time>2014-06-28T13:17:04.000Z</time>
      </trkpt>
      <trkpt lat="46.28096" lon="5.9511">
        <ele>1630</ele>
        <time>2014-06-28T13:17:17.000Z</time>
      </trkpt>
      <trkpt lat="46.28091" lon="5.95108">
        <ele>1630</ele>
        <time>2014-06-28T13:17:22.000Z</time>
      </trkpt>
      <trkpt lat="46.28087" lon="5.95104">
        <ele>1630</ele>
        <time>2014-06-28T13:17:26.000Z</time>
      </trkpt>
      <trkpt lat="46.28078" lon="5.95095">
        <ele>1632</ele>
        <time>2014-06-28T13:17:37.000Z</time>
      </trkpt>
      <trkpt lat="46.28068" lon="5.95085">
        <ele>1633</ele>
        <time>2014-06-28T13:17:49.000Z</time>
      </trkpt>
      <trkpt lat="46.28065" lon="5.95083">
        <ele>1634</ele>
        <time>2014-06-28T13:17:53.000Z</time>
      </trkpt>
      <trkpt lat="46.28062" lon="5.95078">
        <ele>1624</ele>
        <time>2014-06-28T13:17:57.000Z</time>
      </trkpt>
      <trkpt lat="46.28057" lon="5.95072">
        <ele>1624</ele>
        <time>2014-06-28T13:18:01.000Z</time>
      </trkpt>
      <trkpt lat="46.28046" lon="5.95068">
        <ele>1624</ele>
        <time>2014-06-28T13:18:10.000Z</time>
      </trkpt>
      <trkpt lat="46.2804" lon="5.9506">
        <ele>1624</ele>
        <time>2014-06-28T13:18:17.000Z</time>
      </trkpt>
      <trkpt lat="46.28024" lon="5.95054">
        <ele>1625</ele>
        <time>2014-06-28T13:18:32.000Z</time>
      </trkpt>
      <trkpt lat="46.28022" lon="5.95054">
        <ele>1625</ele>
        <time>2014-06-28T13:18:34.000Z</time>
      </trkpt>
      <trkpt lat="46.28014" lon="5.95052">
        <ele>1625</ele>
        <time>2014-06-28T13:18:43.000Z</time>
      </trkpt>
      <trkpt lat="46.28008" lon="5.95054">
        <ele>1626</ele>
        <time>2014-06-28T13:18:53.000Z</time>
      </trkpt>
      <trkpt lat="46.28004" lon="5.95053">
        <ele>1626</ele>
        <time>2014-06-28T13:19:00.000Z</time>
      </trkpt>
      <trkpt lat="46.27999" lon="5.95058">
        <ele>1633</ele>
        <time>2014-06-28T13:19:11.000Z</time>
      </trkpt>
      <trkpt lat="46.27998" lon="5.95057">
        <ele>1633</ele>
        <time>2014-06-28T13:19:13.000Z</time>
      </trkpt>
      <trkpt lat="46.27987" lon="5.95061">
        <ele>1633</ele>
        <time>2014-06-28T13:19:26.000Z</time>
      </trkpt>
      <trkpt lat="46.27981" lon="5.9506">
        <ele>1633</ele>
        <time>2014-06-28T13:19:33.000Z</time>
      </trkpt>
      <trkpt lat="46.27975" lon="5.95064">
        <ele>1634</ele>
        <time>2014-06-28T13:19:43.000Z</time>
      </trkpt>
      <trkpt lat="46.27969" lon="5.95071">
        <ele>1634</ele>
        <time>2014-06-28T13:19:57.000Z</time>
      </trkpt>
      <trkpt lat="46.27969" lon="5.95077">
        <ele>1635</ele>
        <time>2014-06-28T13:20:09.000Z</time>
      </trkpt>
      <trkpt lat="46.27964" lon="5.95085">
        <ele>1647</ele>
        <time>2014-06-28T13:20:19.000Z</time>
      </trkpt>
      <trkpt lat="46.27958" lon="5.95086">
        <ele>1648</ele>
        <time>2014-06-28T13:20:27.000Z</time>
      </trkpt>
      <trkpt lat="46.27957" lon="5.9508">
        <ele>1636</ele>
        <time>2014-06-28T13:20:32.000Z</time>
      </trkpt>
      <trkpt lat="46.27953" lon="5.95077">
        <ele>1636</ele>
        <time>2014-06-28T13:20:38.000Z</time>
      </trkpt>
      <trkpt lat="46.27944" lon="5.95076">
        <ele>1637</ele>
        <time>2014-06-28T13:20:54.000Z</time>
      </trkpt>
      <trkpt lat="46.27935" lon="5.95073">
        <ele>1638</ele>
        <time>2014-06-28T13:21:08.000Z</time>
      </trkpt>
      <trkpt lat="46.27928" lon="5.95076">
        <ele>1640</ele>
        <time>2014-06-28T13:21:19.000Z</time>
      </trkpt>
      <trkpt lat="46.27925" lon="5.95076">
        <ele>1641</ele>
        <time>2014-06-28T13:21:23.000Z</time>
      </trkpt>
      <trkpt lat="46.27923" lon="5.95077">
        <ele>1642</ele>
        <time>2014-06-28T13:21:25.000Z</time>
      </trkpt>
      <trkpt lat="46.27913" lon="5.95084">
        <ele>1648</ele>
        <time>2014-06-28T13:21:34.000Z</time>
      </trkpt>
      <trkpt lat="46.27906" lon="5.95093">
        <ele>1652</ele>
        <time>2014-06-28T13:21:45.000Z</time>
      </trkpt>
      <trkpt lat="46.27902" lon="5.95099">
        <ele>1654</ele>
        <time>2014-06-28T13:21:53.000Z</time>
      </trkpt>
      <trkpt lat="46.2789" lon="5.95109">
        <ele>1656</ele>
        <time>2014-06-28T13:22:09.000Z</time>
      </trkpt>
      <trkpt lat="46.27886" lon="5.9512">
        <ele>1658</ele>
        <time>2014-06-28T13:22:17.000Z</time>
      </trkpt>
      <trkpt lat="46.27884" lon="5.95122">
        <ele>1658</ele>
        <time>2014-06-28T13:22:19.000Z</time>
      </trkpt>
      <trkpt lat="46.27878" lon="5.95135">
        <ele>1660</ele>
        <time>2014-06-28T13:22:31.000Z</time>
      </trkpt>
      <trkpt lat="46.27871" lon="5.95139">
        <ele>1661</ele>
        <time>2014-06-28T13:22:39.000Z</time>
      </trkpt>
      <trkpt lat="46.27862" lon="5.9514">
        <ele>1661</ele>
        <time>2014-06-28T13:22:44.000Z</time>
      </trkpt>
      <trkpt lat="46.27854" lon="5.95145">
        <ele>1662</ele>
        <time>2014-06-28T13:22:56.000Z</time>
      </trkpt>
      <trkpt lat="46.27844" lon="5.95149">
        <ele>1664</ele>
        <time>2014-06-28T13:23:06.000Z</time>
      </trkpt>
      <trkpt lat="46.27832" lon="5.95152">
        <ele>1668</ele>
        <time>2014-06-28T13:23:16.000Z</time>
      </trkpt>
      <trkpt lat="46.27821" lon="5.95156">
        <ele>1668</ele>
        <time>2014-06-28T13:23:26.000Z</time>
      </trkpt>
      <trkpt lat="46.27815" lon="5.95159">
        <ele>1668</ele>
        <time>2014-06-28T13:23:32.000Z</time>
      </trkpt>
      <trkpt lat="46.27811" lon="5.95159">
        <ele>1668</ele>
        <time>2014-06-28T13:23:36.000Z</time>
      </trkpt>
      <trkpt lat="46.27803" lon="5.95171">
        <ele>1672</ele>
        <time>2014-06-28T13:23:47.000Z</time>
      </trkpt>
      <trkpt lat="46.27795" lon="5.95178">
        <ele>1673</ele>
        <time>2014-06-28T13:23:57.000Z</time>
      </trkpt>
      <trkpt lat="46.27795" lon="5.95178">
        <ele>1673</ele>
        <time>2014-06-28T13:23:58.000Z</time>
      </trkpt>
      <trkpt lat="46.27789" lon="5.95176">
        <ele>1673</ele>
        <time>2014-06-28T13:24:07.000Z</time>
      </trkpt>
      <trkpt lat="46.27788" lon="5.95176">
        <ele>1673</ele>
        <time>2014-06-28T13:24:08.000Z</time>
      </trkpt>
      <trkpt lat="46.27784" lon="5.95177">
        <ele>1673</ele>
        <time>2014-06-28T13:24:12.000Z</time>
      </trkpt>
      <trkpt lat="46.27782" lon="5.95179">
        <ele>1673</ele>
        <time>2014-06-28T13:24:14.000Z</time>
      </trkpt>
      <trkpt lat="46.27778" lon="5.95184">
        <ele>1673</ele>
        <time>2014-06-28T13:24:27.000Z</time>
      </trkpt>
      <trkpt lat="46.27777" lon="5.95186">
        <ele>1673</ele>
        <time>2014-06-28T13:24:56.000Z</time>
      </trkpt>
      <trkpt lat="46.27777" lon="5.95186">
        <ele>1673</ele>
        <time>2014-06-28T13:24:57.000Z</time>
      </trkpt>
      <trkpt lat="46.27777" lon="5.95187">
        <ele>1673</ele>
        <time>2014-06-28T13:25:18.000Z</time>
      </trkpt>
      <trkpt lat="46.27777" lon="5.95188">
        <ele>1673</ele>
        <time>2014-06-28T13:26:14.000Z</time>
      </trkpt>
      <trkpt lat="46.27779" lon="5.95188">
        <ele>1673</ele>
        <time>2014-06-28T13:26:44.000Z</time>
      </trkpt>
      <trkpt lat="46.27777" lon="5.95187">
        <ele>1673</ele>
        <time>2014-06-28T13:29:18.000Z</time>
      </trkpt>
      <trkpt lat="46.27779" lon="5.95188">
        <ele>1673</ele>
        <time>2014-06-28T13:29:37.000Z</time>
      </trkpt>
      <trkpt lat="46.27779" lon="5.95188">
        <ele>1673</ele>
        <time>2014-06-28T13:30:20.000Z</time>
      </trkpt>
      <trkpt lat="46.27776" lon="5.95182">
        <ele>1673</ele>
        <time>2014-06-28T13:30:35.000Z</time>
      </trkpt>
      <trkpt lat="46.27774" lon="5.95178">
        <ele>1673</ele>
        <time>2014-06-28T13:30:39.000Z</time>
      </trkpt>
      <trkpt lat="46.27769" lon="5.9517">
        <ele>1673</ele>
        <time>2014-06-28T13:30:45.000Z</time>
      </trkpt>
      <trkpt lat="46.27765" lon="5.95166">
        <ele>1670</ele>
        <time>2014-06-28T13:30:49.000Z</time>
      </trkpt>
      <trkpt lat="46.27761" lon="5.95162">
        <ele>1671</ele>
        <time>2014-06-28T13:30:52.000Z</time>
      </trkpt>
      <trkpt lat="46.27759" lon="5.95157">
        <ele>1670</ele>
        <time>2014-06-28T13:30:55.000Z</time>
      </trkpt>
      <trkpt lat="46.27755" lon="5.95149">
        <ele>1670</ele>
        <time>2014-06-28T13:31:00.000Z</time>
      </trkpt>
      <trkpt lat="46.27751" lon="5.95141">
        <ele>1669</ele>
        <time>2014-06-28T13:31:05.000Z</time>
      </trkpt>
      <trkpt lat="46.27738" lon="5.95127">
        <ele>1669</ele>
        <time>2014-06-28T13:31:17.000Z</time>
      </trkpt>
      <trkpt lat="46.27737" lon="5.95125">
        <ele>1669</ele>
        <time>2014-06-28T13:31:18.000Z</time>
      </trkpt>
      <trkpt lat="46.27735" lon="5.95114">
        <ele>1668</ele>
        <time>2014-06-28T13:31:23.000Z</time>
      </trkpt>
      <trkpt lat="46.27731" lon="5.95106">
        <ele>1668</ele>
        <time>2014-06-28T13:31:28.000Z</time>
      </trkpt>
      <trkpt lat="46.27724" lon="5.95097">
        <ele>1668</ele>
        <time>2014-06-28T13:31:35.000Z</time>
      </trkpt>
      <trkpt lat="46.2772" lon="5.95089">
        <ele>1668</ele>
        <time>2014-06-28T13:31:41.000Z</time>
      </trkpt>
      <trkpt lat="46.27717" lon="5.95079">
        <ele>1667</ele>
        <time>2014-06-28T13:31:47.000Z</time>
      </trkpt>
      <trkpt lat="46.27715" lon="5.95076">
        <ele>1667</ele>
        <time>2014-06-28T13:31:50.000Z</time>
      </trkpt>
      <trkpt lat="46.27707" lon="5.95078">
        <ele>1667</ele>
        <time>2014-06-28T13:31:59.000Z</time>
      </trkpt>
      <trkpt lat="46.27702" lon="5.95074">
        <ele>1668</ele>
        <time>2014-06-28T13:32:05.000Z</time>
      </trkpt>
      <trkpt lat="46.27694" lon="5.95074">
        <ele>1668</ele>
        <time>2014-06-28T13:32:10.000Z</time>
      </trkpt>
      <trkpt lat="46.27693" lon="5.95074">
        <ele>1668</ele>
        <time>2014-06-28T13:32:11.000Z</time>
      </trkpt>
      <trkpt lat="46.2768" lon="5.9506">
        <ele>1668</ele>
        <time>2014-06-28T13:32:24.000Z</time>
      </trkpt>
      <trkpt lat="46.27668" lon="5.95052">
        <ele>1668</ele>
        <time>2014-06-28T13:32:35.000Z</time>
      </trkpt>
      <trkpt lat="46.27667" lon="5.95051">
        <ele>1668</ele>
        <time>2014-06-28T13:32:36.000Z</time>
      </trkpt>
      <trkpt lat="46.27665" lon="5.95044">
        <ele>1668</ele>
        <time>2014-06-28T13:32:40.000Z</time>
      </trkpt>
      <trkpt lat="46.27657" lon="5.95039">
        <ele>1668</ele>
        <time>2014-06-28T13:32:47.000Z</time>
      </trkpt>
      <trkpt lat="46.27652" lon="5.95036">
        <ele>1668</ele>
        <time>2014-06-28T13:32:51.000Z</time>
      </trkpt>
      <trkpt lat="46.27648" lon="5.95027">
        <ele>1668</ele>
        <time>2014-06-28T13:32:57.000Z</time>
      </trkpt>
      <trkpt lat="46.27644" lon="5.95012">
        <ele>1668</ele>
        <time>2014-06-28T13:33:06.000Z</time>
      </trkpt>
      <trkpt lat="46.2764" lon="5.95002">
        <ele>1668</ele>
        <time>2014-06-28T13:33:13.000Z</time>
      </trkpt>
      <trkpt lat="46.27637" lon="5.94996">
        <ele>1666</ele>
        <time>2014-06-28T13:33:17.000Z</time>
      </trkpt>
      <trkpt lat="46.27633" lon="5.94983">
        <ele>1666</ele>
        <time>2014-06-28T13:33:26.000Z</time>
      </trkpt>
      <trkpt lat="46.27631" lon="5.94976">
        <ele>1666</ele>
        <time>2014-06-28T13:33:31.000Z</time>
      </trkpt>
      <trkpt lat="46.27626" lon="5.94971">
        <ele>1665</ele>
        <time>2014-06-28T13:33:41.000Z</time>
      </trkpt>
      <trkpt lat="46.27625" lon="5.94971">
        <ele>1665</ele>
        <time>2014-06-28T13:33:43.000Z</time>
      </trkpt>
      <trkpt lat="46.27623" lon="5.94963">
        <ele>1665</ele>
        <time>2014-06-28T13:33:49.000Z</time>
      </trkpt>
      <trkpt lat="46.27621" lon="5.94946">
        <ele>1665</ele>
        <time>2014-06-28T13:33:59.000Z</time>
      </trkpt>
      <trkpt lat="46.2762" lon="5.94938">
        <ele>1665</ele>
        <time>2014-06-28T13:34:04.000Z</time>
      </trkpt>
      <trkpt lat="46.27615" lon="5.94916">
        <ele>1664</ele>
        <time>2014-06-28T13:34:17.000Z</time>
      </trkpt>
      <trkpt lat="46.27615" lon="5.94894">
        <ele>1664</ele>
        <time>2014-06-28T13:34:29.000Z</time>
      </trkpt>
      <trkpt lat="46.27613" lon="5.94874">
        <ele>1664</ele>
        <time>2014-06-28T13:34:39.000Z</time>
      </trkpt>
      <trkpt lat="46.27613" lon="5.94865">
        <ele>1664</ele>
        <time>2014-06-28T13:34:44.000Z</time>
      </trkpt>
      <trkpt lat="46.2761" lon="5.9486">
        <ele>1665</ele>
        <time>2014-06-28T13:34:47.000Z</time>
      </trkpt>
      <trkpt lat="46.27606" lon="5.94844">
        <ele>1666</ele>
        <time>2014-06-28T13:34:59.000Z</time>
      </trkpt>
      <trkpt lat="46.27605" lon="5.9484">
        <ele>1666</ele>
        <time>2014-06-28T13:35:02.000Z</time>
      </trkpt>
      <trkpt lat="46.27604" lon="5.94831">
        <ele>1666</ele>
        <time>2014-06-28T13:35:08.000Z</time>
      </trkpt>
      <trkpt lat="46.27604" lon="5.94826">
        <ele>1666</ele>
        <time>2014-06-28T13:35:12.000Z</time>
      </trkpt>
      <trkpt lat="46.27602" lon="5.94824">
        <ele>1666</ele>
        <time>2014-06-28T13:35:15.000Z</time>
      </trkpt>
      <trkpt lat="46.276" lon="5.94818">
        <ele>1666</ele>
        <time>2014-06-28T13:35:19.000Z</time>
      </trkpt>
      <trkpt lat="46.27597" lon="5.94816">
        <ele>1666</ele>
        <time>2014-06-28T13:35:21.000Z</time>
      </trkpt>
      <trkpt lat="46.27595" lon="5.94812">
        <ele>1666</ele>
        <time>2014-06-28T13:35:24.000Z</time>
      </trkpt>
      <trkpt lat="46.27591" lon="5.94807">
        <ele>1666</ele>
        <time>2014-06-28T13:35:31.000Z</time>
      </trkpt>
      <trkpt lat="46.27585" lon="5.94805">
        <ele>1666</ele>
        <time>2014-06-28T13:35:37.000Z</time>
      </trkpt>
      <trkpt lat="46.27579" lon="5.94795">
        <ele>1678</ele>
        <time>2014-06-28T13:35:45.000Z</time>
      </trkpt>
      <trkpt lat="46.27577" lon="5.94795">
        <ele>1678</ele>
        <time>2014-06-28T13:35:47.000Z</time>
      </trkpt>
      <trkpt lat="46.27564" lon="5.94793">
        <ele>1679</ele>
        <time>2014-06-28T13:35:58.000Z</time>
      </trkpt>
      <trkpt lat="46.27563" lon="5.94789">
        <ele>1679</ele>
        <time>2014-06-28T13:36:01.000Z</time>
      </trkpt>
      <trkpt lat="46.27559" lon="5.9478">
        <ele>1680</ele>
        <time>2014-06-28T13:36:12.000Z</time>
      </trkpt>
      <trkpt lat="46.27547" lon="5.94783">
        <ele>1681</ele>
        <time>2014-06-28T13:36:23.000Z</time>
      </trkpt>
      <trkpt lat="46.27533" lon="5.9479">
        <ele>1682</ele>
        <time>2014-06-28T13:36:35.000Z</time>
      </trkpt>
      <trkpt lat="46.27524" lon="5.94788">
        <ele>1683</ele>
        <time>2014-06-28T13:36:42.000Z</time>
      </trkpt>
      <trkpt lat="46.27521" lon="5.94785">
        <ele>1684</ele>
        <time>2014-06-28T13:36:54.000Z</time>
      </trkpt>
      <trkpt lat="46.2752" lon="5.94785">
        <ele>1684</ele>
        <time>2014-06-28T13:37:31.000Z</time>
      </trkpt>
      <trkpt lat="46.2752" lon="5.94787">
        <ele>1684</ele>
        <time>2014-06-28T13:38:09.000Z</time>
      </trkpt>
      <trkpt lat="46.27518" lon="5.94788">
        <ele>1684</ele>
        <time>2014-06-28T13:38:57.000Z</time>
      </trkpt>
      <trkpt lat="46.27517" lon="5.94785">
        <ele>1684</ele>
        <time>2014-06-28T13:39:36.000Z</time>
      </trkpt>
      <trkpt lat="46.27515" lon="5.94781">
        <ele>1685</ele>
        <time>2014-06-28T13:39:40.000Z</time>
      </trkpt>
      <trkpt lat="46.27513" lon="5.94781">
        <ele>1685</ele>
        <time>2014-06-28T13:39:42.000Z</time>
      </trkpt>
      <trkpt lat="46.27511" lon="5.94782">
        <ele>1685</ele>
        <time>2014-06-28T13:39:44.000Z</time>
      </trkpt>
      <trkpt lat="46.27505" lon="5.94781">
        <ele>1685</ele>
        <time>2014-06-28T13:39:52.000Z</time>
      </trkpt>
      <trkpt lat="46.275" lon="5.94777">
        <ele>1693</ele>
        <time>2014-06-28T13:39:58.000Z</time>
      </trkpt>
      <trkpt lat="46.27494" lon="5.94778">
        <ele>1693</ele>
        <time>2014-06-28T13:40:03.000Z</time>
      </trkpt>
      <trkpt lat="46.27479" lon="5.94775">
        <ele>1694</ele>
        <time>2014-06-28T13:40:17.000Z</time>
      </trkpt>
      <trkpt lat="46.27472" lon="5.94771">
        <ele>1694</ele>
        <time>2014-06-28T13:40:30.000Z</time>
      </trkpt>
      <trkpt lat="46.27468" lon="5.94769">
        <ele>1694</ele>
        <time>2014-06-28T13:40:43.000Z</time>
      </trkpt>
      <trkpt lat="46.27467" lon="5.94766">
        <ele>1695</ele>
        <time>2014-06-28T13:40:46.000Z</time>
      </trkpt>
      <trkpt lat="46.27462" lon="5.94761">
        <ele>1695</ele>
        <time>2014-06-28T13:40:57.000Z</time>
      </trkpt>
      <trkpt lat="46.27454" lon="5.94744">
        <ele>1699</ele>
        <time>2014-06-28T13:41:12.000Z</time>
      </trkpt>
      <trkpt lat="46.27451" lon="5.94739">
        <ele>1699</ele>
        <time>2014-06-28T13:41:16.000Z</time>
      </trkpt>
      <trkpt lat="46.27446" lon="5.94728">
        <ele>1699</ele>
        <time>2014-06-28T13:41:24.000Z</time>
      </trkpt>
      <trkpt lat="46.27441" lon="5.9472">
        <ele>1699</ele>
        <time>2014-06-28T13:41:30.000Z</time>
      </trkpt>
      <trkpt lat="46.27429" lon="5.94712">
        <ele>1700</ele>
        <time>2014-06-28T13:41:43.000Z</time>
      </trkpt>
      <trkpt lat="46.27419" lon="5.94709">
        <ele>1700</ele>
        <time>2014-06-28T13:41:52.000Z</time>
      </trkpt>
      <trkpt lat="46.27416" lon="5.94709">
        <ele>1704</ele>
        <time>2014-06-28T13:41:54.000Z</time>
      </trkpt>
      <trkpt lat="46.27407" lon="5.94701">
        <ele>1704</ele>
        <time>2014-06-28T13:42:03.000Z</time>
      </trkpt>
      <trkpt lat="46.27397" lon="5.94691">
        <ele>1704</ele>
        <time>2014-06-28T13:42:12.000Z</time>
      </trkpt>
      <trkpt lat="46.27387" lon="5.94678">
        <ele>1705</ele>
        <time>2014-06-28T13:42:21.000Z</time>
      </trkpt>
      <trkpt lat="46.27381" lon="5.9467">
        <ele>1705</ele>
        <time>2014-06-28T13:42:27.000Z</time>
      </trkpt>
      <trkpt lat="46.27377" lon="5.94665">
        <ele>1705</ele>
        <time>2014-06-28T13:42:31.000Z</time>
      </trkpt>
      <trkpt lat="46.27374" lon="5.94662">
        <ele>1705</ele>
        <time>2014-06-28T13:42:33.000Z</time>
      </trkpt>
      <trkpt lat="46.27368" lon="5.94652">
        <ele>1704</ele>
        <time>2014-06-28T13:42:42.000Z</time>
      </trkpt>
      <trkpt lat="46.27361" lon="5.94632">
        <ele>1704</ele>
        <time>2014-06-28T13:42:55.000Z</time>
      </trkpt>
      <trkpt lat="46.27356" lon="5.94627">
        <ele>1704</ele>
        <time>2014-06-28T13:43:17.000Z</time>
      </trkpt>
      <trkpt lat="46.27352" lon="5.94624">
        <ele>1704</ele>
        <time>2014-06-28T13:43:35.000Z</time>
      </trkpt>
      <trkpt lat="46.27341" lon="5.94622">
        <ele>1704</ele>
        <time>2014-06-28T13:43:44.000Z</time>
      </trkpt>
      <trkpt lat="46.27327" lon="5.94619">
        <ele>1702</ele>
        <time>2014-06-28T13:43:55.000Z</time>
      </trkpt>
      <trkpt lat="46.27326" lon="5.94619">
        <ele>1702</ele>
        <time>2014-06-28T13:43:56.000Z</time>
      </trkpt>
      <trkpt lat="46.2731" lon="5.94614">
        <ele>1701</ele>
        <time>2014-06-28T13:44:09.000Z</time>
      </trkpt>
      <trkpt lat="46.27297" lon="5.94603">
        <ele>1701</ele>
        <time>2014-06-28T13:44:20.000Z</time>
      </trkpt>
      <trkpt lat="46.27292" lon="5.94598">
        <ele>1700</ele>
        <time>2014-06-28T13:44:25.000Z</time>
      </trkpt>
      <trkpt lat="46.2729" lon="5.94596">
        <ele>1700</ele>
        <time>2014-06-28T13:44:28.000Z</time>
      </trkpt>
      <trkpt lat="46.27296" lon="5.94593">
        <ele>1701</ele>
        <time>2014-06-28T13:44:33.000Z</time>
      </trkpt>
      <trkpt lat="46.27296" lon="5.94584">
        <ele>1701</ele>
        <time>2014-06-28T13:44:40.000Z</time>
      </trkpt>
      <trkpt lat="46.27295" lon="5.94567">
        <ele>1702</ele>
        <time>2014-06-28T13:44:51.000Z</time>
      </trkpt>
      <trkpt lat="46.27294" lon="5.94561">
        <ele>1702</ele>
        <time>2014-06-28T13:44:55.000Z</time>
      </trkpt>
      <trkpt lat="46.27292" lon="5.94554">
        <ele>1702</ele>
        <time>2014-06-28T13:45:03.000Z</time>
      </trkpt>
      <trkpt lat="46.27291" lon="5.94535">
        <ele>1702</ele>
        <time>2014-06-28T13:45:15.000Z</time>
      </trkpt>
      <trkpt lat="46.2729" lon="5.94526">
        <ele>1702</ele>
        <time>2014-06-28T13:45:26.000Z</time>
      </trkpt>
      <trkpt lat="46.27288" lon="5.9452">
        <ele>1702</ele>
        <time>2014-06-28T13:45:30.000Z</time>
      </trkpt>
      <trkpt lat="46.27287" lon="5.94513">
        <ele>1703</ele>
        <time>2014-06-28T13:45:34.000Z</time>
      </trkpt>
      <trkpt lat="46.27285" lon="5.9451">
        <ele>1702</ele>
        <time>2014-06-28T13:45:36.000Z</time>
      </trkpt>
      <trkpt lat="46.27284" lon="5.94503">
        <ele>1702</ele>
        <time>2014-06-28T13:45:40.000Z</time>
      </trkpt>
      <trkpt lat="46.2728" lon="5.94497">
        <ele>1702</ele>
        <time>2014-06-28T13:45:44.000Z</time>
      </trkpt>
      <trkpt lat="46.27279" lon="5.9449">
        <ele>1702</ele>
        <time>2014-06-28T13:45:48.000Z</time>
      </trkpt>
      <trkpt lat="46.27275" lon="5.94476">
        <ele>1702</ele>
        <time>2014-06-28T13:46:02.000Z</time>
      </trkpt>
      <trkpt lat="46.27272" lon="5.9447">
        <ele>1702</ele>
        <time>2014-06-28T13:46:23.000Z</time>
      </trkpt>
      <trkpt lat="46.27267" lon="5.94458">
        <ele>1702</ele>
        <time>2014-06-28T13:46:32.000Z</time>
      </trkpt>
      <trkpt lat="46.27266" lon="5.94449">
        <ele>1703</ele>
        <time>2014-06-28T13:46:39.000Z</time>
      </trkpt>
      <trkpt lat="46.27261" lon="5.94439">
        <ele>1703</ele>
        <time>2014-06-28T13:46:48.000Z</time>
      </trkpt>
      <trkpt lat="46.27253" lon="5.9443">
        <ele>1704</ele>
        <time>2014-06-28T13:47:05.000Z</time>
      </trkpt>
      <trkpt lat="46.27252" lon="5.94432">
        <ele>1704</ele>
        <time>2014-06-28T13:47:09.000Z</time>
      </trkpt>
      <trkpt lat="46.27252" lon="5.9443">
        <ele>1704</ele>
        <time>2014-06-28T13:47:11.000Z</time>
      </trkpt>
      <trkpt lat="46.27247" lon="5.94419">
        <ele>1704</ele>
        <time>2014-06-28T13:47:20.000Z</time>
      </trkpt>
      <trkpt lat="46.27243" lon="5.9441">
        <ele>1703</ele>
        <time>2014-06-28T13:47:26.000Z</time>
      </trkpt>
      <trkpt lat="46.27242" lon="5.94404">
        <ele>1702</ele>
        <time>2014-06-28T13:47:30.000Z</time>
      </trkpt>
      <trkpt lat="46.27239" lon="5.94396">
        <ele>1701</ele>
        <time>2014-06-28T13:47:35.000Z</time>
      </trkpt>
      <trkpt lat="46.27237" lon="5.94388">
        <ele>1701</ele>
        <time>2014-06-28T13:47:39.000Z</time>
      </trkpt>
      <trkpt lat="46.27237" lon="5.94382">
        <ele>1700</ele>
        <time>2014-06-28T13:47:42.000Z</time>
      </trkpt>
      <trkpt lat="46.2723" lon="5.94369">
        <ele>1700</ele>
        <time>2014-06-28T13:47:53.000Z</time>
      </trkpt>
      <trkpt lat="46.27232" lon="5.94355">
        <ele>1699</ele>
        <time>2014-06-28T13:48:16.000Z</time>
      </trkpt>
      <trkpt lat="46.27229" lon="5.94352">
        <ele>1699</ele>
        <time>2014-06-28T13:48:26.000Z</time>
      </trkpt>
      <trkpt lat="46.27221" lon="5.94344">
        <ele>1699</ele>
        <time>2014-06-28T13:48:37.000Z</time>
      </trkpt>
      <trkpt lat="46.27214" lon="5.94337">
        <ele>1699</ele>
        <time>2014-06-28T13:48:46.000Z</time>
      </trkpt>
      <trkpt lat="46.27211" lon="5.94332">
        <ele>1696</ele>
        <time>2014-06-28T13:48:56.000Z</time>
      </trkpt>
      <trkpt lat="46.27203" lon="5.94323">
        <ele>1696</ele>
        <time>2014-06-28T13:49:10.000Z</time>
      </trkpt>
      <trkpt lat="46.27197" lon="5.94317">
        <ele>1696</ele>
        <time>2014-06-28T13:49:16.000Z</time>
      </trkpt>
      <trkpt lat="46.27196" lon="5.94305">
        <ele>1695</ele>
        <time>2014-06-28T13:49:23.000Z</time>
      </trkpt>
      <trkpt lat="46.27194" lon="5.94295">
        <ele>1695</ele>
        <time>2014-06-28T13:49:29.000Z</time>
      </trkpt>
      <trkpt lat="46.27188" lon="5.94277">
        <ele>1694</ele>
        <time>2014-06-28T13:49:41.000Z</time>
      </trkpt>
      <trkpt lat="46.27187" lon="5.94272">
        <ele>1694</ele>
        <time>2014-06-28T13:49:44.000Z</time>
      </trkpt>
      <trkpt lat="46.27188" lon="5.9426">
        <ele>1694</ele>
        <time>2014-06-28T13:49:54.000Z</time>
      </trkpt>
      <trkpt lat="46.27182" lon="5.94248">
        <ele>1691</ele>
        <time>2014-06-28T13:50:04.000Z</time>
      </trkpt>
      <trkpt lat="46.27181" lon="5.94243">
        <ele>1690</ele>
        <time>2014-06-28T13:50:08.000Z</time>
      </trkpt>
      <trkpt lat="46.2718" lon="5.94234">
        <ele>1689</ele>
        <time>2014-06-28T13:50:13.000Z</time>
      </trkpt>
      <trkpt lat="46.27177" lon="5.9423">
        <ele>1689</ele>
        <time>2014-06-28T13:50:16.000Z</time>
      </trkpt>
      <trkpt lat="46.27167" lon="5.94208">
        <ele>1688</ele>
        <time>2014-06-28T13:50:31.000Z</time>
      </trkpt>
      <trkpt lat="46.27163" lon="5.94199">
        <ele>1692</ele>
        <time>2014-06-28T13:50:37.000Z</time>
      </trkpt>
      <trkpt lat="46.27155" lon="5.94178">
        <ele>1692</ele>
        <time>2014-06-28T13:50:50.000Z</time>
      </trkpt>
      <trkpt lat="46.27145" lon="5.94159">
        <ele>1691</ele>
        <time>2014-06-28T13:51:03.000Z</time>
      </trkpt>
      <trkpt lat="46.2714" lon="5.94149">
        <ele>1691</ele>
        <time>2014-06-28T13:51:09.000Z</time>
      </trkpt>
      <trkpt lat="46.27138" lon="5.94143">
        <ele>1690</ele>
        <time>2014-06-28T13:51:13.000Z</time>
      </trkpt>
      <trkpt lat="46.27136" lon="5.9414">
        <ele>1690</ele>
        <time>2014-06-28T13:51:15.000Z</time>
      </trkpt>
      <trkpt lat="46.27134" lon="5.94134">
        <ele>1690</ele>
        <time>2014-06-28T13:51:19.000Z</time>
      </trkpt>
      <trkpt lat="46.27133" lon="5.9413">
        <ele>1690</ele>
        <time>2014-06-28T13:51:22.000Z</time>
      </trkpt>
      <trkpt lat="46.27131" lon="5.94116">
        <ele>1690</ele>
        <time>2014-06-28T13:51:30.000Z</time>
      </trkpt>
      <trkpt lat="46.27129" lon="5.94105">
        <ele>1690</ele>
        <time>2014-06-28T13:51:37.000Z</time>
      </trkpt>
      <trkpt lat="46.27124" lon="5.94096">
        <ele>1690</ele>
        <time>2014-06-28T13:51:46.000Z</time>
      </trkpt>
      <trkpt lat="46.27122" lon="5.9409">
        <ele>1690</ele>
        <time>2014-06-28T13:51:50.000Z</time>
      </trkpt>
      <trkpt lat="46.27119" lon="5.94077">
        <ele>1690</ele>
        <time>2014-06-28T13:52:05.000Z</time>
      </trkpt>
      <trkpt lat="46.27118" lon="5.94068">
        <ele>1690</ele>
        <time>2014-06-28T13:52:54.000Z</time>
      </trkpt>
      <trkpt lat="46.27114" lon="5.94064">
        <ele>1690</ele>
        <time>2014-06-28T13:52:58.000Z</time>
      </trkpt>
      <trkpt lat="46.27107" lon="5.94054">
        <ele>1691</ele>
        <time>2014-06-28T13:53:09.000Z</time>
      </trkpt>
      <trkpt lat="46.27105" lon="5.94053">
        <ele>1691</ele>
        <time>2014-06-28T13:53:16.000Z</time>
      </trkpt>
      <trkpt lat="46.27099" lon="5.94051">
        <ele>1691</ele>
        <time>2014-06-28T13:53:30.000Z</time>
      </trkpt>
      <trkpt lat="46.27105" lon="5.94051">
        <ele>1691</ele>
        <time>2014-06-28T13:54:19.000Z</time>
      </trkpt>
      <trkpt lat="46.27104" lon="5.9405">
        <ele>1691</ele>
        <time>2014-06-28T13:54:20.000Z</time>
      </trkpt>
      <trkpt lat="46.27097" lon="5.94038">
        <ele>1692</ele>
        <time>2014-06-28T13:54:32.000Z</time>
      </trkpt>
      <trkpt lat="46.27096" lon="5.94034">
        <ele>1692</ele>
        <time>2014-06-28T13:54:37.000Z</time>
      </trkpt>
      <trkpt lat="46.27096" lon="5.94031">
        <ele>1693</ele>
        <time>2014-06-28T13:54:40.000Z</time>
      </trkpt>
      <trkpt lat="46.27095" lon="5.94022">
        <ele>1694</ele>
        <time>2014-06-28T13:54:48.000Z</time>
      </trkpt>
      <trkpt lat="46.27105" lon="5.94024">
        <ele>1692</ele>
        <time>2014-06-28T13:54:57.000Z</time>
      </trkpt>
      <trkpt lat="46.27108" lon="5.94019">
        <ele>1692</ele>
        <time>2014-06-28T13:55:01.000Z</time>
      </trkpt>
      <trkpt lat="46.27108" lon="5.94011">
        <ele>1692</ele>
        <time>2014-06-28T13:55:08.000Z</time>
      </trkpt>
      <trkpt lat="46.27106" lon="5.94006">
        <ele>1693</ele>
        <time>2014-06-28T13:55:14.000Z</time>
      </trkpt>
      <trkpt lat="46.27106" lon="5.94002">
        <ele>1693</ele>
        <time>2014-06-28T13:55:26.000Z</time>
      </trkpt>
      <trkpt lat="46.27101" lon="5.93989">
        <ele>1690</ele>
        <time>2014-06-28T13:55:37.000Z</time>
      </trkpt>
      <trkpt lat="46.271" lon="5.93986">
        <ele>1690</ele>
        <time>2014-06-28T13:55:39.000Z</time>
      </trkpt>
      <trkpt lat="46.27099" lon="5.93967">
        <ele>1687</ele>
        <time>2014-06-28T13:55:52.000Z</time>
      </trkpt>
      <trkpt lat="46.27097" lon="5.93963">
        <ele>1687</ele>
        <time>2014-06-28T13:56:07.000Z</time>
      </trkpt>
      <trkpt lat="46.27093" lon="5.93967">
        <ele>1688</ele>
        <time>2014-06-28T13:57:18.000Z</time>
      </trkpt>
      <trkpt lat="46.27093" lon="5.93968">
        <ele>1688</ele>
        <time>2014-06-28T14:00:19.000Z</time>
      </trkpt>
      <trkpt lat="46.27095" lon="5.93975">
        <ele>1689</ele>
        <time>2014-06-28T14:02:17.000Z</time>
      </trkpt>
      <trkpt lat="46.27095" lon="5.93988">
        <ele>1692</ele>
        <time>2014-06-28T14:02:30.000Z</time>
      </trkpt>
      <trkpt lat="46.27096" lon="5.93989">
        <ele>1692</ele>
        <time>2014-06-28T14:02:32.000Z</time>
      </trkpt>
      <trkpt lat="46.27099" lon="5.93999">
        <ele>1693</ele>
        <time>2014-06-28T14:02:43.000Z</time>
      </trkpt>
      <trkpt lat="46.27097" lon="5.94019">
        <ele>1694</ele>
        <time>2014-06-28T14:03:22.000Z</time>
      </trkpt>
      <trkpt lat="46.27098" lon="5.94028">
        <ele>1693</ele>
        <time>2014-06-28T14:03:33.000Z</time>
      </trkpt>
      <trkpt lat="46.27098" lon="5.94034">
        <ele>1692</ele>
        <time>2014-06-28T14:03:37.000Z</time>
      </trkpt>
      <trkpt lat="46.27105" lon="5.94052">
        <ele>1691</ele>
        <time>2014-06-28T14:03:50.000Z</time>
      </trkpt>
      <trkpt lat="46.27104" lon="5.94053">
        <ele>1691</ele>
        <time>2014-06-28T14:04:17.000Z</time>
      </trkpt>
      <trkpt lat="46.271" lon="5.94052">
        <ele>1691</ele>
        <time>2014-06-28T14:04:21.000Z</time>
      </trkpt>
      <trkpt lat="46.27096" lon="5.94052">
        <ele>1691</ele>
        <time>2014-06-28T14:04:24.000Z</time>
      </trkpt>
      <trkpt lat="46.27092" lon="5.94048">
        <ele>1692</ele>
        <time>2014-06-28T14:04:46.000Z</time>
      </trkpt>
      <trkpt lat="46.27092" lon="5.94047">
        <ele>1692</ele>
        <time>2014-06-28T14:05:23.000Z</time>
      </trkpt>
      <trkpt lat="46.27092" lon="5.94047">
        <ele>1692</ele>
        <time>2014-06-28T14:05:34.000Z</time>
      </trkpt>
      <trkpt lat="46.27081" lon="5.94047">
        <ele>1693</ele>
        <time>2014-06-28T14:05:43.000Z</time>
      </trkpt>
      <trkpt lat="46.27077" lon="5.94047">
        <ele>1693</ele>
        <time>2014-06-28T14:05:46.000Z</time>
      </trkpt>
      <trkpt lat="46.27071" lon="5.94049">
        <ele>1693</ele>
        <time>2014-06-28T14:05:50.000Z</time>
      </trkpt>
      <trkpt lat="46.2707" lon="5.94059">
        <ele>1692</ele>
        <time>2014-06-28T14:05:57.000Z</time>
      </trkpt>
      <trkpt lat="46.27067" lon="5.94073">
        <ele>1692</ele>
        <time>2014-06-28T14:06:09.000Z</time>
      </trkpt>
      <trkpt lat="46.2706" lon="5.94072">
        <ele>1692</ele>
        <time>2014-06-28T14:06:18.000Z</time>
      </trkpt>
      <trkpt lat="46.27058" lon="5.94072">
        <ele>1691</ele>
        <time>2014-06-28T14:06:24.000Z</time>
      </trkpt>
      <trkpt lat="46.27053" lon="5.94075">
        <ele>1691</ele>
        <time>2014-06-28T14:06:45.000Z</time>
      </trkpt>
      <trkpt lat="46.27049" lon="5.94083">
        <ele>1690</ele>
        <time>2014-06-28T14:07:02.000Z</time>
      </trkpt>
      <trkpt lat="46.27045" lon="5.9409">
        <ele>1686</ele>
        <time>2014-06-28T14:07:11.000Z</time>
      </trkpt>
      <trkpt lat="46.27042" lon="5.94095">
        <ele>1685</ele>
        <time>2014-06-28T14:07:18.000Z</time>
      </trkpt>
      <trkpt lat="46.2704" lon="5.941">
        <ele>1685</ele>
        <time>2014-06-28T14:07:20.000Z</time>
      </trkpt>
      <trkpt lat="46.27037" lon="5.94116">
        <ele>1684</ele>
        <time>2014-06-28T14:07:29.000Z</time>
      </trkpt>
      <trkpt lat="46.27037" lon="5.94118">
        <ele>1684</ele>
        <time>2014-06-28T14:07:30.000Z</time>
      </trkpt>
      <trkpt lat="46.27036" lon="5.94121">
        <ele>1684</ele>
        <time>2014-06-28T14:07:32.000Z</time>
      </trkpt>
      <trkpt lat="46.27032" lon="5.94131">
        <ele>1683</ele>
        <time>2014-06-28T14:07:38.000Z</time>
      </trkpt>
      <trkpt lat="46.27031" lon="5.94146">
        <ele>1682</ele>
        <time>2014-06-28T14:07:49.000Z</time>
      </trkpt>
      <trkpt lat="46.27021" lon="5.94158">
        <ele>1680</ele>
        <time>2014-06-28T14:08:14.000Z</time>
      </trkpt>
      <trkpt lat="46.27018" lon="5.94165">
        <ele>1679</ele>
        <time>2014-06-28T14:08:18.000Z</time>
      </trkpt>
      <trkpt lat="46.27019" lon="5.94181">
        <ele>1677</ele>
        <time>2014-06-28T14:08:27.000Z</time>
      </trkpt>
      <trkpt lat="46.27011" lon="5.94186">
        <ele>1676</ele>
        <time>2014-06-28T14:08:39.000Z</time>
      </trkpt>
      <trkpt lat="46.27002" lon="5.94196">
        <ele>1676</ele>
        <time>2014-06-28T14:08:58.000Z</time>
      </trkpt>
      <trkpt lat="46.27001" lon="5.94198">
        <ele>1676</ele>
        <time>2014-06-28T14:09:01.000Z</time>
      </trkpt>
      <trkpt lat="46.26998" lon="5.94199">
        <ele>1661</ele>
        <time>2014-06-28T14:09:04.000Z</time>
      </trkpt>
      <trkpt lat="46.26987" lon="5.94199">
        <ele>1660</ele>
        <time>2014-06-28T14:09:18.000Z</time>
      </trkpt>
      <trkpt lat="46.2698" lon="5.94199">
        <ele>1659</ele>
        <time>2014-06-28T14:09:28.000Z</time>
      </trkpt>
      <trkpt lat="46.26979" lon="5.942">
        <ele>1659</ele>
        <time>2014-06-28T14:09:29.000Z</time>
      </trkpt>
      <trkpt lat="46.26977" lon="5.94199">
        <ele>1658</ele>
        <time>2014-06-28T14:09:36.000Z</time>
      </trkpt>
      <trkpt lat="46.26974" lon="5.94201">
        <ele>1658</ele>
        <time>2014-06-28T14:09:38.000Z</time>
      </trkpt>
      <trkpt lat="46.26973" lon="5.94205">
        <ele>1657</ele>
        <time>2014-06-28T14:09:41.000Z</time>
      </trkpt>
      <trkpt lat="46.26973" lon="5.94206">
        <ele>1657</ele>
        <time>2014-06-28T14:09:42.000Z</time>
      </trkpt>
      <trkpt lat="46.26971" lon="5.94221">
        <ele>1656</ele>
        <time>2014-06-28T14:09:54.000Z</time>
      </trkpt>
      <trkpt lat="46.26968" lon="5.94231">
        <ele>1655</ele>
        <time>2014-06-28T14:10:03.000Z</time>
      </trkpt>
      <trkpt lat="46.26967" lon="5.94231">
        <ele>1655</ele>
        <time>2014-06-28T14:10:04.000Z</time>
      </trkpt>
      <trkpt lat="46.26958" lon="5.94229">
        <ele>1653</ele>
        <time>2014-06-28T14:10:14.000Z</time>
      </trkpt>
      <trkpt lat="46.26949" lon="5.94231">
        <ele>1650</ele>
        <time>2014-06-28T14:10:26.000Z</time>
      </trkpt>
      <trkpt lat="46.26942" lon="5.94236">
        <ele>1647</ele>
        <time>2014-06-28T14:10:37.000Z</time>
      </trkpt>
      <trkpt lat="46.26935" lon="5.94232">
        <ele>1646</ele>
        <time>2014-06-28T14:10:46.000Z</time>
      </trkpt>
      <trkpt lat="46.26923" lon="5.94222">
        <ele>1646</ele>
        <time>2014-06-28T14:11:00.000Z</time>
      </trkpt>
      <trkpt lat="46.26921" lon="5.9422">
        <ele>1646</ele>
        <time>2014-06-28T14:11:02.000Z</time>
      </trkpt>
      <trkpt lat="46.26916" lon="5.94215">
        <ele>1632</ele>
        <time>2014-06-28T14:11:08.000Z</time>
      </trkpt>
      <trkpt lat="46.26905" lon="5.94208">
        <ele>1632</ele>
        <time>2014-06-28T14:11:22.000Z</time>
      </trkpt>
      <trkpt lat="46.26904" lon="5.94207">
        <ele>1632</ele>
        <time>2014-06-28T14:11:23.000Z</time>
      </trkpt>
      <trkpt lat="46.26897" lon="5.94207">
        <ele>1632</ele>
        <time>2014-06-28T14:11:28.000Z</time>
      </trkpt>
      <trkpt lat="46.2689" lon="5.94207">
        <ele>1631</ele>
        <time>2014-06-28T14:11:33.000Z</time>
      </trkpt>
      <trkpt lat="46.26879" lon="5.94204">
        <ele>1630</ele>
        <time>2014-06-28T14:11:43.000Z</time>
      </trkpt>
      <trkpt lat="46.26865" lon="5.94203">
        <ele>1628</ele>
        <time>2014-06-28T14:11:53.000Z</time>
      </trkpt>
      <trkpt lat="46.26857" lon="5.94196">
        <ele>1628</ele>
        <time>2014-06-28T14:12:01.000Z</time>
      </trkpt>
      <trkpt lat="46.26843" lon="5.94185">
        <ele>1626</ele>
        <time>2014-06-28T14:12:14.000Z</time>
      </trkpt>
      <trkpt lat="46.26839" lon="5.94176">
        <ele>1626</ele>
        <time>2014-06-28T14:12:34.000Z</time>
      </trkpt>
      <trkpt lat="46.26837" lon="5.9418">
        <ele>1626</ele>
        <time>2014-06-28T14:18:24.000Z</time>
      </trkpt>
      <trkpt lat="46.26833" lon="5.94179">
        <ele>1626</ele>
        <time>2014-06-28T14:18:28.000Z</time>
      </trkpt>
      <trkpt lat="46.2682" lon="5.94172">
        <ele>1619</ele>
        <time>2014-06-28T14:18:42.000Z</time>
      </trkpt>
      <trkpt lat="46.26817" lon="5.9417">
        <ele>1619</ele>
        <time>2014-06-28T14:18:45.000Z</time>
      </trkpt>
      <trkpt lat="46.26808" lon="5.94161">
        <ele>1623</ele>
        <time>2014-06-28T14:18:55.000Z</time>
      </trkpt>
      <trkpt lat="46.26799" lon="5.94156">
        <ele>1623</ele>
        <time>2014-06-28T14:19:04.000Z</time>
      </trkpt>
      <trkpt lat="46.26791" lon="5.94149">
        <ele>1623</ele>
        <time>2014-06-28T14:19:12.000Z</time>
      </trkpt>
      <trkpt lat="46.26789" lon="5.94148">
        <ele>1622</ele>
        <time>2014-06-28T14:19:14.000Z</time>
      </trkpt>
      <trkpt lat="46.26785" lon="5.94143">
        <ele>1622</ele>
        <time>2014-06-28T14:19:19.000Z</time>
      </trkpt>
      <trkpt lat="46.2678" lon="5.94135">
        <ele>1622</ele>
        <time>2014-06-28T14:19:25.000Z</time>
      </trkpt>
      <trkpt lat="46.26776" lon="5.94135">
        <ele>1622</ele>
        <time>2014-06-28T14:19:29.000Z</time>
      </trkpt>
      <trkpt lat="46.26767" lon="5.94139">
        <ele>1621</ele>
        <time>2014-06-28T14:19:39.000Z</time>
      </trkpt>
      <trkpt lat="46.2676" lon="5.94143">
        <ele>1620</ele>
        <time>2014-06-28T14:19:48.000Z</time>
      </trkpt>
      <trkpt lat="46.26757" lon="5.94147">
        <ele>1619</ele>
        <time>2014-06-28T14:19:52.000Z</time>
      </trkpt>
      <trkpt lat="46.26752" lon="5.94151">
        <ele>1618</ele>
        <time>2014-06-28T14:19:56.000Z</time>
      </trkpt>
      <trkpt lat="46.26746" lon="5.94157">
        <ele>1612</ele>
        <time>2014-06-28T14:20:02.000Z</time>
      </trkpt>
      <trkpt lat="46.26743" lon="5.94165">
        <ele>1612</ele>
        <time>2014-06-28T14:20:08.000Z</time>
      </trkpt>
      <trkpt lat="46.26739" lon="5.94173">
        <ele>1609</ele>
        <time>2014-06-28T14:20:16.000Z</time>
      </trkpt>
      <trkpt lat="46.26737" lon="5.94177">
        <ele>1608</ele>
        <time>2014-06-28T14:20:22.000Z</time>
      </trkpt>
      <trkpt lat="46.26733" lon="5.94186">
        <ele>1606</ele>
        <time>2014-06-28T14:20:31.000Z</time>
      </trkpt>
      <trkpt lat="46.26731" lon="5.94191">
        <ele>1605</ele>
        <time>2014-06-28T14:20:35.000Z</time>
      </trkpt>
      <trkpt lat="46.26728" lon="5.94199">
        <ele>1604</ele>
        <time>2014-06-28T14:20:41.000Z</time>
      </trkpt>
      <trkpt lat="46.26722" lon="5.94207">
        <ele>1603</ele>
        <time>2014-06-28T14:20:48.000Z</time>
      </trkpt>
      <trkpt lat="46.26718" lon="5.94211">
        <ele>1603</ele>
        <time>2014-06-28T14:20:51.000Z</time>
      </trkpt>
      <trkpt lat="46.26714" lon="5.94218">
        <ele>1602</ele>
        <time>2014-06-28T14:20:56.000Z</time>
      </trkpt>
      <trkpt lat="46.26707" lon="5.94219">
        <ele>1601</ele>
        <time>2014-06-28T14:21:03.000Z</time>
      </trkpt>
      <trkpt lat="46.26698" lon="5.94226">
        <ele>1600</ele>
        <time>2014-06-28T14:21:12.000Z</time>
      </trkpt>
      <trkpt lat="46.26693" lon="5.94235">
        <ele>1598</ele>
        <time>2014-06-28T14:21:21.000Z</time>
      </trkpt>
      <trkpt lat="46.26688" lon="5.94236">
        <ele>1597</ele>
        <time>2014-06-28T14:21:25.000Z</time>
      </trkpt>
      <trkpt lat="46.26678" lon="5.94235">
        <ele>1595</ele>
        <time>2014-06-28T14:21:39.000Z</time>
      </trkpt>
      <trkpt lat="46.26677" lon="5.94235">
        <ele>1595</ele>
        <time>2014-06-28T14:21:40.000Z</time>
      </trkpt>
      <trkpt lat="46.26671" lon="5.94237">
        <ele>1593</ele>
        <time>2014-06-28T14:21:49.000Z</time>
      </trkpt>
      <trkpt lat="46.26669" lon="5.94238">
        <ele>1593</ele>
        <time>2014-06-28T14:21:52.000Z</time>
      </trkpt>
      <trkpt lat="46.26666" lon="5.94238">
        <ele>1587</ele>
        <time>2014-06-28T14:21:54.000Z</time>
      </trkpt>
      <trkpt lat="46.26658" lon="5.94244">
        <ele>1587</ele>
        <time>2014-06-28T14:22:07.000Z</time>
      </trkpt>
      <trkpt lat="46.26657" lon="5.94242">
        <ele>1587</ele>
        <time>2014-06-28T14:22:12.000Z</time>
      </trkpt>
      <trkpt lat="46.26645" lon="5.94233">
        <ele>1586</ele>
        <time>2014-06-28T14:22:28.000Z</time>
      </trkpt>
      <trkpt lat="46.26633" lon="5.94228">
        <ele>1585</ele>
        <time>2014-06-28T14:22:38.000Z</time>
      </trkpt>
      <trkpt lat="46.26624" lon="5.94222">
        <ele>1585</ele>
        <time>2014-06-28T14:22:47.000Z</time>
      </trkpt>
      <trkpt lat="46.26617" lon="5.94214">
        <ele>1584</ele>
        <time>2014-06-28T14:22:53.000Z</time>
      </trkpt>
      <trkpt lat="46.26612" lon="5.94208">
        <ele>1584</ele>
        <time>2014-06-28T14:22:57.000Z</time>
      </trkpt>
      <trkpt lat="46.26608" lon="5.94204">
        <ele>1584</ele>
        <time>2014-06-28T14:23:01.000Z</time>
      </trkpt>
      <trkpt lat="46.26598" lon="5.94192">
        <ele>1584</ele>
        <time>2014-06-28T14:23:12.000Z</time>
      </trkpt>
      <trkpt lat="46.26594" lon="5.9419">
        <ele>1584</ele>
        <time>2014-06-28T14:23:15.000Z</time>
      </trkpt>
      <trkpt lat="46.26582" lon="5.94176">
        <ele>1579</ele>
        <time>2014-06-28T14:23:29.000Z</time>
      </trkpt>
      <trkpt lat="46.26579" lon="5.9417">
        <ele>1580</ele>
        <time>2014-06-28T14:23:33.000Z</time>
      </trkpt>
      <trkpt lat="46.2657" lon="5.94165">
        <ele>1582</ele>
        <time>2014-06-28T14:23:42.000Z</time>
      </trkpt>
      <trkpt lat="46.2656" lon="5.94166">
        <ele>1582</ele>
        <time>2014-06-28T14:23:53.000Z</time>
      </trkpt>
      <trkpt lat="46.26556" lon="5.94162">
        <ele>1582</ele>
        <time>2014-06-28T14:24:04.000Z</time>
      </trkpt>
      <trkpt lat="46.26554" lon="5.94163">
        <ele>1581</ele>
        <time>2014-06-28T14:24:19.000Z</time>
      </trkpt>
      <trkpt lat="46.26554" lon="5.94161">
        <ele>1581</ele>
        <time>2014-06-28T14:24:21.000Z</time>
      </trkpt>
      <trkpt lat="46.26552" lon="5.94159">
        <ele>1581</ele>
        <time>2014-06-28T14:24:24.000Z</time>
      </trkpt>
      <trkpt lat="46.26546" lon="5.94155">
        <ele>1581</ele>
        <time>2014-06-28T14:24:31.000Z</time>
      </trkpt>
      <trkpt lat="46.26542" lon="5.94143">
        <ele>1581</ele>
        <time>2014-06-28T14:24:41.000Z</time>
      </trkpt>
      <trkpt lat="46.26542" lon="5.94138">
        <ele>1582</ele>
        <time>2014-06-28T14:25:03.000Z</time>
      </trkpt>
      <trkpt lat="46.26545" lon="5.94137">
        <ele>1582</ele>
        <time>2014-06-28T14:25:20.000Z</time>
      </trkpt>
      <trkpt lat="46.26537" lon="5.94136">
        <ele>1582</ele>
        <time>2014-06-28T14:25:53.000Z</time>
      </trkpt>
      <trkpt lat="46.27134" lon="5.94304">
        <ele>1694</ele>
        <time>2014-06-28T14:26:13.000Z</time>
      </trkpt>
      <trkpt lat="46.2725" lon="5.94336">
        <ele>1698</ele>
        <time>2014-06-28T14:26:18.000Z</time>
      </trkpt>
      <trkpt lat="46.27295" lon="5.94328">
        <ele>1679</ele>
        <time>2014-06-28T14:26:25.000Z</time>
      </trkpt>
    </trkseg>
  </trk>
</gpx>